<?xml version="1.0" encoding="UTF-8" standalone="no" ?>
<gpx xmlns="http://www.topografix.com/GPX/1/1" xmlns:xsi="http://www.w3.org/2001/XMLSchema-instance" xsi:schemaLocation="http://www.topografix.com/GPX/1/1 http://www.topografix.com/GPX/1/1/gpx.xsd" version="1.1" creator="VisuGPX - https://www.visugpx.com">
  <metadata>
    <name>ETB 22 k</name>
  </metadata>
  <trk>
    <name><![CDATA[ETB 22 k ]]></name>
    <trkseg>
      <trkpt lat="45.97641" lon="3.52173">
        <ele>313.4</ele>
        <time>2025-10-30T21:27:20Z</time>
      </trkpt>
      <trkpt lat="45.9764" lon="3.52173">
        <ele>313.5</ele>
        <time>2025-10-30T21:27:20Z</time>
      </trkpt>
      <trkpt lat="45.97642" lon="3.52183">
        <ele>313</ele>
        <time>2025-10-30T21:27:20Z</time>
      </trkpt>
      <trkpt lat="45.97644" lon="3.52194">
        <ele>312.9</ele>
        <time>2025-10-30T21:27:20Z</time>
      </trkpt>
      <trkpt lat="45.97644" lon="3.52199">
        <ele>313.2</ele>
        <time>2025-10-30T21:27:20Z</time>
      </trkpt>
      <trkpt lat="45.97645" lon="3.52206">
        <ele>313.4</ele>
        <time>2025-10-30T21:27:20Z</time>
      </trkpt>
      <trkpt lat="45.97645" lon="3.52211">
        <ele>313.4</ele>
        <time>2025-10-30T21:27:20Z</time>
      </trkpt>
      <trkpt lat="45.97645" lon="3.52212">
        <ele>313.4</ele>
        <time>2025-10-30T21:27:20Z</time>
      </trkpt>
      <trkpt lat="45.97646" lon="3.52214">
        <ele>313.1</ele>
        <time>2025-10-30T21:27:20Z</time>
      </trkpt>
      <trkpt lat="45.97648" lon="3.52217">
        <ele>313.2</ele>
        <time>2025-10-30T21:27:20Z</time>
      </trkpt>
      <trkpt lat="45.97649" lon="3.52219">
        <ele>313.2</ele>
        <time>2025-10-30T21:27:20Z</time>
      </trkpt>
      <trkpt lat="45.97651" lon="3.5222">
        <ele>312.9</ele>
        <time>2025-10-30T21:27:20Z</time>
      </trkpt>
      <trkpt lat="45.97657" lon="3.52224">
        <ele>312.6</ele>
        <time>2025-10-30T21:27:20Z</time>
      </trkpt>
      <trkpt lat="45.97658" lon="3.52214">
        <ele>312.5</ele>
        <time>2025-10-30T21:27:20Z</time>
      </trkpt>
      <trkpt lat="45.97658" lon="3.52211">
        <ele>312.5</ele>
        <time>2025-10-30T21:27:20Z</time>
      </trkpt>
      <trkpt lat="45.97659" lon="3.52207">
        <ele>312.5</ele>
        <time>2025-10-30T21:27:20Z</time>
      </trkpt>
      <trkpt lat="45.9766" lon="3.52202">
        <ele>312.4</ele>
        <time>2025-10-30T21:27:20Z</time>
      </trkpt>
      <trkpt lat="45.97661" lon="3.52198">
        <ele>312.4</ele>
        <time>2025-10-30T21:27:20Z</time>
      </trkpt>
      <trkpt lat="45.97665" lon="3.52187">
        <ele>312.4</ele>
        <time>2025-10-30T21:27:20Z</time>
      </trkpt>
      <trkpt lat="45.97668" lon="3.52177">
        <ele>312.5</ele>
        <time>2025-10-30T21:27:20Z</time>
      </trkpt>
      <trkpt lat="45.97673" lon="3.52168">
        <ele>312.5</ele>
        <time>2025-10-30T21:27:20Z</time>
      </trkpt>
      <trkpt lat="45.97678" lon="3.52159">
        <ele>312.2</ele>
        <time>2025-10-30T21:27:20Z</time>
      </trkpt>
      <trkpt lat="45.97682" lon="3.52152">
        <ele>312.2</ele>
        <time>2025-10-30T21:27:20Z</time>
      </trkpt>
      <trkpt lat="45.97686" lon="3.52147">
        <ele>312.2</ele>
        <time>2025-10-30T21:27:20Z</time>
      </trkpt>
      <trkpt lat="45.9769" lon="3.52143">
        <ele>312.1</ele>
        <time>2025-10-30T21:27:20Z</time>
      </trkpt>
      <trkpt lat="45.97697" lon="3.52137">
        <ele>312.1</ele>
        <time>2025-10-30T21:27:20Z</time>
      </trkpt>
      <trkpt lat="45.97703" lon="3.52132">
        <ele>312</ele>
        <time>2025-10-30T21:27:20Z</time>
      </trkpt>
      <trkpt lat="45.97716" lon="3.52118">
        <ele>311.7</ele>
        <time>2025-10-30T21:27:20Z</time>
      </trkpt>
      <trkpt lat="45.97728" lon="3.52103">
        <ele>311.3</ele>
        <time>2025-10-30T21:27:20Z</time>
      </trkpt>
      <trkpt lat="45.97734" lon="3.52096">
        <ele>311.1</ele>
        <time>2025-10-30T21:27:20Z</time>
      </trkpt>
      <trkpt lat="45.9774" lon="3.52088">
        <ele>310.8</ele>
        <time>2025-10-30T21:27:20Z</time>
      </trkpt>
      <trkpt lat="45.97765" lon="3.52057">
        <ele>310.7</ele>
        <time>2025-10-30T21:27:20Z</time>
      </trkpt>
      <trkpt lat="45.9778" lon="3.52039">
        <ele>311</ele>
        <time>2025-10-30T21:27:20Z</time>
      </trkpt>
      <trkpt lat="45.97784" lon="3.52035">
        <ele>311</ele>
        <time>2025-10-30T21:27:20Z</time>
      </trkpt>
      <trkpt lat="45.97786" lon="3.52032">
        <ele>310.9</ele>
        <time>2025-10-30T21:27:20Z</time>
      </trkpt>
      <trkpt lat="45.97782" lon="3.5203">
        <ele>311</ele>
        <time>2025-10-30T21:27:20Z</time>
      </trkpt>
      <trkpt lat="45.97776" lon="3.52027">
        <ele>311.1</ele>
        <time>2025-10-30T21:27:20Z</time>
      </trkpt>
      <trkpt lat="45.9777" lon="3.52023">
        <ele>311.2</ele>
        <time>2025-10-30T21:27:20Z</time>
      </trkpt>
      <trkpt lat="45.97767" lon="3.5202">
        <ele>311.2</ele>
        <time>2025-10-30T21:27:20Z</time>
      </trkpt>
      <trkpt lat="45.97763" lon="3.52017">
        <ele>311.3</ele>
        <time>2025-10-30T21:27:20Z</time>
      </trkpt>
      <trkpt lat="45.9776" lon="3.52016">
        <ele>311.3</ele>
        <time>2025-10-30T21:27:20Z</time>
      </trkpt>
      <trkpt lat="45.97754" lon="3.52012">
        <ele>311.4</ele>
        <time>2025-10-30T21:27:20Z</time>
      </trkpt>
      <trkpt lat="45.97751" lon="3.5201">
        <ele>311.5</ele>
        <time>2025-10-30T21:27:20Z</time>
      </trkpt>
      <trkpt lat="45.97748" lon="3.52007">
        <ele>311.6</ele>
        <time>2025-10-30T21:27:20Z</time>
      </trkpt>
      <trkpt lat="45.97722" lon="3.52007">
        <ele>311.8</ele>
        <time>2025-10-30T21:27:20Z</time>
      </trkpt>
      <trkpt lat="45.97712" lon="3.52006">
        <ele>312.2</ele>
        <time>2025-10-30T21:27:20Z</time>
      </trkpt>
      <trkpt lat="45.97709" lon="3.52006">
        <ele>312.3</ele>
        <time>2025-10-30T21:27:20Z</time>
      </trkpt>
      <trkpt lat="45.97696" lon="3.52001">
        <ele>312.9</ele>
        <time>2025-10-30T21:27:20Z</time>
      </trkpt>
      <trkpt lat="45.97694" lon="3.51999">
        <ele>313</ele>
        <time>2025-10-30T21:27:20Z</time>
      </trkpt>
      <trkpt lat="45.97691" lon="3.51998">
        <ele>313.2</ele>
        <time>2025-10-30T21:27:20Z</time>
      </trkpt>
      <trkpt lat="45.97686" lon="3.51996">
        <ele>313.4</ele>
        <time>2025-10-30T21:27:20Z</time>
      </trkpt>
      <trkpt lat="45.97682" lon="3.52003">
        <ele>313.7</ele>
        <time>2025-10-30T21:27:20Z</time>
      </trkpt>
      <trkpt lat="45.9768" lon="3.52006">
        <ele>313.8</ele>
        <time>2025-10-30T21:27:20Z</time>
      </trkpt>
      <trkpt lat="45.97679" lon="3.5201">
        <ele>314.2</ele>
        <time>2025-10-30T21:27:20Z</time>
      </trkpt>
      <trkpt lat="45.97678" lon="3.52012">
        <ele>314.2</ele>
        <time>2025-10-30T21:27:20Z</time>
      </trkpt>
      <trkpt lat="45.97677" lon="3.52014">
        <ele>314.5</ele>
        <time>2025-10-30T21:27:20Z</time>
      </trkpt>
      <trkpt lat="45.97677" lon="3.5202">
        <ele>314.6</ele>
        <time>2025-10-30T21:27:20Z</time>
      </trkpt>
      <trkpt lat="45.97676" lon="3.52028">
        <ele>314.8</ele>
        <time>2025-10-30T21:27:20Z</time>
      </trkpt>
      <trkpt lat="45.97675" lon="3.52038">
        <ele>314.8</ele>
        <time>2025-10-30T21:27:20Z</time>
      </trkpt>
      <trkpt lat="45.97675" lon="3.5204">
        <ele>314.9</ele>
        <time>2025-10-30T21:27:20Z</time>
      </trkpt>
      <trkpt lat="45.97675" lon="3.52045">
        <ele>314.9</ele>
        <time>2025-10-30T21:27:20Z</time>
      </trkpt>
      <trkpt lat="45.97673" lon="3.52053">
        <ele>315</ele>
        <time>2025-10-30T21:27:20Z</time>
      </trkpt>
      <trkpt lat="45.9767" lon="3.5206">
        <ele>314.9</ele>
        <time>2025-10-30T21:27:20Z</time>
      </trkpt>
      <trkpt lat="45.97667" lon="3.52068">
        <ele>315.1</ele>
        <time>2025-10-30T21:27:20Z</time>
      </trkpt>
      <trkpt lat="45.97662" lon="3.52078">
        <ele>315.1</ele>
        <time>2025-10-30T21:27:20Z</time>
      </trkpt>
      <trkpt lat="45.97656" lon="3.52087">
        <ele>315.1</ele>
        <time>2025-10-30T21:27:20Z</time>
      </trkpt>
      <trkpt lat="45.97648" lon="3.52102">
        <ele>315.2</ele>
        <time>2025-10-30T21:27:20Z</time>
      </trkpt>
      <trkpt lat="45.97641" lon="3.52114">
        <ele>315.2</ele>
        <time>2025-10-30T21:27:20Z</time>
      </trkpt>
      <trkpt lat="45.9764" lon="3.52117">
        <ele>315.2</ele>
        <time>2025-10-30T21:27:20Z</time>
      </trkpt>
      <trkpt lat="45.97639" lon="3.52119">
        <ele>315.2</ele>
        <time>2025-10-30T21:27:20Z</time>
      </trkpt>
      <trkpt lat="45.97626" lon="3.52114">
        <ele>317.2</ele>
        <time>2025-10-30T21:27:20Z</time>
      </trkpt>
      <trkpt lat="45.97619" lon="3.5211">
        <ele>318.9</ele>
        <time>2025-10-30T21:27:20Z</time>
      </trkpt>
      <trkpt lat="45.97618" lon="3.52108">
        <ele>318.9</ele>
        <time>2025-10-30T21:27:20Z</time>
      </trkpt>
      <trkpt lat="45.97618" lon="3.52105">
        <ele>319.3</ele>
        <time>2025-10-30T21:27:20Z</time>
      </trkpt>
      <trkpt lat="45.97619" lon="3.521">
        <ele>319.5</ele>
        <time>2025-10-30T21:27:20Z</time>
      </trkpt>
      <trkpt lat="45.97619" lon="3.52097">
        <ele>319.6</ele>
        <time>2025-10-30T21:27:20Z</time>
      </trkpt>
      <trkpt lat="45.97621" lon="3.52093">
        <ele>319.2</ele>
        <time>2025-10-30T21:27:20Z</time>
      </trkpt>
      <trkpt lat="45.97608" lon="3.52079">
        <ele>322.1</ele>
        <time>2025-10-30T21:27:20Z</time>
      </trkpt>
      <trkpt lat="45.97611" lon="3.52071">
        <ele>322.2</ele>
        <time>2025-10-30T21:27:20Z</time>
      </trkpt>
      <trkpt lat="45.97612" lon="3.52062">
        <ele>323.2</ele>
        <time>2025-10-30T21:27:20Z</time>
      </trkpt>
      <trkpt lat="45.9761" lon="3.52057">
        <ele>324.4</ele>
        <time>2025-10-30T21:27:20Z</time>
      </trkpt>
      <trkpt lat="45.97618" lon="3.52044">
        <ele>322.2</ele>
        <time>2025-10-30T21:27:20Z</time>
      </trkpt>
      <trkpt lat="45.97626" lon="3.52033">
        <ele>320.5</ele>
        <time>2025-10-30T21:27:20Z</time>
      </trkpt>
      <trkpt lat="45.97621" lon="3.52028">
        <ele>321</ele>
        <time>2025-10-30T21:27:20Z</time>
      </trkpt>
      <trkpt lat="45.97614" lon="3.52021">
        <ele>322</ele>
        <time>2025-10-30T21:27:20Z</time>
      </trkpt>
      <trkpt lat="45.9761" lon="3.52016">
        <ele>322.9</ele>
        <time>2025-10-30T21:27:20Z</time>
      </trkpt>
      <trkpt lat="45.97608" lon="3.5201">
        <ele>322.1</ele>
        <time>2025-10-30T21:27:20Z</time>
      </trkpt>
      <trkpt lat="45.97607" lon="3.52004">
        <ele>320.9</ele>
        <time>2025-10-30T21:27:20Z</time>
      </trkpt>
      <trkpt lat="45.97606" lon="3.52001">
        <ele>322</ele>
        <time>2025-10-30T21:27:20Z</time>
      </trkpt>
      <trkpt lat="45.97605" lon="3.51999">
        <ele>320.4</ele>
        <time>2025-10-30T21:27:20Z</time>
      </trkpt>
      <trkpt lat="45.97601" lon="3.51996">
        <ele>321.2</ele>
        <time>2025-10-30T21:27:20Z</time>
      </trkpt>
      <trkpt lat="45.97599" lon="3.51993">
        <ele>319.6</ele>
        <time>2025-10-30T21:27:20Z</time>
      </trkpt>
      <trkpt lat="45.97597" lon="3.51989">
        <ele>319</ele>
        <time>2025-10-30T21:27:20Z</time>
      </trkpt>
      <trkpt lat="45.97595" lon="3.51981">
        <ele>317.6</ele>
        <time>2025-10-30T21:27:20Z</time>
      </trkpt>
      <trkpt lat="45.97594" lon="3.5198">
        <ele>317.6</ele>
        <time>2025-10-30T21:27:20Z</time>
      </trkpt>
      <trkpt lat="45.97592" lon="3.51979">
        <ele>316.9</ele>
        <time>2025-10-30T21:27:20Z</time>
      </trkpt>
      <trkpt lat="45.97589" lon="3.5198">
        <ele>316.6</ele>
        <time>2025-10-30T21:27:20Z</time>
      </trkpt>
      <trkpt lat="45.97586" lon="3.5198">
        <ele>316.6</ele>
        <time>2025-10-30T21:27:20Z</time>
      </trkpt>
      <trkpt lat="45.97585" lon="3.51978">
        <ele>316.3</ele>
        <time>2025-10-30T21:27:20Z</time>
      </trkpt>
      <trkpt lat="45.97585" lon="3.51975">
        <ele>316.3</ele>
        <time>2025-10-30T21:27:20Z</time>
      </trkpt>
      <trkpt lat="45.97584" lon="3.5197">
        <ele>316</ele>
        <time>2025-10-30T21:27:20Z</time>
      </trkpt>
      <trkpt lat="45.97584" lon="3.51949">
        <ele>315.3</ele>
        <time>2025-10-30T21:27:20Z</time>
      </trkpt>
      <trkpt lat="45.97583" lon="3.51942">
        <ele>315.2</ele>
        <time>2025-10-30T21:27:20Z</time>
      </trkpt>
      <trkpt lat="45.97582" lon="3.51938">
        <ele>315.2</ele>
        <time>2025-10-30T21:27:20Z</time>
      </trkpt>
      <trkpt lat="45.97577" lon="3.51942">
        <ele>315.4</ele>
        <time>2025-10-30T21:27:20Z</time>
      </trkpt>
      <trkpt lat="45.97567" lon="3.51952">
        <ele>316.1</ele>
        <time>2025-10-30T21:27:20Z</time>
      </trkpt>
      <trkpt lat="45.97562" lon="3.51959">
        <ele>316.4</ele>
        <time>2025-10-30T21:27:20Z</time>
      </trkpt>
      <trkpt lat="45.97555" lon="3.51968">
        <ele>316.8</ele>
        <time>2025-10-30T21:27:20Z</time>
      </trkpt>
      <trkpt lat="45.97547" lon="3.51978">
        <ele>317.1</ele>
        <time>2025-10-30T21:27:20Z</time>
      </trkpt>
      <trkpt lat="45.97543" lon="3.51984">
        <ele>317.7</ele>
        <time>2025-10-30T21:27:20Z</time>
      </trkpt>
      <trkpt lat="45.9754" lon="3.51987">
        <ele>317.9</ele>
        <time>2025-10-30T21:27:20Z</time>
      </trkpt>
      <trkpt lat="45.97537" lon="3.51991">
        <ele>318.1</ele>
        <time>2025-10-30T21:27:20Z</time>
      </trkpt>
      <trkpt lat="45.97533" lon="3.51994">
        <ele>318.3</ele>
        <time>2025-10-30T21:27:20Z</time>
      </trkpt>
      <trkpt lat="45.9753" lon="3.51996">
        <ele>318.4</ele>
        <time>2025-10-30T21:27:20Z</time>
      </trkpt>
      <trkpt lat="45.97527" lon="3.51999">
        <ele>318.5</ele>
        <time>2025-10-30T21:27:20Z</time>
      </trkpt>
      <trkpt lat="45.97523" lon="3.52007">
        <ele>318.8</ele>
        <time>2025-10-30T21:27:20Z</time>
      </trkpt>
      <trkpt lat="45.9752" lon="3.52013">
        <ele>318.9</ele>
        <time>2025-10-30T21:27:20Z</time>
      </trkpt>
      <trkpt lat="45.97515" lon="3.52029">
        <ele>319.8</ele>
        <time>2025-10-30T21:27:20Z</time>
      </trkpt>
      <trkpt lat="45.97514" lon="3.52035">
        <ele>320.2</ele>
        <time>2025-10-30T21:27:20Z</time>
      </trkpt>
      <trkpt lat="45.97512" lon="3.52043">
        <ele>320.6</ele>
        <time>2025-10-30T21:27:20Z</time>
      </trkpt>
      <trkpt lat="45.97511" lon="3.52048">
        <ele>321.2</ele>
        <time>2025-10-30T21:27:20Z</time>
      </trkpt>
      <trkpt lat="45.97509" lon="3.52054">
        <ele>321.5</ele>
        <time>2025-10-30T21:27:20Z</time>
      </trkpt>
      <trkpt lat="45.97508" lon="3.52056">
        <ele>321.5</ele>
        <time>2025-10-30T21:27:20Z</time>
      </trkpt>
      <trkpt lat="45.97505" lon="3.52064">
        <ele>322.2</ele>
        <time>2025-10-30T21:27:20Z</time>
      </trkpt>
      <trkpt lat="45.97501" lon="3.5207">
        <ele>322.9</ele>
        <time>2025-10-30T21:27:20Z</time>
      </trkpt>
      <trkpt lat="45.97498" lon="3.52074">
        <ele>323.3</ele>
        <time>2025-10-30T21:27:20Z</time>
      </trkpt>
      <trkpt lat="45.9749" lon="3.5208">
        <ele>323.9</ele>
        <time>2025-10-30T21:27:20Z</time>
      </trkpt>
      <trkpt lat="45.97471" lon="3.52091">
        <ele>325.4</ele>
        <time>2025-10-30T21:27:20Z</time>
      </trkpt>
      <trkpt lat="45.97448" lon="3.52103">
        <ele>326.9</ele>
        <time>2025-10-30T21:27:20Z</time>
      </trkpt>
      <trkpt lat="45.97435" lon="3.52111">
        <ele>327.7</ele>
        <time>2025-10-30T21:27:20Z</time>
      </trkpt>
      <trkpt lat="45.97441" lon="3.52116">
        <ele>327.7</ele>
        <time>2025-10-30T21:27:20Z</time>
      </trkpt>
      <trkpt lat="45.97443" lon="3.52118">
        <ele>327.9</ele>
        <time>2025-10-30T21:27:20Z</time>
      </trkpt>
      <trkpt lat="45.97445" lon="3.5212">
        <ele>328.1</ele>
        <time>2025-10-30T21:27:20Z</time>
      </trkpt>
      <trkpt lat="45.97448" lon="3.52123">
        <ele>329.1</ele>
        <time>2025-10-30T21:27:20Z</time>
      </trkpt>
      <trkpt lat="45.97462" lon="3.52135">
        <ele>331.4</ele>
        <time>2025-10-30T21:27:20Z</time>
      </trkpt>
      <trkpt lat="45.97489" lon="3.52157">
        <ele>337.2</ele>
        <time>2025-10-30T21:27:20Z</time>
      </trkpt>
      <trkpt lat="45.97501" lon="3.52163">
        <ele>341.7</ele>
        <time>2025-10-30T21:27:20Z</time>
      </trkpt>
      <trkpt lat="45.97502" lon="3.52172">
        <ele>341.3</ele>
        <time>2025-10-30T21:27:20Z</time>
      </trkpt>
      <trkpt lat="45.97501" lon="3.52183">
        <ele>342.8</ele>
        <time>2025-10-30T21:27:20Z</time>
      </trkpt>
      <trkpt lat="45.97498" lon="3.52193">
        <ele>347.2</ele>
        <time>2025-10-30T21:27:20Z</time>
      </trkpt>
      <trkpt lat="45.97495" lon="3.522">
        <ele>349.5</ele>
        <time>2025-10-30T21:27:20Z</time>
      </trkpt>
      <trkpt lat="45.97489" lon="3.52213">
        <ele>351.2</ele>
        <time>2025-10-30T21:27:20Z</time>
      </trkpt>
      <trkpt lat="45.97469" lon="3.52251">
        <ele>353</ele>
        <time>2025-10-30T21:27:20Z</time>
      </trkpt>
      <trkpt lat="45.97451" lon="3.52277">
        <ele>357.7</ele>
        <time>2025-10-30T21:27:20Z</time>
      </trkpt>
      <trkpt lat="45.9744" lon="3.52292">
        <ele>361.3</ele>
        <time>2025-10-30T21:27:20Z</time>
      </trkpt>
      <trkpt lat="45.97429" lon="3.52314">
        <ele>367.6</ele>
        <time>2025-10-30T21:27:20Z</time>
      </trkpt>
      <trkpt lat="45.97415" lon="3.52328">
        <ele>371.1</ele>
        <time>2025-10-30T21:27:20Z</time>
      </trkpt>
      <trkpt lat="45.97406" lon="3.52332">
        <ele>372.9</ele>
        <time>2025-10-30T21:27:20Z</time>
      </trkpt>
      <trkpt lat="45.97396" lon="3.52335">
        <ele>376</ele>
        <time>2025-10-30T21:27:20Z</time>
      </trkpt>
      <trkpt lat="45.97391" lon="3.5234">
        <ele>377.2</ele>
        <time>2025-10-30T21:27:20Z</time>
      </trkpt>
      <trkpt lat="45.97384" lon="3.52356">
        <ele>379.6</ele>
        <time>2025-10-30T21:27:20Z</time>
      </trkpt>
      <trkpt lat="45.97382" lon="3.52368">
        <ele>382.2</ele>
        <time>2025-10-30T21:27:20Z</time>
      </trkpt>
      <trkpt lat="45.97376" lon="3.52399">
        <ele>386.6</ele>
        <time>2025-10-30T21:27:20Z</time>
      </trkpt>
      <trkpt lat="45.97367" lon="3.52424">
        <ele>391</ele>
        <time>2025-10-30T21:27:20Z</time>
      </trkpt>
      <trkpt lat="45.97351" lon="3.5245">
        <ele>397.4</ele>
        <time>2025-10-30T21:27:20Z</time>
      </trkpt>
      <trkpt lat="45.97344" lon="3.52459">
        <ele>399.7</ele>
        <time>2025-10-30T21:27:20Z</time>
      </trkpt>
      <trkpt lat="45.97327" lon="3.52477">
        <ele>404.1</ele>
        <time>2025-10-30T21:27:20Z</time>
      </trkpt>
      <trkpt lat="45.97313" lon="3.52489">
        <ele>406.2</ele>
        <time>2025-10-30T21:27:20Z</time>
      </trkpt>
      <trkpt lat="45.97299" lon="3.52499">
        <ele>408.3</ele>
        <time>2025-10-30T21:27:20Z</time>
      </trkpt>
      <trkpt lat="45.97284" lon="3.52511">
        <ele>412.7</ele>
        <time>2025-10-30T21:27:20Z</time>
      </trkpt>
      <trkpt lat="45.97273" lon="3.52523">
        <ele>415.7</ele>
        <time>2025-10-30T21:27:20Z</time>
      </trkpt>
      <trkpt lat="45.97261" lon="3.52539">
        <ele>420.4</ele>
        <time>2025-10-30T21:27:20Z</time>
      </trkpt>
      <trkpt lat="45.97248" lon="3.52553">
        <ele>423.8</ele>
        <time>2025-10-30T21:27:20Z</time>
      </trkpt>
      <trkpt lat="45.97242" lon="3.52566">
        <ele>426.7</ele>
        <time>2025-10-30T21:27:20Z</time>
      </trkpt>
      <trkpt lat="45.97237" lon="3.52584">
        <ele>430</ele>
        <time>2025-10-30T21:27:20Z</time>
      </trkpt>
      <trkpt lat="45.97232" lon="3.5261">
        <ele>433.5</ele>
        <time>2025-10-30T21:27:20Z</time>
      </trkpt>
      <trkpt lat="45.97231" lon="3.52637">
        <ele>436.5</ele>
        <time>2025-10-30T21:27:20Z</time>
      </trkpt>
      <trkpt lat="45.97224" lon="3.52674">
        <ele>439.5</ele>
        <time>2025-10-30T21:27:20Z</time>
      </trkpt>
      <trkpt lat="45.97215" lon="3.52714">
        <ele>443.9</ele>
        <time>2025-10-30T21:27:20Z</time>
      </trkpt>
      <trkpt lat="45.97208" lon="3.52745">
        <ele>447.3</ele>
        <time>2025-10-30T21:27:20Z</time>
      </trkpt>
      <trkpt lat="45.97208" lon="3.52766">
        <ele>450.2</ele>
        <time>2025-10-30T21:27:20Z</time>
      </trkpt>
      <trkpt lat="45.97209" lon="3.52787">
        <ele>451.9</ele>
        <time>2025-10-30T21:27:20Z</time>
      </trkpt>
      <trkpt lat="45.97208" lon="3.52794">
        <ele>452.2</ele>
        <time>2025-10-30T21:27:20Z</time>
      </trkpt>
      <trkpt lat="45.97208" lon="3.52801">
        <ele>453.6</ele>
        <time>2025-10-30T21:27:20Z</time>
      </trkpt>
      <trkpt lat="45.97208" lon="3.52807">
        <ele>454.2</ele>
        <time>2025-10-30T21:27:20Z</time>
      </trkpt>
      <trkpt lat="45.97208" lon="3.52814">
        <ele>455.1</ele>
        <time>2025-10-30T21:27:20Z</time>
      </trkpt>
      <trkpt lat="45.97209" lon="3.5282">
        <ele>456</ele>
        <time>2025-10-30T21:27:20Z</time>
      </trkpt>
      <trkpt lat="45.9721" lon="3.52827">
        <ele>456.6</ele>
        <time>2025-10-30T21:27:20Z</time>
      </trkpt>
      <trkpt lat="45.97213" lon="3.52847">
        <ele>460</ele>
        <time>2025-10-30T21:27:20Z</time>
      </trkpt>
      <trkpt lat="45.97217" lon="3.52869">
        <ele>463.5</ele>
        <time>2025-10-30T21:27:20Z</time>
      </trkpt>
      <trkpt lat="45.97218" lon="3.52874">
        <ele>463.8</ele>
        <time>2025-10-30T21:27:20Z</time>
      </trkpt>
      <trkpt lat="45.97218" lon="3.52878">
        <ele>464.3</ele>
        <time>2025-10-30T21:27:20Z</time>
      </trkpt>
      <trkpt lat="45.97217" lon="3.52882">
        <ele>464.8</ele>
        <time>2025-10-30T21:27:20Z</time>
      </trkpt>
      <trkpt lat="45.97217" lon="3.52887">
        <ele>465.2</ele>
        <time>2025-10-30T21:27:20Z</time>
      </trkpt>
      <trkpt lat="45.97216" lon="3.52892">
        <ele>465.8</ele>
        <time>2025-10-30T21:27:20Z</time>
      </trkpt>
      <trkpt lat="45.97215" lon="3.52898">
        <ele>466.5</ele>
        <time>2025-10-30T21:27:20Z</time>
      </trkpt>
      <trkpt lat="45.97213" lon="3.52908">
        <ele>467.3</ele>
        <time>2025-10-30T21:27:20Z</time>
      </trkpt>
      <trkpt lat="45.9721" lon="3.52924">
        <ele>468.7</ele>
        <time>2025-10-30T21:27:20Z</time>
      </trkpt>
      <trkpt lat="45.97208" lon="3.52935">
        <ele>469.4</ele>
        <time>2025-10-30T21:27:20Z</time>
      </trkpt>
      <trkpt lat="45.97204" lon="3.52949">
        <ele>471</ele>
        <time>2025-10-30T21:27:20Z</time>
      </trkpt>
      <trkpt lat="45.97207" lon="3.5295">
        <ele>471</ele>
        <time>2025-10-30T21:27:20Z</time>
      </trkpt>
      <trkpt lat="45.97217" lon="3.52955">
        <ele>471.7</ele>
        <time>2025-10-30T21:27:20Z</time>
      </trkpt>
      <trkpt lat="45.97235" lon="3.5296">
        <ele>472.6</ele>
        <time>2025-10-30T21:27:20Z</time>
      </trkpt>
      <trkpt lat="45.97249" lon="3.52965">
        <ele>473.4</ele>
        <time>2025-10-30T21:27:20Z</time>
      </trkpt>
      <trkpt lat="45.97254" lon="3.52966">
        <ele>474</ele>
        <time>2025-10-30T21:27:20Z</time>
      </trkpt>
      <trkpt lat="45.9726" lon="3.52967">
        <ele>474.6</ele>
        <time>2025-10-30T21:27:20Z</time>
      </trkpt>
      <trkpt lat="45.97269" lon="3.52966">
        <ele>475.4</ele>
        <time>2025-10-30T21:27:20Z</time>
      </trkpt>
      <trkpt lat="45.97272" lon="3.52966">
        <ele>475.8</ele>
        <time>2025-10-30T21:27:20Z</time>
      </trkpt>
      <trkpt lat="45.97277" lon="3.52967">
        <ele>476.2</ele>
        <time>2025-10-30T21:27:20Z</time>
      </trkpt>
      <trkpt lat="45.97285" lon="3.52968">
        <ele>476.5</ele>
        <time>2025-10-30T21:27:20Z</time>
      </trkpt>
      <trkpt lat="45.97289" lon="3.52969">
        <ele>476.5</ele>
        <time>2025-10-30T21:27:20Z</time>
      </trkpt>
      <trkpt lat="45.97293" lon="3.5297">
        <ele>476.7</ele>
        <time>2025-10-30T21:27:20Z</time>
      </trkpt>
      <trkpt lat="45.97296" lon="3.52973">
        <ele>477.1</ele>
        <time>2025-10-30T21:27:20Z</time>
      </trkpt>
      <trkpt lat="45.97302" lon="3.52983">
        <ele>478.9</ele>
        <time>2025-10-30T21:27:20Z</time>
      </trkpt>
      <trkpt lat="45.97305" lon="3.52989">
        <ele>479.4</ele>
        <time>2025-10-30T21:27:20Z</time>
      </trkpt>
      <trkpt lat="45.97306" lon="3.52991">
        <ele>479.4</ele>
        <time>2025-10-30T21:27:20Z</time>
      </trkpt>
      <trkpt lat="45.97308" lon="3.52993">
        <ele>480.1</ele>
        <time>2025-10-30T21:27:20Z</time>
      </trkpt>
      <trkpt lat="45.9731" lon="3.52994">
        <ele>480.1</ele>
        <time>2025-10-30T21:27:20Z</time>
      </trkpt>
      <trkpt lat="45.97327" lon="3.53002">
        <ele>480.9</ele>
        <time>2025-10-30T21:27:20Z</time>
      </trkpt>
      <trkpt lat="45.97329" lon="3.53004">
        <ele>480.6</ele>
        <time>2025-10-30T21:27:20Z</time>
      </trkpt>
      <trkpt lat="45.97338" lon="3.53009">
        <ele>481.3</ele>
        <time>2025-10-30T21:27:20Z</time>
      </trkpt>
      <trkpt lat="45.97354" lon="3.53025">
        <ele>481.1</ele>
        <time>2025-10-30T21:27:20Z</time>
      </trkpt>
      <trkpt lat="45.9737" lon="3.53042">
        <ele>482.6</ele>
        <time>2025-10-30T21:27:20Z</time>
      </trkpt>
      <trkpt lat="45.97387" lon="3.53061">
        <ele>484.4</ele>
        <time>2025-10-30T21:27:20Z</time>
      </trkpt>
      <trkpt lat="45.97396" lon="3.53072">
        <ele>484.5</ele>
        <time>2025-10-30T21:27:20Z</time>
      </trkpt>
      <trkpt lat="45.97403" lon="3.53085">
        <ele>484.1</ele>
        <time>2025-10-30T21:27:20Z</time>
      </trkpt>
      <trkpt lat="45.97409" lon="3.53097">
        <ele>484.3</ele>
        <time>2025-10-30T21:27:20Z</time>
      </trkpt>
      <trkpt lat="45.97411" lon="3.53108">
        <ele>483.3</ele>
        <time>2025-10-30T21:27:20Z</time>
      </trkpt>
      <trkpt lat="45.97413" lon="3.53124">
        <ele>482.9</ele>
        <time>2025-10-30T21:27:20Z</time>
      </trkpt>
      <trkpt lat="45.97415" lon="3.5314">
        <ele>481.6</ele>
        <time>2025-10-30T21:27:20Z</time>
      </trkpt>
      <trkpt lat="45.97425" lon="3.53151">
        <ele>482.1</ele>
        <time>2025-10-30T21:27:20Z</time>
      </trkpt>
      <trkpt lat="45.97446" lon="3.5316">
        <ele>484.8</ele>
        <time>2025-10-30T21:27:20Z</time>
      </trkpt>
      <trkpt lat="45.97489" lon="3.53155">
        <ele>486.4</ele>
        <time>2025-10-30T21:27:20Z</time>
      </trkpt>
      <trkpt lat="45.97509" lon="3.53156">
        <ele>487</ele>
        <time>2025-10-30T21:27:20Z</time>
      </trkpt>
      <trkpt lat="45.97546" lon="3.53155">
        <ele>487</ele>
        <time>2025-10-30T21:27:20Z</time>
      </trkpt>
      <trkpt lat="45.97571" lon="3.53145">
        <ele>482.8</ele>
        <time>2025-10-30T21:27:20Z</time>
      </trkpt>
      <trkpt lat="45.97593" lon="3.53131">
        <ele>479.4</ele>
        <time>2025-10-30T21:27:20Z</time>
      </trkpt>
      <trkpt lat="45.97615" lon="3.53131">
        <ele>476.3</ele>
        <time>2025-10-30T21:27:20Z</time>
      </trkpt>
      <trkpt lat="45.97635" lon="3.53143">
        <ele>473.4</ele>
        <time>2025-10-30T21:27:20Z</time>
      </trkpt>
      <trkpt lat="45.97647" lon="3.53155">
        <ele>471.4</ele>
        <time>2025-10-30T21:27:20Z</time>
      </trkpt>
      <trkpt lat="45.97657" lon="3.53171">
        <ele>468.1</ele>
        <time>2025-10-30T21:27:20Z</time>
      </trkpt>
      <trkpt lat="45.97665" lon="3.53205">
        <ele>460.7</ele>
        <time>2025-10-30T21:27:20Z</time>
      </trkpt>
      <trkpt lat="45.9767" lon="3.53216">
        <ele>459.3</ele>
        <time>2025-10-30T21:27:20Z</time>
      </trkpt>
      <trkpt lat="45.97718" lon="3.53267">
        <ele>452.1</ele>
        <time>2025-10-30T21:27:20Z</time>
      </trkpt>
      <trkpt lat="45.97724" lon="3.53274">
        <ele>451.1</ele>
        <time>2025-10-30T21:27:20Z</time>
      </trkpt>
      <trkpt lat="45.97743" lon="3.53306">
        <ele>445.9</ele>
        <time>2025-10-30T21:27:20Z</time>
      </trkpt>
      <trkpt lat="45.97749" lon="3.53348">
        <ele>439.8</ele>
        <time>2025-10-30T21:27:20Z</time>
      </trkpt>
      <trkpt lat="45.97744" lon="3.53379">
        <ele>439</ele>
        <time>2025-10-30T21:27:20Z</time>
      </trkpt>
      <trkpt lat="45.97743" lon="3.53395">
        <ele>439.4</ele>
        <time>2025-10-30T21:27:20Z</time>
      </trkpt>
      <trkpt lat="45.97746" lon="3.53416">
        <ele>437.8</ele>
        <time>2025-10-30T21:27:20Z</time>
      </trkpt>
      <trkpt lat="45.97758" lon="3.53435">
        <ele>438.9</ele>
        <time>2025-10-30T21:27:20Z</time>
      </trkpt>
      <trkpt lat="45.97763" lon="3.53444">
        <ele>440.7</ele>
        <time>2025-10-30T21:27:20Z</time>
      </trkpt>
      <trkpt lat="45.97769" lon="3.53459">
        <ele>443</ele>
        <time>2025-10-30T21:27:20Z</time>
      </trkpt>
      <trkpt lat="45.97768" lon="3.53494">
        <ele>447</ele>
        <time>2025-10-30T21:27:20Z</time>
      </trkpt>
      <trkpt lat="45.97758" lon="3.53526">
        <ele>450.6</ele>
        <time>2025-10-30T21:27:20Z</time>
      </trkpt>
      <trkpt lat="45.97743" lon="3.53565">
        <ele>451.3</ele>
        <time>2025-10-30T21:27:20Z</time>
      </trkpt>
      <trkpt lat="45.97717" lon="3.53592">
        <ele>451.1</ele>
        <time>2025-10-30T21:27:20Z</time>
      </trkpt>
      <trkpt lat="45.97686" lon="3.53628">
        <ele>454.3</ele>
        <time>2025-10-30T21:27:20Z</time>
      </trkpt>
      <trkpt lat="45.97672" lon="3.53654">
        <ele>456</ele>
        <time>2025-10-30T21:27:20Z</time>
      </trkpt>
      <trkpt lat="45.97667" lon="3.53682">
        <ele>458.1</ele>
        <time>2025-10-30T21:27:20Z</time>
      </trkpt>
      <trkpt lat="45.9767" lon="3.5371">
        <ele>460.4</ele>
        <time>2025-10-30T21:27:20Z</time>
      </trkpt>
      <trkpt lat="45.97683" lon="3.53753">
        <ele>467.6</ele>
        <time>2025-10-30T21:27:20Z</time>
      </trkpt>
      <trkpt lat="45.97709" lon="3.53809">
        <ele>477.4</ele>
        <time>2025-10-30T21:27:20Z</time>
      </trkpt>
      <trkpt lat="45.97718" lon="3.53821">
        <ele>478.3</ele>
        <time>2025-10-30T21:27:20Z</time>
      </trkpt>
      <trkpt lat="45.97726" lon="3.53851">
        <ele>480.5</ele>
        <time>2025-10-30T21:27:20Z</time>
      </trkpt>
      <trkpt lat="45.97753" lon="3.5387">
        <ele>487.6</ele>
        <time>2025-10-30T21:27:20Z</time>
      </trkpt>
      <trkpt lat="45.97771" lon="3.53881">
        <ele>492.3</ele>
        <time>2025-10-30T21:27:20Z</time>
      </trkpt>
      <trkpt lat="45.97798" lon="3.53889">
        <ele>497.1</ele>
        <time>2025-10-30T21:27:20Z</time>
      </trkpt>
      <trkpt lat="45.97817" lon="3.53894">
        <ele>499.2</ele>
        <time>2025-10-30T21:27:20Z</time>
      </trkpt>
      <trkpt lat="45.97838" lon="3.53895">
        <ele>500.9</ele>
        <time>2025-10-30T21:27:20Z</time>
      </trkpt>
      <trkpt lat="45.97854" lon="3.53891">
        <ele>502.1</ele>
        <time>2025-10-30T21:27:20Z</time>
      </trkpt>
      <trkpt lat="45.97873" lon="3.53886">
        <ele>502.2</ele>
        <time>2025-10-30T21:27:20Z</time>
      </trkpt>
      <trkpt lat="45.97888" lon="3.53888">
        <ele>501.8</ele>
        <time>2025-10-30T21:27:20Z</time>
      </trkpt>
      <trkpt lat="45.97892" lon="3.539">
        <ele>501.9</ele>
        <time>2025-10-30T21:27:20Z</time>
      </trkpt>
      <trkpt lat="45.97894" lon="3.53906">
        <ele>502.3</ele>
        <time>2025-10-30T21:27:20Z</time>
      </trkpt>
      <trkpt lat="45.97899" lon="3.53913">
        <ele>501.5</ele>
        <time>2025-10-30T21:27:20Z</time>
      </trkpt>
      <trkpt lat="45.97907" lon="3.53922">
        <ele>501.5</ele>
        <time>2025-10-30T21:27:20Z</time>
      </trkpt>
      <trkpt lat="45.97913" lon="3.53927">
        <ele>501.1</ele>
        <time>2025-10-30T21:27:20Z</time>
      </trkpt>
      <trkpt lat="45.9792" lon="3.53933">
        <ele>501.2</ele>
        <time>2025-10-30T21:27:20Z</time>
      </trkpt>
      <trkpt lat="45.97933" lon="3.53946">
        <ele>501.9</ele>
        <time>2025-10-30T21:27:20Z</time>
      </trkpt>
      <trkpt lat="45.97951" lon="3.53963">
        <ele>503.4</ele>
        <time>2025-10-30T21:27:20Z</time>
      </trkpt>
      <trkpt lat="45.97954" lon="3.53967">
        <ele>503.9</ele>
        <time>2025-10-30T21:27:20Z</time>
      </trkpt>
      <trkpt lat="45.97958" lon="3.53974">
        <ele>504.2</ele>
        <time>2025-10-30T21:27:20Z</time>
      </trkpt>
      <trkpt lat="45.9796" lon="3.53977">
        <ele>504.3</ele>
        <time>2025-10-30T21:27:20Z</time>
      </trkpt>
      <trkpt lat="45.97962" lon="3.5398">
        <ele>504.8</ele>
        <time>2025-10-30T21:27:20Z</time>
      </trkpt>
      <trkpt lat="45.97963" lon="3.53983">
        <ele>504.6</ele>
        <time>2025-10-30T21:27:20Z</time>
      </trkpt>
      <trkpt lat="45.97964" lon="3.53986">
        <ele>504.6</ele>
        <time>2025-10-30T21:27:20Z</time>
      </trkpt>
      <trkpt lat="45.97966" lon="3.5399">
        <ele>505.1</ele>
        <time>2025-10-30T21:27:20Z</time>
      </trkpt>
      <trkpt lat="45.97967" lon="3.53994">
        <ele>505.7</ele>
        <time>2025-10-30T21:27:20Z</time>
      </trkpt>
      <trkpt lat="45.97968" lon="3.53996">
        <ele>505.1</ele>
        <time>2025-10-30T21:27:20Z</time>
      </trkpt>
      <trkpt lat="45.97969" lon="3.53999">
        <ele>505.1</ele>
        <time>2025-10-30T21:27:20Z</time>
      </trkpt>
      <trkpt lat="45.9797" lon="3.54002">
        <ele>505.7</ele>
        <time>2025-10-30T21:27:20Z</time>
      </trkpt>
      <trkpt lat="45.97971" lon="3.54006">
        <ele>506.3</ele>
        <time>2025-10-30T21:27:20Z</time>
      </trkpt>
      <trkpt lat="45.97972" lon="3.54009">
        <ele>505.6</ele>
        <time>2025-10-30T21:27:20Z</time>
      </trkpt>
      <trkpt lat="45.97973" lon="3.54011">
        <ele>505.6</ele>
        <time>2025-10-30T21:27:20Z</time>
      </trkpt>
      <trkpt lat="45.97975" lon="3.54015">
        <ele>506.2</ele>
        <time>2025-10-30T21:27:20Z</time>
      </trkpt>
      <trkpt lat="45.97976" lon="3.54019">
        <ele>505.9</ele>
        <time>2025-10-30T21:27:20Z</time>
      </trkpt>
      <trkpt lat="45.97978" lon="3.54022">
        <ele>506.4</ele>
        <time>2025-10-30T21:27:20Z</time>
      </trkpt>
      <trkpt lat="45.9798" lon="3.54025">
        <ele>506.4</ele>
        <time>2025-10-30T21:27:20Z</time>
      </trkpt>
      <trkpt lat="45.97982" lon="3.54028">
        <ele>506.5</ele>
        <time>2025-10-30T21:27:20Z</time>
      </trkpt>
      <trkpt lat="45.97985" lon="3.5403">
        <ele>506.2</ele>
        <time>2025-10-30T21:27:20Z</time>
      </trkpt>
      <trkpt lat="45.97986" lon="3.54032">
        <ele>506.7</ele>
        <time>2025-10-30T21:27:20Z</time>
      </trkpt>
      <trkpt lat="45.97989" lon="3.54035">
        <ele>507</ele>
        <time>2025-10-30T21:27:20Z</time>
      </trkpt>
      <trkpt lat="45.97992" lon="3.54039">
        <ele>507.4</ele>
        <time>2025-10-30T21:27:20Z</time>
      </trkpt>
      <trkpt lat="45.97996" lon="3.54043">
        <ele>507.4</ele>
        <time>2025-10-30T21:27:20Z</time>
      </trkpt>
      <trkpt lat="45.97999" lon="3.54046">
        <ele>507.9</ele>
        <time>2025-10-30T21:27:20Z</time>
      </trkpt>
      <trkpt lat="45.98001" lon="3.54049">
        <ele>508.3</ele>
        <time>2025-10-30T21:27:20Z</time>
      </trkpt>
      <trkpt lat="45.98004" lon="3.54051">
        <ele>508.7</ele>
        <time>2025-10-30T21:27:20Z</time>
      </trkpt>
      <trkpt lat="45.98007" lon="3.54057">
        <ele>509.5</ele>
        <time>2025-10-30T21:27:20Z</time>
      </trkpt>
      <trkpt lat="45.98008" lon="3.54058">
        <ele>509.5</ele>
        <time>2025-10-30T21:27:20Z</time>
      </trkpt>
      <trkpt lat="45.9801" lon="3.54062">
        <ele>510</ele>
        <time>2025-10-30T21:27:20Z</time>
      </trkpt>
      <trkpt lat="45.98012" lon="3.54066">
        <ele>510.1</ele>
        <time>2025-10-30T21:27:20Z</time>
      </trkpt>
      <trkpt lat="45.98014" lon="3.5407">
        <ele>510.5</ele>
        <time>2025-10-30T21:27:20Z</time>
      </trkpt>
      <trkpt lat="45.98015" lon="3.54073">
        <ele>509.9</ele>
        <time>2025-10-30T21:27:20Z</time>
      </trkpt>
      <trkpt lat="45.98017" lon="3.5408">
        <ele>510.6</ele>
        <time>2025-10-30T21:27:20Z</time>
      </trkpt>
      <trkpt lat="45.98021" lon="3.54092">
        <ele>511</ele>
        <time>2025-10-30T21:27:20Z</time>
      </trkpt>
      <trkpt lat="45.98023" lon="3.54099">
        <ele>511.2</ele>
        <time>2025-10-30T21:27:20Z</time>
      </trkpt>
      <trkpt lat="45.98025" lon="3.54106">
        <ele>511.5</ele>
        <time>2025-10-30T21:27:20Z</time>
      </trkpt>
      <trkpt lat="45.98029" lon="3.54117">
        <ele>512</ele>
        <time>2025-10-30T21:27:20Z</time>
      </trkpt>
      <trkpt lat="45.98034" lon="3.54131">
        <ele>512.7</ele>
        <time>2025-10-30T21:27:20Z</time>
      </trkpt>
      <trkpt lat="45.98037" lon="3.54141">
        <ele>513.3</ele>
        <time>2025-10-30T21:27:20Z</time>
      </trkpt>
      <trkpt lat="45.9804" lon="3.54151">
        <ele>514.2</ele>
        <time>2025-10-30T21:27:20Z</time>
      </trkpt>
      <trkpt lat="45.98046" lon="3.54169">
        <ele>515.4</ele>
        <time>2025-10-30T21:27:20Z</time>
      </trkpt>
      <trkpt lat="45.98042" lon="3.54173">
        <ele>515.8</ele>
        <time>2025-10-30T21:27:20Z</time>
      </trkpt>
      <trkpt lat="45.98043" lon="3.54179">
        <ele>516</ele>
        <time>2025-10-30T21:27:20Z</time>
      </trkpt>
      <trkpt lat="45.98043" lon="3.54187">
        <ele>516.2</ele>
        <time>2025-10-30T21:27:20Z</time>
      </trkpt>
      <trkpt lat="45.98043" lon="3.54192">
        <ele>516.2</ele>
        <time>2025-10-30T21:27:20Z</time>
      </trkpt>
      <trkpt lat="45.98041" lon="3.54208">
        <ele>516</ele>
        <time>2025-10-30T21:27:20Z</time>
      </trkpt>
      <trkpt lat="45.98036" lon="3.54236">
        <ele>515.7</ele>
        <time>2025-10-30T21:27:20Z</time>
      </trkpt>
      <trkpt lat="45.98035" lon="3.54245">
        <ele>515.7</ele>
        <time>2025-10-30T21:27:20Z</time>
      </trkpt>
      <trkpt lat="45.98035" lon="3.5425">
        <ele>515.4</ele>
        <time>2025-10-30T21:27:20Z</time>
      </trkpt>
      <trkpt lat="45.98034" lon="3.54256">
        <ele>515.1</ele>
        <time>2025-10-30T21:27:20Z</time>
      </trkpt>
      <trkpt lat="45.98034" lon="3.54261">
        <ele>514.7</ele>
        <time>2025-10-30T21:27:20Z</time>
      </trkpt>
      <trkpt lat="45.98033" lon="3.54263">
        <ele>514.3</ele>
        <time>2025-10-30T21:27:20Z</time>
      </trkpt>
      <trkpt lat="45.98032" lon="3.54266">
        <ele>514.3</ele>
        <time>2025-10-30T21:27:20Z</time>
      </trkpt>
      <trkpt lat="45.98032" lon="3.54267">
        <ele>513.9</ele>
        <time>2025-10-30T21:27:20Z</time>
      </trkpt>
      <trkpt lat="45.98031" lon="3.54269">
        <ele>514.3</ele>
        <time>2025-10-30T21:27:20Z</time>
      </trkpt>
      <trkpt lat="45.9803" lon="3.5427">
        <ele>514.3</ele>
        <time>2025-10-30T21:27:20Z</time>
      </trkpt>
      <trkpt lat="45.98027" lon="3.54272">
        <ele>513.8</ele>
        <time>2025-10-30T21:27:20Z</time>
      </trkpt>
      <trkpt lat="45.98023" lon="3.54274">
        <ele>513.8</ele>
        <time>2025-10-30T21:27:20Z</time>
      </trkpt>
      <trkpt lat="45.98015" lon="3.54273">
        <ele>513.3</ele>
        <time>2025-10-30T21:27:20Z</time>
      </trkpt>
      <trkpt lat="45.98011" lon="3.54273">
        <ele>513</ele>
        <time>2025-10-30T21:27:20Z</time>
      </trkpt>
      <trkpt lat="45.98007" lon="3.54274">
        <ele>512.9</ele>
        <time>2025-10-30T21:27:20Z</time>
      </trkpt>
      <trkpt lat="45.98004" lon="3.54275">
        <ele>511.4</ele>
        <time>2025-10-30T21:27:20Z</time>
      </trkpt>
      <trkpt lat="45.98" lon="3.54276">
        <ele>511.3</ele>
        <time>2025-10-30T21:27:20Z</time>
      </trkpt>
      <trkpt lat="45.97997" lon="3.54277">
        <ele>511.6</ele>
        <time>2025-10-30T21:27:20Z</time>
      </trkpt>
      <trkpt lat="45.97994" lon="3.5428">
        <ele>510.6</ele>
        <time>2025-10-30T21:27:20Z</time>
      </trkpt>
      <trkpt lat="45.97991" lon="3.54283">
        <ele>510.9</ele>
        <time>2025-10-30T21:27:20Z</time>
      </trkpt>
      <trkpt lat="45.97989" lon="3.54286">
        <ele>510.1</ele>
        <time>2025-10-30T21:27:20Z</time>
      </trkpt>
      <trkpt lat="45.97988" lon="3.54289">
        <ele>510.5</ele>
        <time>2025-10-30T21:27:20Z</time>
      </trkpt>
      <trkpt lat="45.97987" lon="3.54294">
        <ele>510.3</ele>
        <time>2025-10-30T21:27:20Z</time>
      </trkpt>
      <trkpt lat="45.97986" lon="3.54298">
        <ele>510.4</ele>
        <time>2025-10-30T21:27:20Z</time>
      </trkpt>
      <trkpt lat="45.97986" lon="3.54311">
        <ele>511.4</ele>
        <time>2025-10-30T21:27:20Z</time>
      </trkpt>
      <trkpt lat="45.97986" lon="3.5432">
        <ele>511.8</ele>
        <time>2025-10-30T21:27:20Z</time>
      </trkpt>
      <trkpt lat="45.97986" lon="3.54327">
        <ele>511.9</ele>
        <time>2025-10-30T21:27:20Z</time>
      </trkpt>
      <trkpt lat="45.97985" lon="3.54332">
        <ele>511.7</ele>
        <time>2025-10-30T21:27:20Z</time>
      </trkpt>
      <trkpt lat="45.97984" lon="3.54338">
        <ele>513.3</ele>
        <time>2025-10-30T21:27:20Z</time>
      </trkpt>
      <trkpt lat="45.97984" lon="3.54342">
        <ele>512.8</ele>
        <time>2025-10-30T21:27:20Z</time>
      </trkpt>
      <trkpt lat="45.97983" lon="3.54345">
        <ele>512.3</ele>
        <time>2025-10-30T21:27:20Z</time>
      </trkpt>
      <trkpt lat="45.97981" lon="3.5435">
        <ele>511.7</ele>
        <time>2025-10-30T21:27:20Z</time>
      </trkpt>
      <trkpt lat="45.97977" lon="3.54356">
        <ele>511.9</ele>
        <time>2025-10-30T21:27:20Z</time>
      </trkpt>
      <trkpt lat="45.97971" lon="3.54363">
        <ele>512.2</ele>
        <time>2025-10-30T21:27:20Z</time>
      </trkpt>
      <trkpt lat="45.97963" lon="3.54372">
        <ele>511.1</ele>
        <time>2025-10-30T21:27:20Z</time>
      </trkpt>
      <trkpt lat="45.9795" lon="3.54386">
        <ele>511.8</ele>
        <time>2025-10-30T21:27:20Z</time>
      </trkpt>
      <trkpt lat="45.97946" lon="3.54392">
        <ele>511.1</ele>
        <time>2025-10-30T21:27:20Z</time>
      </trkpt>
      <trkpt lat="45.97944" lon="3.54396">
        <ele>511.3</ele>
        <time>2025-10-30T21:27:20Z</time>
      </trkpt>
      <trkpt lat="45.97943" lon="3.54399">
        <ele>511.3</ele>
        <time>2025-10-30T21:27:20Z</time>
      </trkpt>
      <trkpt lat="45.97942" lon="3.54401">
        <ele>511</ele>
        <time>2025-10-30T21:27:20Z</time>
      </trkpt>
      <trkpt lat="45.97942" lon="3.54405">
        <ele>510.9</ele>
        <time>2025-10-30T21:27:20Z</time>
      </trkpt>
      <trkpt lat="45.97943" lon="3.54411">
        <ele>511.3</ele>
        <time>2025-10-30T21:27:20Z</time>
      </trkpt>
      <trkpt lat="45.97945" lon="3.54421">
        <ele>513.1</ele>
        <time>2025-10-30T21:27:20Z</time>
      </trkpt>
      <trkpt lat="45.97947" lon="3.54428">
        <ele>511.7</ele>
        <time>2025-10-30T21:27:20Z</time>
      </trkpt>
      <trkpt lat="45.97947" lon="3.54433">
        <ele>512</ele>
        <time>2025-10-30T21:27:20Z</time>
      </trkpt>
      <trkpt lat="45.97948" lon="3.54435">
        <ele>512.5</ele>
        <time>2025-10-30T21:27:20Z</time>
      </trkpt>
      <trkpt lat="45.9795" lon="3.54443">
        <ele>513.4</ele>
        <time>2025-10-30T21:27:20Z</time>
      </trkpt>
      <trkpt lat="45.97951" lon="3.54468">
        <ele>519.5</ele>
        <time>2025-10-30T21:27:20Z</time>
      </trkpt>
      <trkpt lat="45.97959" lon="3.5448">
        <ele>522.6</ele>
        <time>2025-10-30T21:27:20Z</time>
      </trkpt>
      <trkpt lat="45.97969" lon="3.54496">
        <ele>525.9</ele>
        <time>2025-10-30T21:27:20Z</time>
      </trkpt>
      <trkpt lat="45.97987" lon="3.54492">
        <ele>523.1</ele>
        <time>2025-10-30T21:27:20Z</time>
      </trkpt>
      <trkpt lat="45.98004" lon="3.54485">
        <ele>515.8</ele>
        <time>2025-10-30T21:27:20Z</time>
      </trkpt>
      <trkpt lat="45.98011" lon="3.54502">
        <ele>512.9</ele>
        <time>2025-10-30T21:27:20Z</time>
      </trkpt>
      <trkpt lat="45.98011" lon="3.54525">
        <ele>515.6</ele>
        <time>2025-10-30T21:27:20Z</time>
      </trkpt>
      <trkpt lat="45.98003" lon="3.5456">
        <ele>512.4</ele>
        <time>2025-10-30T21:27:20Z</time>
      </trkpt>
      <trkpt lat="45.97993" lon="3.546">
        <ele>508.3</ele>
        <time>2025-10-30T21:27:20Z</time>
      </trkpt>
      <trkpt lat="45.97988" lon="3.54631">
        <ele>509.3</ele>
        <time>2025-10-30T21:27:20Z</time>
      </trkpt>
      <trkpt lat="45.97985" lon="3.5466">
        <ele>507.1</ele>
        <time>2025-10-30T21:27:20Z</time>
      </trkpt>
      <trkpt lat="45.97979" lon="3.54669">
        <ele>508.9</ele>
        <time>2025-10-30T21:27:20Z</time>
      </trkpt>
      <trkpt lat="45.97952" lon="3.54693">
        <ele>503.3</ele>
        <time>2025-10-30T21:27:20Z</time>
      </trkpt>
      <trkpt lat="45.9793" lon="3.54721">
        <ele>502.5</ele>
        <time>2025-10-30T21:27:20Z</time>
      </trkpt>
      <trkpt lat="45.97904" lon="3.54751">
        <ele>499.4</ele>
        <time>2025-10-30T21:27:20Z</time>
      </trkpt>
      <trkpt lat="45.97885" lon="3.54777">
        <ele>506.7</ele>
        <time>2025-10-30T21:27:20Z</time>
      </trkpt>
      <trkpt lat="45.97893" lon="3.54808">
        <ele>500.1</ele>
        <time>2025-10-30T21:27:20Z</time>
      </trkpt>
      <trkpt lat="45.97899" lon="3.54835">
        <ele>493.9</ele>
        <time>2025-10-30T21:27:20Z</time>
      </trkpt>
      <trkpt lat="45.97907" lon="3.54847">
        <ele>495.2</ele>
        <time>2025-10-30T21:27:20Z</time>
      </trkpt>
      <trkpt lat="45.97909" lon="3.54857">
        <ele>498.1</ele>
        <time>2025-10-30T21:27:20Z</time>
      </trkpt>
      <trkpt lat="45.97918" lon="3.54857">
        <ele>500.1</ele>
        <time>2025-10-30T21:27:20Z</time>
      </trkpt>
      <trkpt lat="45.97949" lon="3.54852">
        <ele>504.4</ele>
        <time>2025-10-30T21:27:20Z</time>
      </trkpt>
      <trkpt lat="45.97968" lon="3.54846">
        <ele>501.8</ele>
        <time>2025-10-30T21:27:20Z</time>
      </trkpt>
      <trkpt lat="45.97988" lon="3.54847">
        <ele>499.4</ele>
        <time>2025-10-30T21:27:20Z</time>
      </trkpt>
      <trkpt lat="45.97999" lon="3.54858">
        <ele>499.2</ele>
        <time>2025-10-30T21:27:20Z</time>
      </trkpt>
      <trkpt lat="45.98007" lon="3.5487">
        <ele>498.8</ele>
        <time>2025-10-30T21:27:20Z</time>
      </trkpt>
      <trkpt lat="45.98006" lon="3.54899">
        <ele>498.5</ele>
        <time>2025-10-30T21:27:20Z</time>
      </trkpt>
      <trkpt lat="45.98" lon="3.5494">
        <ele>494.9</ele>
        <time>2025-10-30T21:27:20Z</time>
      </trkpt>
      <trkpt lat="45.97995" lon="3.55">
        <ele>495.8</ele>
        <time>2025-10-30T21:27:20Z</time>
      </trkpt>
      <trkpt lat="45.9798" lon="3.55032">
        <ele>495.5</ele>
        <time>2025-10-30T21:27:20Z</time>
      </trkpt>
      <trkpt lat="45.97975" lon="3.55058">
        <ele>494.4</ele>
        <time>2025-10-30T21:27:20Z</time>
      </trkpt>
      <trkpt lat="45.97978" lon="3.55066">
        <ele>496.1</ele>
        <time>2025-10-30T21:27:20Z</time>
      </trkpt>
      <trkpt lat="45.97991" lon="3.55071">
        <ele>496.2</ele>
        <time>2025-10-30T21:27:20Z</time>
      </trkpt>
      <trkpt lat="45.98013" lon="3.55071">
        <ele>493.8</ele>
        <time>2025-10-30T21:27:20Z</time>
      </trkpt>
      <trkpt lat="45.98033" lon="3.55071">
        <ele>492</ele>
        <time>2025-10-30T21:27:20Z</time>
      </trkpt>
      <trkpt lat="45.98048" lon="3.55059">
        <ele>489.8</ele>
        <time>2025-10-30T21:27:20Z</time>
      </trkpt>
      <trkpt lat="45.98069" lon="3.55047">
        <ele>487.8</ele>
        <time>2025-10-30T21:27:20Z</time>
      </trkpt>
      <trkpt lat="45.98174" lon="3.55043">
        <ele>473.1</ele>
        <time>2025-10-30T21:27:20Z</time>
      </trkpt>
      <trkpt lat="45.98236" lon="3.55046">
        <ele>469.4</ele>
        <time>2025-10-30T21:27:20Z</time>
      </trkpt>
      <trkpt lat="45.98281" lon="3.55044">
        <ele>466.2</ele>
        <time>2025-10-30T21:27:20Z</time>
      </trkpt>
      <trkpt lat="45.98293" lon="3.55047">
        <ele>465</ele>
        <time>2025-10-30T21:27:20Z</time>
      </trkpt>
      <trkpt lat="45.98294" lon="3.5506">
        <ele>463.1</ele>
        <time>2025-10-30T21:27:20Z</time>
      </trkpt>
      <trkpt lat="45.98279" lon="3.55072">
        <ele>461.5</ele>
        <time>2025-10-30T21:27:20Z</time>
      </trkpt>
      <trkpt lat="45.98245" lon="3.55099">
        <ele>452</ele>
        <time>2025-10-30T21:27:20Z</time>
      </trkpt>
      <trkpt lat="45.98221" lon="3.55111">
        <ele>449.6</ele>
        <time>2025-10-30T21:27:20Z</time>
      </trkpt>
      <trkpt lat="45.98202" lon="3.55118">
        <ele>446.2</ele>
        <time>2025-10-30T21:27:20Z</time>
      </trkpt>
      <trkpt lat="45.98195" lon="3.5513">
        <ele>443.7</ele>
        <time>2025-10-30T21:27:20Z</time>
      </trkpt>
      <trkpt lat="45.98201" lon="3.5514">
        <ele>444.7</ele>
        <time>2025-10-30T21:27:20Z</time>
      </trkpt>
      <trkpt lat="45.98226" lon="3.55138">
        <ele>439.5</ele>
        <time>2025-10-30T21:27:20Z</time>
      </trkpt>
      <trkpt lat="45.98271" lon="3.55152">
        <ele>433.8</ele>
        <time>2025-10-30T21:27:20Z</time>
      </trkpt>
      <trkpt lat="45.98292" lon="3.5516">
        <ele>429.9</ele>
        <time>2025-10-30T21:27:20Z</time>
      </trkpt>
      <trkpt lat="45.98308" lon="3.5516">
        <ele>425.1</ele>
        <time>2025-10-30T21:27:20Z</time>
      </trkpt>
      <trkpt lat="45.98335" lon="3.55162">
        <ele>419.1</ele>
        <time>2025-10-30T21:27:20Z</time>
      </trkpt>
      <trkpt lat="45.98369" lon="3.55146">
        <ele>418.1</ele>
        <time>2025-10-30T21:27:20Z</time>
      </trkpt>
      <trkpt lat="45.98377" lon="3.55138">
        <ele>414.4</ele>
        <time>2025-10-30T21:27:20Z</time>
      </trkpt>
      <trkpt lat="45.9842" lon="3.55095">
        <ele>408.5</ele>
        <time>2025-10-30T21:27:20Z</time>
      </trkpt>
      <trkpt lat="45.98418" lon="3.55086">
        <ele>408.6</ele>
        <time>2025-10-30T21:27:20Z</time>
      </trkpt>
      <trkpt lat="45.98418" lon="3.55082">
        <ele>408.7</ele>
        <time>2025-10-30T21:27:20Z</time>
      </trkpt>
      <trkpt lat="45.98418" lon="3.55077">
        <ele>408.4</ele>
        <time>2025-10-30T21:27:20Z</time>
      </trkpt>
      <trkpt lat="45.9848" lon="3.55051">
        <ele>436.9</ele>
        <time>2025-10-30T21:27:20Z</time>
      </trkpt>
      <trkpt lat="45.9854" lon="3.55028">
        <ele>468.4</ele>
        <time>2025-10-30T21:27:20Z</time>
      </trkpt>
      <trkpt lat="45.98538" lon="3.55029">
        <ele>468.4</ele>
        <time>2025-10-30T21:27:20Z</time>
      </trkpt>
      <trkpt lat="45.98537" lon="3.55026">
        <ele>467.2</ele>
        <time>2025-10-30T21:27:20Z</time>
      </trkpt>
      <trkpt lat="45.98534" lon="3.55011">
        <ele>465.7</ele>
        <time>2025-10-30T21:27:20Z</time>
      </trkpt>
      <trkpt lat="45.98531" lon="3.55002">
        <ele>463.5</ele>
        <time>2025-10-30T21:27:20Z</time>
      </trkpt>
      <trkpt lat="45.98527" lon="3.54995">
        <ele>462.1</ele>
        <time>2025-10-30T21:27:20Z</time>
      </trkpt>
      <trkpt lat="45.98519" lon="3.54985">
        <ele>459.3</ele>
        <time>2025-10-30T21:27:20Z</time>
      </trkpt>
      <trkpt lat="45.98512" lon="3.54975">
        <ele>457</ele>
        <time>2025-10-30T21:27:20Z</time>
      </trkpt>
      <trkpt lat="45.98508" lon="3.54965">
        <ele>456.7</ele>
        <time>2025-10-30T21:27:20Z</time>
      </trkpt>
      <trkpt lat="45.98507" lon="3.54957">
        <ele>455.3</ele>
        <time>2025-10-30T21:27:20Z</time>
      </trkpt>
      <trkpt lat="45.98507" lon="3.54948">
        <ele>454.8</ele>
        <time>2025-10-30T21:27:20Z</time>
      </trkpt>
      <trkpt lat="45.98507" lon="3.5494">
        <ele>454.5</ele>
        <time>2025-10-30T21:27:20Z</time>
      </trkpt>
      <trkpt lat="45.98509" lon="3.54923">
        <ele>453.1</ele>
        <time>2025-10-30T21:27:20Z</time>
      </trkpt>
      <trkpt lat="45.9851" lon="3.54907">
        <ele>452.4</ele>
        <time>2025-10-30T21:27:20Z</time>
      </trkpt>
      <trkpt lat="45.98511" lon="3.54895">
        <ele>451.8</ele>
        <time>2025-10-30T21:27:20Z</time>
      </trkpt>
      <trkpt lat="45.98515" lon="3.54882">
        <ele>452.8</ele>
        <time>2025-10-30T21:27:20Z</time>
      </trkpt>
      <trkpt lat="45.98519" lon="3.54869">
        <ele>453.1</ele>
        <time>2025-10-30T21:27:20Z</time>
      </trkpt>
      <trkpt lat="45.98522" lon="3.54861">
        <ele>453.3</ele>
        <time>2025-10-30T21:27:20Z</time>
      </trkpt>
      <trkpt lat="45.9853" lon="3.5485">
        <ele>454.2</ele>
        <time>2025-10-30T21:27:20Z</time>
      </trkpt>
      <trkpt lat="45.98538" lon="3.54842">
        <ele>454.6</ele>
        <time>2025-10-30T21:27:20Z</time>
      </trkpt>
      <trkpt lat="45.98545" lon="3.54834">
        <ele>453.6</ele>
        <time>2025-10-30T21:27:20Z</time>
      </trkpt>
      <trkpt lat="45.98554" lon="3.54824">
        <ele>451.9</ele>
        <time>2025-10-30T21:27:20Z</time>
      </trkpt>
      <trkpt lat="45.98569" lon="3.54806">
        <ele>450.3</ele>
        <time>2025-10-30T21:27:20Z</time>
      </trkpt>
      <trkpt lat="45.98579" lon="3.54792">
        <ele>447.8</ele>
        <time>2025-10-30T21:27:20Z</time>
      </trkpt>
      <trkpt lat="45.98584" lon="3.54783">
        <ele>446.6</ele>
        <time>2025-10-30T21:27:20Z</time>
      </trkpt>
      <trkpt lat="45.9859" lon="3.54775">
        <ele>446.5</ele>
        <time>2025-10-30T21:27:20Z</time>
      </trkpt>
      <trkpt lat="45.98593" lon="3.5477">
        <ele>446.1</ele>
        <time>2025-10-30T21:27:20Z</time>
      </trkpt>
      <trkpt lat="45.986" lon="3.54766">
        <ele>447.6</ele>
        <time>2025-10-30T21:27:20Z</time>
      </trkpt>
      <trkpt lat="45.98607" lon="3.54763">
        <ele>450.5</ele>
        <time>2025-10-30T21:27:20Z</time>
      </trkpt>
      <trkpt lat="45.98614" lon="3.54759">
        <ele>451.6</ele>
        <time>2025-10-30T21:27:20Z</time>
      </trkpt>
      <trkpt lat="45.98623" lon="3.54754">
        <ele>453.2</ele>
        <time>2025-10-30T21:27:20Z</time>
      </trkpt>
      <trkpt lat="45.98632" lon="3.54747">
        <ele>453.7</ele>
        <time>2025-10-30T21:27:20Z</time>
      </trkpt>
      <trkpt lat="45.98638" lon="3.54742">
        <ele>452.6</ele>
        <time>2025-10-30T21:27:20Z</time>
      </trkpt>
      <trkpt lat="45.98643" lon="3.54738">
        <ele>452.5</ele>
        <time>2025-10-30T21:27:20Z</time>
      </trkpt>
      <trkpt lat="45.98647" lon="3.54737">
        <ele>453</ele>
        <time>2025-10-30T21:27:20Z</time>
      </trkpt>
      <trkpt lat="45.98651" lon="3.54736">
        <ele>453.7</ele>
        <time>2025-10-30T21:27:20Z</time>
      </trkpt>
      <trkpt lat="45.98655" lon="3.54737">
        <ele>454.5</ele>
        <time>2025-10-30T21:27:20Z</time>
      </trkpt>
      <trkpt lat="45.98659" lon="3.54739">
        <ele>456.3</ele>
        <time>2025-10-30T21:27:20Z</time>
      </trkpt>
      <trkpt lat="45.98666" lon="3.54745">
        <ele>457.9</ele>
        <time>2025-10-30T21:27:20Z</time>
      </trkpt>
      <trkpt lat="45.98673" lon="3.54752">
        <ele>461</ele>
        <time>2025-10-30T21:27:20Z</time>
      </trkpt>
      <trkpt lat="45.98679" lon="3.54757">
        <ele>462.1</ele>
        <time>2025-10-30T21:27:20Z</time>
      </trkpt>
      <trkpt lat="45.98683" lon="3.54759">
        <ele>462.4</ele>
        <time>2025-10-30T21:27:20Z</time>
      </trkpt>
      <trkpt lat="45.98689" lon="3.54759">
        <ele>462.6</ele>
        <time>2025-10-30T21:27:20Z</time>
      </trkpt>
      <trkpt lat="45.98702" lon="3.54756">
        <ele>461</ele>
        <time>2025-10-30T21:27:20Z</time>
      </trkpt>
      <trkpt lat="45.98715" lon="3.54746">
        <ele>456.7</ele>
        <time>2025-10-30T21:27:20Z</time>
      </trkpt>
      <trkpt lat="45.98728" lon="3.54732">
        <ele>457.4</ele>
        <time>2025-10-30T21:27:20Z</time>
      </trkpt>
      <trkpt lat="45.98731" lon="3.54724">
        <ele>455.4</ele>
        <time>2025-10-30T21:27:20Z</time>
      </trkpt>
      <trkpt lat="45.98736" lon="3.54707">
        <ele>456.3</ele>
        <time>2025-10-30T21:27:20Z</time>
      </trkpt>
      <trkpt lat="45.98744" lon="3.54696">
        <ele>458.7</ele>
        <time>2025-10-30T21:27:20Z</time>
      </trkpt>
      <trkpt lat="45.98749" lon="3.5469">
        <ele>458</ele>
        <time>2025-10-30T21:27:20Z</time>
      </trkpt>
      <trkpt lat="45.98766" lon="3.54685">
        <ele>459.8</ele>
        <time>2025-10-30T21:27:20Z</time>
      </trkpt>
      <trkpt lat="45.9879" lon="3.54678">
        <ele>459.2</ele>
        <time>2025-10-30T21:27:20Z</time>
      </trkpt>
      <trkpt lat="45.98799" lon="3.54674">
        <ele>459.5</ele>
        <time>2025-10-30T21:27:20Z</time>
      </trkpt>
      <trkpt lat="45.98803" lon="3.54669">
        <ele>457.8</ele>
        <time>2025-10-30T21:27:20Z</time>
      </trkpt>
      <trkpt lat="45.98808" lon="3.5466">
        <ele>455.5</ele>
        <time>2025-10-30T21:27:20Z</time>
      </trkpt>
      <trkpt lat="45.98809" lon="3.5465">
        <ele>453.1</ele>
        <time>2025-10-30T21:27:20Z</time>
      </trkpt>
      <trkpt lat="45.98808" lon="3.54638">
        <ele>449.6</ele>
        <time>2025-10-30T21:27:20Z</time>
      </trkpt>
      <trkpt lat="45.98804" lon="3.54628">
        <ele>448</ele>
        <time>2025-10-30T21:27:20Z</time>
      </trkpt>
      <trkpt lat="45.98798" lon="3.5462">
        <ele>445.5</ele>
        <time>2025-10-30T21:27:20Z</time>
      </trkpt>
      <trkpt lat="45.98794" lon="3.54611">
        <ele>443.7</ele>
        <time>2025-10-30T21:27:20Z</time>
      </trkpt>
      <trkpt lat="45.9879" lon="3.54598">
        <ele>441.6</ele>
        <time>2025-10-30T21:27:20Z</time>
      </trkpt>
      <trkpt lat="45.98782" lon="3.54584">
        <ele>437.7</ele>
        <time>2025-10-30T21:27:20Z</time>
      </trkpt>
      <trkpt lat="45.98778" lon="3.5458">
        <ele>436.1</ele>
        <time>2025-10-30T21:27:20Z</time>
      </trkpt>
      <trkpt lat="45.98773" lon="3.54577">
        <ele>434.2</ele>
        <time>2025-10-30T21:27:20Z</time>
      </trkpt>
      <trkpt lat="45.98765" lon="3.54574">
        <ele>431.3</ele>
        <time>2025-10-30T21:27:20Z</time>
      </trkpt>
      <trkpt lat="45.98756" lon="3.54561">
        <ele>427.3</ele>
        <time>2025-10-30T21:27:20Z</time>
      </trkpt>
      <trkpt lat="45.98755" lon="3.54555">
        <ele>426.8</ele>
        <time>2025-10-30T21:27:20Z</time>
      </trkpt>
      <trkpt lat="45.98754" lon="3.5455">
        <ele>426</ele>
        <time>2025-10-30T21:27:20Z</time>
      </trkpt>
      <trkpt lat="45.98756" lon="3.54545">
        <ele>423.8</ele>
        <time>2025-10-30T21:27:20Z</time>
      </trkpt>
      <trkpt lat="45.98759" lon="3.5454">
        <ele>422.6</ele>
        <time>2025-10-30T21:27:20Z</time>
      </trkpt>
      <trkpt lat="45.98767" lon="3.54532">
        <ele>418.7</ele>
        <time>2025-10-30T21:27:20Z</time>
      </trkpt>
      <trkpt lat="45.98774" lon="3.54527">
        <ele>415.7</ele>
        <time>2025-10-30T21:27:20Z</time>
      </trkpt>
      <trkpt lat="45.9878" lon="3.54523">
        <ele>414.4</ele>
        <time>2025-10-30T21:27:20Z</time>
      </trkpt>
      <trkpt lat="45.98782" lon="3.54519">
        <ele>413.8</ele>
        <time>2025-10-30T21:27:20Z</time>
      </trkpt>
      <trkpt lat="45.98783" lon="3.54515">
        <ele>414.6</ele>
        <time>2025-10-30T21:27:20Z</time>
      </trkpt>
      <trkpt lat="45.98782" lon="3.5451">
        <ele>414.4</ele>
        <time>2025-10-30T21:27:20Z</time>
      </trkpt>
      <trkpt lat="45.9878" lon="3.54505">
        <ele>414.8</ele>
        <time>2025-10-30T21:27:20Z</time>
      </trkpt>
      <trkpt lat="45.98775" lon="3.54498">
        <ele>414.8</ele>
        <time>2025-10-30T21:27:20Z</time>
      </trkpt>
      <trkpt lat="45.98765" lon="3.54488">
        <ele>417.4</ele>
        <time>2025-10-30T21:27:20Z</time>
      </trkpt>
      <trkpt lat="45.98747" lon="3.54471">
        <ele>420</ele>
        <time>2025-10-30T21:27:20Z</time>
      </trkpt>
      <trkpt lat="45.98744" lon="3.54464">
        <ele>420.4</ele>
        <time>2025-10-30T21:27:20Z</time>
      </trkpt>
      <trkpt lat="45.98743" lon="3.54457">
        <ele>420.3</ele>
        <time>2025-10-30T21:27:20Z</time>
      </trkpt>
      <trkpt lat="45.98743" lon="3.54448">
        <ele>420.2</ele>
        <time>2025-10-30T21:27:20Z</time>
      </trkpt>
      <trkpt lat="45.98743" lon="3.54439">
        <ele>420.3</ele>
        <time>2025-10-30T21:27:20Z</time>
      </trkpt>
      <trkpt lat="45.98746" lon="3.5443">
        <ele>421.3</ele>
        <time>2025-10-30T21:27:20Z</time>
      </trkpt>
      <trkpt lat="45.98749" lon="3.54424">
        <ele>422.6</ele>
        <time>2025-10-30T21:27:20Z</time>
      </trkpt>
      <trkpt lat="45.98756" lon="3.54408">
        <ele>423.2</ele>
        <time>2025-10-30T21:27:20Z</time>
      </trkpt>
      <trkpt lat="45.98767" lon="3.54379">
        <ele>427.6</ele>
        <time>2025-10-30T21:27:20Z</time>
      </trkpt>
      <trkpt lat="45.9877" lon="3.54366">
        <ele>428</ele>
        <time>2025-10-30T21:27:20Z</time>
      </trkpt>
      <trkpt lat="45.98772" lon="3.54352">
        <ele>427.3</ele>
        <time>2025-10-30T21:27:20Z</time>
      </trkpt>
      <trkpt lat="45.98772" lon="3.54336">
        <ele>427.4</ele>
        <time>2025-10-30T21:27:20Z</time>
      </trkpt>
      <trkpt lat="45.98771" lon="3.54322">
        <ele>427.4</ele>
        <time>2025-10-30T21:27:20Z</time>
      </trkpt>
      <trkpt lat="45.98768" lon="3.54307">
        <ele>426.1</ele>
        <time>2025-10-30T21:27:20Z</time>
      </trkpt>
      <trkpt lat="45.98766" lon="3.54297">
        <ele>426.3</ele>
        <time>2025-10-30T21:27:20Z</time>
      </trkpt>
      <trkpt lat="45.98765" lon="3.5429">
        <ele>424.3</ele>
        <time>2025-10-30T21:27:20Z</time>
      </trkpt>
      <trkpt lat="45.98767" lon="3.54284">
        <ele>426.4</ele>
        <time>2025-10-30T21:27:20Z</time>
      </trkpt>
      <trkpt lat="45.98771" lon="3.5427">
        <ele>426.6</ele>
        <time>2025-10-30T21:27:20Z</time>
      </trkpt>
      <trkpt lat="45.98775" lon="3.54257">
        <ele>426.5</ele>
        <time>2025-10-30T21:27:20Z</time>
      </trkpt>
      <trkpt lat="45.98777" lon="3.54253">
        <ele>426.1</ele>
        <time>2025-10-30T21:27:20Z</time>
      </trkpt>
      <trkpt lat="45.9878" lon="3.54249">
        <ele>426.4</ele>
        <time>2025-10-30T21:27:20Z</time>
      </trkpt>
      <trkpt lat="45.98783" lon="3.54247">
        <ele>427.4</ele>
        <time>2025-10-30T21:27:20Z</time>
      </trkpt>
      <trkpt lat="45.98792" lon="3.54241">
        <ele>426.5</ele>
        <time>2025-10-30T21:27:20Z</time>
      </trkpt>
      <trkpt lat="45.98799" lon="3.54236">
        <ele>423.4</ele>
        <time>2025-10-30T21:27:20Z</time>
      </trkpt>
      <trkpt lat="45.98802" lon="3.54233">
        <ele>424.6</ele>
        <time>2025-10-30T21:27:20Z</time>
      </trkpt>
      <trkpt lat="45.98807" lon="3.54227">
        <ele>424.2</ele>
        <time>2025-10-30T21:27:20Z</time>
      </trkpt>
      <trkpt lat="45.98811" lon="3.54219">
        <ele>424.6</ele>
        <time>2025-10-30T21:27:20Z</time>
      </trkpt>
      <trkpt lat="45.98816" lon="3.54212">
        <ele>424.1</ele>
        <time>2025-10-30T21:27:20Z</time>
      </trkpt>
      <trkpt lat="45.98819" lon="3.54208">
        <ele>424</ele>
        <time>2025-10-30T21:27:20Z</time>
      </trkpt>
      <trkpt lat="45.98821" lon="3.54206">
        <ele>422.7</ele>
        <time>2025-10-30T21:27:20Z</time>
      </trkpt>
      <trkpt lat="45.98827" lon="3.54205">
        <ele>423.8</ele>
        <time>2025-10-30T21:27:20Z</time>
      </trkpt>
      <trkpt lat="45.98835" lon="3.54202">
        <ele>424.2</ele>
        <time>2025-10-30T21:27:20Z</time>
      </trkpt>
      <trkpt lat="45.98841" lon="3.54199">
        <ele>424</ele>
        <time>2025-10-30T21:27:20Z</time>
      </trkpt>
      <trkpt lat="45.98844" lon="3.54197">
        <ele>424.2</ele>
        <time>2025-10-30T21:27:20Z</time>
      </trkpt>
      <trkpt lat="45.98849" lon="3.54192">
        <ele>424.5</ele>
        <time>2025-10-30T21:27:20Z</time>
      </trkpt>
      <trkpt lat="45.98855" lon="3.54184">
        <ele>424</ele>
        <time>2025-10-30T21:27:20Z</time>
      </trkpt>
      <trkpt lat="45.98863" lon="3.54173">
        <ele>425</ele>
        <time>2025-10-30T21:27:20Z</time>
      </trkpt>
      <trkpt lat="45.98869" lon="3.54165">
        <ele>425.7</ele>
        <time>2025-10-30T21:27:20Z</time>
      </trkpt>
      <trkpt lat="45.98875" lon="3.5416">
        <ele>426.2</ele>
        <time>2025-10-30T21:27:20Z</time>
      </trkpt>
      <trkpt lat="45.98883" lon="3.54154">
        <ele>426.6</ele>
        <time>2025-10-30T21:27:20Z</time>
      </trkpt>
      <trkpt lat="45.98889" lon="3.5415">
        <ele>426.4</ele>
        <time>2025-10-30T21:27:20Z</time>
      </trkpt>
      <trkpt lat="45.98896" lon="3.54147">
        <ele>428</ele>
        <time>2025-10-30T21:27:20Z</time>
      </trkpt>
      <trkpt lat="45.98909" lon="3.54142">
        <ele>428.5</ele>
        <time>2025-10-30T21:27:20Z</time>
      </trkpt>
      <trkpt lat="45.98921" lon="3.54153">
        <ele>429</ele>
        <time>2025-10-30T21:27:20Z</time>
      </trkpt>
      <trkpt lat="45.98931" lon="3.54171">
        <ele>430.1</ele>
        <time>2025-10-30T21:27:20Z</time>
      </trkpt>
      <trkpt lat="45.98942" lon="3.54208">
        <ele>433.1</ele>
        <time>2025-10-30T21:27:20Z</time>
      </trkpt>
      <trkpt lat="45.98947" lon="3.54222">
        <ele>434.3</ele>
        <time>2025-10-30T21:27:20Z</time>
      </trkpt>
      <trkpt lat="45.98961" lon="3.54272">
        <ele>439.4</ele>
        <time>2025-10-30T21:27:20Z</time>
      </trkpt>
      <trkpt lat="45.98973" lon="3.54316">
        <ele>444.7</ele>
        <time>2025-10-30T21:27:20Z</time>
      </trkpt>
      <trkpt lat="45.98979" lon="3.54328">
        <ele>446.9</ele>
        <time>2025-10-30T21:27:20Z</time>
      </trkpt>
      <trkpt lat="45.98989" lon="3.54338">
        <ele>446.8</ele>
        <time>2025-10-30T21:27:20Z</time>
      </trkpt>
      <trkpt lat="45.99003" lon="3.54344">
        <ele>446.7</ele>
        <time>2025-10-30T21:27:20Z</time>
      </trkpt>
      <trkpt lat="45.99017" lon="3.54355">
        <ele>444.3</ele>
        <time>2025-10-30T21:27:20Z</time>
      </trkpt>
      <trkpt lat="45.99023" lon="3.54372">
        <ele>445.7</ele>
        <time>2025-10-30T21:27:20Z</time>
      </trkpt>
      <trkpt lat="45.99034" lon="3.54408">
        <ele>444.6</ele>
        <time>2025-10-30T21:27:20Z</time>
      </trkpt>
      <trkpt lat="45.99045" lon="3.54439">
        <ele>450</ele>
        <time>2025-10-30T21:27:20Z</time>
      </trkpt>
      <trkpt lat="45.99052" lon="3.54449">
        <ele>454.6</ele>
        <time>2025-10-30T21:27:20Z</time>
      </trkpt>
      <trkpt lat="45.9906" lon="3.54451">
        <ele>455.9</ele>
        <time>2025-10-30T21:27:20Z</time>
      </trkpt>
      <trkpt lat="45.99071" lon="3.54448">
        <ele>452.6</ele>
        <time>2025-10-30T21:27:20Z</time>
      </trkpt>
      <trkpt lat="45.9908" lon="3.54451">
        <ele>451.5</ele>
        <time>2025-10-30T21:27:20Z</time>
      </trkpt>
      <trkpt lat="45.99094" lon="3.54464">
        <ele>450.7</ele>
        <time>2025-10-30T21:27:20Z</time>
      </trkpt>
      <trkpt lat="45.99105" lon="3.54474">
        <ele>447.3</ele>
        <time>2025-10-30T21:27:20Z</time>
      </trkpt>
      <trkpt lat="45.99118" lon="3.54499">
        <ele>448.6</ele>
        <time>2025-10-30T21:27:20Z</time>
      </trkpt>
      <trkpt lat="45.99125" lon="3.54517">
        <ele>450.5</ele>
        <time>2025-10-30T21:27:20Z</time>
      </trkpt>
      <trkpt lat="45.99126" lon="3.54526">
        <ele>450.4</ele>
        <time>2025-10-30T21:27:20Z</time>
      </trkpt>
      <trkpt lat="45.99122" lon="3.54557">
        <ele>448.9</ele>
        <time>2025-10-30T21:27:20Z</time>
      </trkpt>
      <trkpt lat="45.99136" lon="3.54558">
        <ele>445.7</ele>
        <time>2025-10-30T21:27:20Z</time>
      </trkpt>
      <trkpt lat="45.99152" lon="3.54551">
        <ele>441.4</ele>
        <time>2025-10-30T21:27:20Z</time>
      </trkpt>
      <trkpt lat="45.99158" lon="3.54549">
        <ele>440.8</ele>
        <time>2025-10-30T21:27:20Z</time>
      </trkpt>
      <trkpt lat="45.99164" lon="3.54543">
        <ele>439.6</ele>
        <time>2025-10-30T21:27:20Z</time>
      </trkpt>
      <trkpt lat="45.99167" lon="3.54538">
        <ele>438.1</ele>
        <time>2025-10-30T21:27:20Z</time>
      </trkpt>
      <trkpt lat="45.99169" lon="3.54534">
        <ele>436.8</ele>
        <time>2025-10-30T21:27:20Z</time>
      </trkpt>
      <trkpt lat="45.9917" lon="3.5453">
        <ele>436.5</ele>
        <time>2025-10-30T21:27:20Z</time>
      </trkpt>
      <trkpt lat="45.99171" lon="3.54527">
        <ele>436</ele>
        <time>2025-10-30T21:27:20Z</time>
      </trkpt>
      <trkpt lat="45.99172" lon="3.54522">
        <ele>435.3</ele>
        <time>2025-10-30T21:27:20Z</time>
      </trkpt>
      <trkpt lat="45.99171" lon="3.54515">
        <ele>434.1</ele>
        <time>2025-10-30T21:27:20Z</time>
      </trkpt>
      <trkpt lat="45.99169" lon="3.54507">
        <ele>433.8</ele>
        <time>2025-10-30T21:27:20Z</time>
      </trkpt>
      <trkpt lat="45.99165" lon="3.54501">
        <ele>433.1</ele>
        <time>2025-10-30T21:27:20Z</time>
      </trkpt>
      <trkpt lat="45.9916" lon="3.54495">
        <ele>432.7</ele>
        <time>2025-10-30T21:27:20Z</time>
      </trkpt>
      <trkpt lat="45.99152" lon="3.54481">
        <ele>430.5</ele>
        <time>2025-10-30T21:27:20Z</time>
      </trkpt>
      <trkpt lat="45.99145" lon="3.5447">
        <ele>428.4</ele>
        <time>2025-10-30T21:27:20Z</time>
      </trkpt>
      <trkpt lat="45.99139" lon="3.54455">
        <ele>426.1</ele>
        <time>2025-10-30T21:27:20Z</time>
      </trkpt>
      <trkpt lat="45.99135" lon="3.54444">
        <ele>423.5</ele>
        <time>2025-10-30T21:27:20Z</time>
      </trkpt>
      <trkpt lat="45.99126" lon="3.54427">
        <ele>421.2</ele>
        <time>2025-10-30T21:27:20Z</time>
      </trkpt>
      <trkpt lat="45.99115" lon="3.54406">
        <ele>420.4</ele>
        <time>2025-10-30T21:27:20Z</time>
      </trkpt>
      <trkpt lat="45.9911" lon="3.54392">
        <ele>417.9</ele>
        <time>2025-10-30T21:27:20Z</time>
      </trkpt>
      <trkpt lat="45.99099" lon="3.54373">
        <ele>414.4</ele>
        <time>2025-10-30T21:27:20Z</time>
      </trkpt>
      <trkpt lat="45.99096" lon="3.54369">
        <ele>413.4</ele>
        <time>2025-10-30T21:27:20Z</time>
      </trkpt>
      <trkpt lat="45.99093" lon="3.54366">
        <ele>413.5</ele>
        <time>2025-10-30T21:27:20Z</time>
      </trkpt>
      <trkpt lat="45.99087" lon="3.54363">
        <ele>411.7</ele>
        <time>2025-10-30T21:27:20Z</time>
      </trkpt>
      <trkpt lat="45.99083" lon="3.54358">
        <ele>410.3</ele>
        <time>2025-10-30T21:27:20Z</time>
      </trkpt>
      <trkpt lat="45.99079" lon="3.54343">
        <ele>405</ele>
        <time>2025-10-30T21:27:20Z</time>
      </trkpt>
      <trkpt lat="45.99075" lon="3.54326">
        <ele>403.6</ele>
        <time>2025-10-30T21:27:20Z</time>
      </trkpt>
      <trkpt lat="45.99067" lon="3.54309">
        <ele>402.7</ele>
        <time>2025-10-30T21:27:20Z</time>
      </trkpt>
      <trkpt lat="45.99058" lon="3.54296">
        <ele>401.1</ele>
        <time>2025-10-30T21:27:20Z</time>
      </trkpt>
      <trkpt lat="45.99045" lon="3.54278">
        <ele>399.8</ele>
        <time>2025-10-30T21:27:20Z</time>
      </trkpt>
      <trkpt lat="45.99042" lon="3.54272">
        <ele>399.4</ele>
        <time>2025-10-30T21:27:20Z</time>
      </trkpt>
      <trkpt lat="45.99039" lon="3.54265">
        <ele>398.2</ele>
        <time>2025-10-30T21:27:20Z</time>
      </trkpt>
      <trkpt lat="45.9903" lon="3.54253">
        <ele>396.7</ele>
        <time>2025-10-30T21:27:20Z</time>
      </trkpt>
      <trkpt lat="45.99026" lon="3.54246">
        <ele>397.3</ele>
        <time>2025-10-30T21:27:20Z</time>
      </trkpt>
      <trkpt lat="45.99024" lon="3.54241">
        <ele>396</ele>
        <time>2025-10-30T21:27:20Z</time>
      </trkpt>
      <trkpt lat="45.99017" lon="3.54219">
        <ele>392.9</ele>
        <time>2025-10-30T21:27:20Z</time>
      </trkpt>
      <trkpt lat="45.99015" lon="3.54212">
        <ele>390.4</ele>
        <time>2025-10-30T21:27:20Z</time>
      </trkpt>
      <trkpt lat="45.99013" lon="3.54202">
        <ele>389.2</ele>
        <time>2025-10-30T21:27:20Z</time>
      </trkpt>
      <trkpt lat="45.99011" lon="3.54191">
        <ele>386.3</ele>
        <time>2025-10-30T21:27:20Z</time>
      </trkpt>
      <trkpt lat="45.99008" lon="3.54174">
        <ele>383.8</ele>
        <time>2025-10-30T21:27:20Z</time>
      </trkpt>
      <trkpt lat="45.99002" lon="3.54152">
        <ele>380.1</ele>
        <time>2025-10-30T21:27:20Z</time>
      </trkpt>
      <trkpt lat="45.98995" lon="3.54125">
        <ele>377</ele>
        <time>2025-10-30T21:27:20Z</time>
      </trkpt>
      <trkpt lat="45.98993" lon="3.54118">
        <ele>375.1</ele>
        <time>2025-10-30T21:27:20Z</time>
      </trkpt>
      <trkpt lat="45.98992" lon="3.54101">
        <ele>373.9</ele>
        <time>2025-10-30T21:27:20Z</time>
      </trkpt>
      <trkpt lat="45.9899" lon="3.54084">
        <ele>370.9</ele>
        <time>2025-10-30T21:27:20Z</time>
      </trkpt>
      <trkpt lat="45.98989" lon="3.54043">
        <ele>364.8</ele>
        <time>2025-10-30T21:27:20Z</time>
      </trkpt>
      <trkpt lat="45.98988" lon="3.5402">
        <ele>364</ele>
        <time>2025-10-30T21:27:20Z</time>
      </trkpt>
      <trkpt lat="45.98986" lon="3.54002">
        <ele>361.7</ele>
        <time>2025-10-30T21:27:20Z</time>
      </trkpt>
      <trkpt lat="45.98983" lon="3.53994">
        <ele>361.5</ele>
        <time>2025-10-30T21:27:20Z</time>
      </trkpt>
      <trkpt lat="45.98978" lon="3.53985">
        <ele>360.7</ele>
        <time>2025-10-30T21:27:20Z</time>
      </trkpt>
      <trkpt lat="45.98957" lon="3.53967">
        <ele>359.9</ele>
        <time>2025-10-30T21:27:20Z</time>
      </trkpt>
      <trkpt lat="45.98962" lon="3.53962">
        <ele>359.8</ele>
        <time>2025-10-30T21:27:20Z</time>
      </trkpt>
      <trkpt lat="45.98966" lon="3.53957">
        <ele>359.2</ele>
        <time>2025-10-30T21:27:20Z</time>
      </trkpt>
      <trkpt lat="45.98968" lon="3.53954">
        <ele>359.6</ele>
        <time>2025-10-30T21:27:20Z</time>
      </trkpt>
      <trkpt lat="45.98973" lon="3.53947">
        <ele>359.3</ele>
        <time>2025-10-30T21:27:20Z</time>
      </trkpt>
      <trkpt lat="45.98975" lon="3.53944">
        <ele>358.7</ele>
        <time>2025-10-30T21:27:20Z</time>
      </trkpt>
      <trkpt lat="45.98979" lon="3.53937">
        <ele>359.1</ele>
        <time>2025-10-30T21:27:20Z</time>
      </trkpt>
      <trkpt lat="45.98981" lon="3.53932">
        <ele>357.9</ele>
        <time>2025-10-30T21:27:20Z</time>
      </trkpt>
      <trkpt lat="45.98984" lon="3.53924">
        <ele>356.2</ele>
        <time>2025-10-30T21:27:20Z</time>
      </trkpt>
      <trkpt lat="45.98987" lon="3.53917">
        <ele>358.5</ele>
        <time>2025-10-30T21:27:20Z</time>
      </trkpt>
      <trkpt lat="45.9899" lon="3.53907">
        <ele>358.6</ele>
        <time>2025-10-30T21:27:20Z</time>
      </trkpt>
      <trkpt lat="45.98995" lon="3.53884">
        <ele>358</ele>
        <time>2025-10-30T21:27:20Z</time>
      </trkpt>
      <trkpt lat="45.98997" lon="3.5387">
        <ele>357.8</ele>
        <time>2025-10-30T21:27:20Z</time>
      </trkpt>
      <trkpt lat="45.98999" lon="3.53854">
        <ele>358</ele>
        <time>2025-10-30T21:27:20Z</time>
      </trkpt>
      <trkpt lat="45.98999" lon="3.53843">
        <ele>357.8</ele>
        <time>2025-10-30T21:27:20Z</time>
      </trkpt>
      <trkpt lat="45.98998" lon="3.53816">
        <ele>357.6</ele>
        <time>2025-10-30T21:27:20Z</time>
      </trkpt>
      <trkpt lat="45.99007" lon="3.5382">
        <ele>359.1</ele>
        <time>2025-10-30T21:27:20Z</time>
      </trkpt>
      <trkpt lat="45.99014" lon="3.53832">
        <ele>360.1</ele>
        <time>2025-10-30T21:27:20Z</time>
      </trkpt>
      <trkpt lat="45.99029" lon="3.53863">
        <ele>363.7</ele>
        <time>2025-10-30T21:27:20Z</time>
      </trkpt>
      <trkpt lat="45.99034" lon="3.53893">
        <ele>370.4</ele>
        <time>2025-10-30T21:27:20Z</time>
      </trkpt>
      <trkpt lat="45.99034" lon="3.53906">
        <ele>373.7</ele>
        <time>2025-10-30T21:27:20Z</time>
      </trkpt>
      <trkpt lat="45.99095" lon="3.53889">
        <ele>380.7</ele>
        <time>2025-10-30T21:27:20Z</time>
      </trkpt>
      <trkpt lat="45.9918" lon="3.53845">
        <ele>426.4</ele>
        <time>2025-10-30T21:27:20Z</time>
      </trkpt>
      <trkpt lat="45.9926" lon="3.53865">
        <ele>458.2</ele>
        <time>2025-10-30T21:27:20Z</time>
      </trkpt>
      <trkpt lat="45.99273" lon="3.53988">
        <ele>457.8</ele>
        <time>2025-10-30T21:27:20Z</time>
      </trkpt>
      <trkpt lat="45.99287" lon="3.53993">
        <ele>463.4</ele>
        <time>2025-10-30T21:27:20Z</time>
      </trkpt>
      <trkpt lat="45.99362" lon="3.53821">
        <ele>492.3</ele>
        <time>2025-10-30T21:27:20Z</time>
      </trkpt>
      <trkpt lat="45.99247" lon="3.53666">
        <ele>464.8</ele>
        <time>2025-10-30T21:27:20Z</time>
      </trkpt>
      <trkpt lat="45.99174" lon="3.53581">
        <ele>449.8</ele>
        <time>2025-10-30T21:27:20Z</time>
      </trkpt>
      <trkpt lat="45.99069" lon="3.53565">
        <ele>431.1</ele>
        <time>2025-10-30T21:27:20Z</time>
      </trkpt>
      <trkpt lat="45.99017" lon="3.53535">
        <ele>408.7</ele>
        <time>2025-10-30T21:27:20Z</time>
      </trkpt>
      <trkpt lat="45.99003" lon="3.53402">
        <ele>359.8</ele>
        <time>2025-10-30T21:27:20Z</time>
      </trkpt>
      <trkpt lat="45.98995" lon="3.53382">
        <ele>363.4</ele>
        <time>2025-10-30T21:27:20Z</time>
      </trkpt>
      <trkpt lat="45.98957" lon="3.53413">
        <ele>360.2</ele>
        <time>2025-10-30T21:27:20Z</time>
      </trkpt>
      <trkpt lat="45.98924" lon="3.53439">
        <ele>358.3</ele>
        <time>2025-10-30T21:27:20Z</time>
      </trkpt>
      <trkpt lat="45.98903" lon="3.53458">
        <ele>354.6</ele>
        <time>2025-10-30T21:27:20Z</time>
      </trkpt>
      <trkpt lat="45.98889" lon="3.53469">
        <ele>354.5</ele>
        <time>2025-10-30T21:27:20Z</time>
      </trkpt>
      <trkpt lat="45.98876" lon="3.53473">
        <ele>352.2</ele>
        <time>2025-10-30T21:27:20Z</time>
      </trkpt>
      <trkpt lat="45.98863" lon="3.53472">
        <ele>348.5</ele>
        <time>2025-10-30T21:27:20Z</time>
      </trkpt>
      <trkpt lat="45.9891" lon="3.53385">
        <ele>375.5</ele>
        <time>2025-10-30T21:27:20Z</time>
      </trkpt>
      <trkpt lat="45.9898" lon="3.53269">
        <ele>410.6</ele>
        <time>2025-10-30T21:27:20Z</time>
      </trkpt>
      <trkpt lat="45.9901" lon="3.53194">
        <ele>432.1</ele>
        <time>2025-10-30T21:27:20Z</time>
      </trkpt>
      <trkpt lat="45.99025" lon="3.53117">
        <ele>443.6</ele>
        <time>2025-10-30T21:27:20Z</time>
      </trkpt>
      <trkpt lat="45.99027" lon="3.53116">
        <ele>444.3</ele>
        <time>2025-10-30T21:27:20Z</time>
      </trkpt>
      <trkpt lat="45.99026" lon="3.53112">
        <ele>444.3</ele>
        <time>2025-10-30T21:27:20Z</time>
      </trkpt>
      <trkpt lat="45.99025" lon="3.53091">
        <ele>447.6</ele>
        <time>2025-10-30T21:27:20Z</time>
      </trkpt>
      <trkpt lat="45.99024" lon="3.53072">
        <ele>450.8</ele>
        <time>2025-10-30T21:27:20Z</time>
      </trkpt>
      <trkpt lat="45.99025" lon="3.53047">
        <ele>455</ele>
        <time>2025-10-30T21:27:20Z</time>
      </trkpt>
      <trkpt lat="45.99027" lon="3.5302">
        <ele>460.7</ele>
        <time>2025-10-30T21:27:20Z</time>
      </trkpt>
      <trkpt lat="45.99027" lon="3.53005">
        <ele>464.2</ele>
        <time>2025-10-30T21:27:20Z</time>
      </trkpt>
      <trkpt lat="45.99021" lon="3.52993">
        <ele>466.6</ele>
        <time>2025-10-30T21:27:20Z</time>
      </trkpt>
      <trkpt lat="45.99012" lon="3.52983">
        <ele>467.9</ele>
        <time>2025-10-30T21:27:20Z</time>
      </trkpt>
      <trkpt lat="45.99008" lon="3.52978">
        <ele>469.5</ele>
        <time>2025-10-30T21:27:20Z</time>
      </trkpt>
      <trkpt lat="45.99004" lon="3.52973">
        <ele>470.1</ele>
        <time>2025-10-30T21:27:20Z</time>
      </trkpt>
      <trkpt lat="45.98999" lon="3.52967">
        <ele>470.8</ele>
        <time>2025-10-30T21:27:20Z</time>
      </trkpt>
      <trkpt lat="45.98995" lon="3.52962">
        <ele>471.3</ele>
        <time>2025-10-30T21:27:20Z</time>
      </trkpt>
      <trkpt lat="45.98993" lon="3.52959">
        <ele>472</ele>
        <time>2025-10-30T21:27:20Z</time>
      </trkpt>
      <trkpt lat="45.98991" lon="3.52954">
        <ele>472</ele>
        <time>2025-10-30T21:27:20Z</time>
      </trkpt>
      <trkpt lat="45.9899" lon="3.52949">
        <ele>472.4</ele>
        <time>2025-10-30T21:27:20Z</time>
      </trkpt>
      <trkpt lat="45.9899" lon="3.52938">
        <ele>472.8</ele>
        <time>2025-10-30T21:27:20Z</time>
      </trkpt>
      <trkpt lat="45.98991" lon="3.52932">
        <ele>472.6</ele>
        <time>2025-10-30T21:27:20Z</time>
      </trkpt>
      <trkpt lat="45.98998" lon="3.52901">
        <ele>474.2</ele>
        <time>2025-10-30T21:27:20Z</time>
      </trkpt>
      <trkpt lat="45.99" lon="3.52884">
        <ele>473.7</ele>
        <time>2025-10-30T21:27:20Z</time>
      </trkpt>
      <trkpt lat="45.99002" lon="3.5287">
        <ele>475.4</ele>
        <time>2025-10-30T21:27:20Z</time>
      </trkpt>
      <trkpt lat="45.99004" lon="3.52841">
        <ele>476.2</ele>
        <time>2025-10-30T21:27:20Z</time>
      </trkpt>
      <trkpt lat="45.99005" lon="3.52836">
        <ele>476.8</ele>
        <time>2025-10-30T21:27:20Z</time>
      </trkpt>
      <trkpt lat="45.99004" lon="3.52832">
        <ele>477.3</ele>
        <time>2025-10-30T21:27:20Z</time>
      </trkpt>
      <trkpt lat="45.99003" lon="3.52824">
        <ele>478.7</ele>
        <time>2025-10-30T21:27:20Z</time>
      </trkpt>
      <trkpt lat="45.98999" lon="3.52816">
        <ele>478.3</ele>
        <time>2025-10-30T21:27:20Z</time>
      </trkpt>
      <trkpt lat="45.98993" lon="3.52794">
        <ele>483.5</ele>
        <time>2025-10-30T21:27:20Z</time>
      </trkpt>
      <trkpt lat="45.9899" lon="3.52784">
        <ele>484.3</ele>
        <time>2025-10-30T21:27:20Z</time>
      </trkpt>
      <trkpt lat="45.98989" lon="3.52773">
        <ele>485.7</ele>
        <time>2025-10-30T21:27:20Z</time>
      </trkpt>
      <trkpt lat="45.98988" lon="3.52765">
        <ele>484.8</ele>
        <time>2025-10-30T21:27:20Z</time>
      </trkpt>
      <trkpt lat="45.9899" lon="3.5275">
        <ele>486.3</ele>
        <time>2025-10-30T21:27:20Z</time>
      </trkpt>
      <trkpt lat="45.98996" lon="3.5272">
        <ele>487.5</ele>
        <time>2025-10-30T21:27:20Z</time>
      </trkpt>
      <trkpt lat="45.98997" lon="3.52708">
        <ele>487.8</ele>
        <time>2025-10-30T21:27:20Z</time>
      </trkpt>
      <trkpt lat="45.98996" lon="3.527">
        <ele>487.9</ele>
        <time>2025-10-30T21:27:20Z</time>
      </trkpt>
      <trkpt lat="45.98993" lon="3.52694">
        <ele>488.4</ele>
        <time>2025-10-30T21:27:20Z</time>
      </trkpt>
      <trkpt lat="45.98985" lon="3.52689">
        <ele>488.2</ele>
        <time>2025-10-30T21:27:20Z</time>
      </trkpt>
      <trkpt lat="45.98976" lon="3.52687">
        <ele>487.7</ele>
        <time>2025-10-30T21:27:20Z</time>
      </trkpt>
      <trkpt lat="45.98962" lon="3.52684">
        <ele>488.1</ele>
        <time>2025-10-30T21:27:20Z</time>
      </trkpt>
      <trkpt lat="45.9893" lon="3.52685">
        <ele>489.7</ele>
        <time>2025-10-30T21:27:20Z</time>
      </trkpt>
      <trkpt lat="45.98903" lon="3.52684">
        <ele>490.5</ele>
        <time>2025-10-30T21:27:20Z</time>
      </trkpt>
      <trkpt lat="45.98893" lon="3.52682">
        <ele>490.2</ele>
        <time>2025-10-30T21:27:20Z</time>
      </trkpt>
      <trkpt lat="45.98882" lon="3.52677">
        <ele>489.2</ele>
        <time>2025-10-30T21:27:20Z</time>
      </trkpt>
      <trkpt lat="45.98875" lon="3.5267">
        <ele>487.3</ele>
        <time>2025-10-30T21:27:20Z</time>
      </trkpt>
      <trkpt lat="45.98866" lon="3.52659">
        <ele>484.9</ele>
        <time>2025-10-30T21:27:20Z</time>
      </trkpt>
      <trkpt lat="45.98857" lon="3.52643">
        <ele>482.7</ele>
        <time>2025-10-30T21:27:20Z</time>
      </trkpt>
      <trkpt lat="45.98847" lon="3.52624">
        <ele>481.1</ele>
        <time>2025-10-30T21:27:20Z</time>
      </trkpt>
      <trkpt lat="45.98836" lon="3.52592">
        <ele>484.7</ele>
        <time>2025-10-30T21:27:20Z</time>
      </trkpt>
      <trkpt lat="45.9883" lon="3.52573">
        <ele>487.3</ele>
        <time>2025-10-30T21:27:20Z</time>
      </trkpt>
      <trkpt lat="45.98823" lon="3.52557">
        <ele>485.9</ele>
        <time>2025-10-30T21:27:20Z</time>
      </trkpt>
      <trkpt lat="45.98816" lon="3.52545">
        <ele>485.8</ele>
        <time>2025-10-30T21:27:20Z</time>
      </trkpt>
      <trkpt lat="45.98809" lon="3.52538">
        <ele>486</ele>
        <time>2025-10-30T21:27:20Z</time>
      </trkpt>
      <trkpt lat="45.988" lon="3.52532">
        <ele>487</ele>
        <time>2025-10-30T21:27:20Z</time>
      </trkpt>
      <trkpt lat="45.98788" lon="3.52526">
        <ele>486.8</ele>
        <time>2025-10-30T21:27:20Z</time>
      </trkpt>
      <trkpt lat="45.98774" lon="3.52519">
        <ele>488.5</ele>
        <time>2025-10-30T21:27:20Z</time>
      </trkpt>
      <trkpt lat="45.98763" lon="3.52513">
        <ele>488.2</ele>
        <time>2025-10-30T21:27:20Z</time>
      </trkpt>
      <trkpt lat="45.98754" lon="3.52506">
        <ele>489.2</ele>
        <time>2025-10-30T21:27:20Z</time>
      </trkpt>
      <trkpt lat="45.98737" lon="3.52483">
        <ele>491.9</ele>
        <time>2025-10-30T21:27:20Z</time>
      </trkpt>
      <trkpt lat="45.98801" lon="3.52486">
        <ele>503.2</ele>
        <time>2025-10-30T21:27:20Z</time>
      </trkpt>
      <trkpt lat="45.98837" lon="3.52496">
        <ele>505.2</ele>
        <time>2025-10-30T21:27:20Z</time>
      </trkpt>
      <trkpt lat="45.98839" lon="3.52497">
        <ele>506.1</ele>
        <time>2025-10-30T21:27:20Z</time>
      </trkpt>
      <trkpt lat="45.98882" lon="3.52509">
        <ele>514.1</ele>
        <time>2025-10-30T21:27:20Z</time>
      </trkpt>
      <trkpt lat="45.98919" lon="3.52513">
        <ele>523.9</ele>
        <time>2025-10-30T21:27:20Z</time>
      </trkpt>
      <trkpt lat="45.98955" lon="3.52512">
        <ele>534.1</ele>
        <time>2025-10-30T21:27:20Z</time>
      </trkpt>
      <trkpt lat="45.98993" lon="3.52508">
        <ele>539.4</ele>
        <time>2025-10-30T21:27:20Z</time>
      </trkpt>
      <trkpt lat="45.99009" lon="3.52502">
        <ele>543</ele>
        <time>2025-10-30T21:27:20Z</time>
      </trkpt>
      <trkpt lat="45.99026" lon="3.52503">
        <ele>543.9</ele>
        <time>2025-10-30T21:27:20Z</time>
      </trkpt>
      <trkpt lat="45.99041" lon="3.52504">
        <ele>545.6</ele>
        <time>2025-10-30T21:27:20Z</time>
      </trkpt>
      <trkpt lat="45.9905" lon="3.52506">
        <ele>546.8</ele>
        <time>2025-10-30T21:27:20Z</time>
      </trkpt>
      <trkpt lat="45.99055" lon="3.52504">
        <ele>547.4</ele>
        <time>2025-10-30T21:27:20Z</time>
      </trkpt>
      <trkpt lat="45.99065" lon="3.52494">
        <ele>549.9</ele>
        <time>2025-10-30T21:27:20Z</time>
      </trkpt>
      <trkpt lat="45.99078" lon="3.52488">
        <ele>550.8</ele>
        <time>2025-10-30T21:27:20Z</time>
      </trkpt>
      <trkpt lat="45.99125" lon="3.52463">
        <ele>549.4</ele>
        <time>2025-10-30T21:27:20Z</time>
      </trkpt>
      <trkpt lat="45.99153" lon="3.52455">
        <ele>547.7</ele>
        <time>2025-10-30T21:27:20Z</time>
      </trkpt>
      <trkpt lat="45.992" lon="3.52443">
        <ele>544.8</ele>
        <time>2025-10-30T21:27:20Z</time>
      </trkpt>
      <trkpt lat="45.99266" lon="3.5243">
        <ele>538.9</ele>
        <time>2025-10-30T21:27:20Z</time>
      </trkpt>
      <trkpt lat="45.99285" lon="3.52426">
        <ele>536.8</ele>
        <time>2025-10-30T21:27:20Z</time>
      </trkpt>
      <trkpt lat="45.99282" lon="3.52422">
        <ele>536.7</ele>
        <time>2025-10-30T21:27:20Z</time>
      </trkpt>
      <trkpt lat="45.99285" lon="3.52426">
        <ele>536.8</ele>
        <time>2025-10-30T21:27:20Z</time>
      </trkpt>
      <trkpt lat="45.99289" lon="3.52433">
        <ele>536.9</ele>
        <time>2025-10-30T21:27:20Z</time>
      </trkpt>
      <trkpt lat="45.99291" lon="3.52438">
        <ele>537.3</ele>
        <time>2025-10-30T21:27:20Z</time>
      </trkpt>
      <trkpt lat="45.99293" lon="3.52442">
        <ele>537.3</ele>
        <time>2025-10-30T21:27:20Z</time>
      </trkpt>
      <trkpt lat="45.99295" lon="3.52447">
        <ele>537.2</ele>
        <time>2025-10-30T21:27:20Z</time>
      </trkpt>
      <trkpt lat="45.99296" lon="3.52453">
        <ele>537.3</ele>
        <time>2025-10-30T21:27:20Z</time>
      </trkpt>
      <trkpt lat="45.99297" lon="3.52459">
        <ele>537.3</ele>
        <time>2025-10-30T21:27:20Z</time>
      </trkpt>
      <trkpt lat="45.99297" lon="3.52468">
        <ele>537.1</ele>
        <time>2025-10-30T21:27:20Z</time>
      </trkpt>
      <trkpt lat="45.99296" lon="3.52477">
        <ele>536.6</ele>
        <time>2025-10-30T21:27:20Z</time>
      </trkpt>
      <trkpt lat="45.99294" lon="3.52492">
        <ele>535.9</ele>
        <time>2025-10-30T21:27:20Z</time>
      </trkpt>
      <trkpt lat="45.9929" lon="3.52517">
        <ele>535</ele>
        <time>2025-10-30T21:27:20Z</time>
      </trkpt>
      <trkpt lat="45.9929" lon="3.52528">
        <ele>534.8</ele>
        <time>2025-10-30T21:27:20Z</time>
      </trkpt>
      <trkpt lat="45.99291" lon="3.52544">
        <ele>534.7</ele>
        <time>2025-10-30T21:27:20Z</time>
      </trkpt>
      <trkpt lat="45.99294" lon="3.52567">
        <ele>534.7</ele>
        <time>2025-10-30T21:27:20Z</time>
      </trkpt>
      <trkpt lat="45.99297" lon="3.52584">
        <ele>535</ele>
        <time>2025-10-30T21:27:20Z</time>
      </trkpt>
      <trkpt lat="45.99299" lon="3.52595">
        <ele>534.7</ele>
        <time>2025-10-30T21:27:20Z</time>
      </trkpt>
      <trkpt lat="45.99302" lon="3.52603">
        <ele>534.4</ele>
        <time>2025-10-30T21:27:20Z</time>
      </trkpt>
      <trkpt lat="45.99311" lon="3.52624">
        <ele>534.4</ele>
        <time>2025-10-30T21:27:20Z</time>
      </trkpt>
      <trkpt lat="45.99315" lon="3.52631">
        <ele>534.2</ele>
        <time>2025-10-30T21:27:20Z</time>
      </trkpt>
      <trkpt lat="45.99319" lon="3.52638">
        <ele>534.1</ele>
        <time>2025-10-30T21:27:20Z</time>
      </trkpt>
      <trkpt lat="45.99324" lon="3.52645">
        <ele>534</ele>
        <time>2025-10-30T21:27:20Z</time>
      </trkpt>
      <trkpt lat="45.99348" lon="3.52675">
        <ele>533.1</ele>
        <time>2025-10-30T21:27:20Z</time>
      </trkpt>
      <trkpt lat="45.99363" lon="3.52692">
        <ele>533.1</ele>
        <time>2025-10-30T21:27:20Z</time>
      </trkpt>
      <trkpt lat="45.99372" lon="3.527">
        <ele>533</ele>
        <time>2025-10-30T21:27:20Z</time>
      </trkpt>
      <trkpt lat="45.99381" lon="3.52708">
        <ele>533.4</ele>
        <time>2025-10-30T21:27:20Z</time>
      </trkpt>
      <trkpt lat="45.99388" lon="3.52713">
        <ele>533.7</ele>
        <time>2025-10-30T21:27:20Z</time>
      </trkpt>
      <trkpt lat="45.99425" lon="3.52732">
        <ele>535.5</ele>
        <time>2025-10-30T21:27:20Z</time>
      </trkpt>
      <trkpt lat="45.99505" lon="3.52787">
        <ele>540.8</ele>
        <time>2025-10-30T21:27:20Z</time>
      </trkpt>
      <trkpt lat="45.99511" lon="3.52792">
        <ele>540.9</ele>
        <time>2025-10-30T21:27:20Z</time>
      </trkpt>
      <trkpt lat="45.99519" lon="3.52797">
        <ele>540.9</ele>
        <time>2025-10-30T21:27:20Z</time>
      </trkpt>
      <trkpt lat="45.99527" lon="3.52802">
        <ele>540.9</ele>
        <time>2025-10-30T21:27:20Z</time>
      </trkpt>
      <trkpt lat="45.99536" lon="3.52807">
        <ele>540.8</ele>
        <time>2025-10-30T21:27:20Z</time>
      </trkpt>
      <trkpt lat="45.99545" lon="3.52811">
        <ele>540.8</ele>
        <time>2025-10-30T21:27:20Z</time>
      </trkpt>
      <trkpt lat="45.99551" lon="3.52813">
        <ele>541</ele>
        <time>2025-10-30T21:27:20Z</time>
      </trkpt>
      <trkpt lat="45.9956" lon="3.52815">
        <ele>540.9</ele>
        <time>2025-10-30T21:27:20Z</time>
      </trkpt>
      <trkpt lat="45.99608" lon="3.52824">
        <ele>541.6</ele>
        <time>2025-10-30T21:27:20Z</time>
      </trkpt>
      <trkpt lat="45.99644" lon="3.52831">
        <ele>541.8</ele>
        <time>2025-10-30T21:27:20Z</time>
      </trkpt>
      <trkpt lat="45.99665" lon="3.52834">
        <ele>542.5</ele>
        <time>2025-10-30T21:27:20Z</time>
      </trkpt>
      <trkpt lat="45.9969" lon="3.52836">
        <ele>542.4</ele>
        <time>2025-10-30T21:27:20Z</time>
      </trkpt>
      <trkpt lat="45.99695" lon="3.52837">
        <ele>542.4</ele>
        <time>2025-10-30T21:27:20Z</time>
      </trkpt>
      <trkpt lat="45.997" lon="3.52839">
        <ele>542</ele>
        <time>2025-10-30T21:27:20Z</time>
      </trkpt>
      <trkpt lat="45.99706" lon="3.52841">
        <ele>541.8</ele>
        <time>2025-10-30T21:27:20Z</time>
      </trkpt>
      <trkpt lat="45.99727" lon="3.52848">
        <ele>539.8</ele>
        <time>2025-10-30T21:27:20Z</time>
      </trkpt>
      <trkpt lat="45.99748" lon="3.52855">
        <ele>537.8</ele>
        <time>2025-10-30T21:27:20Z</time>
      </trkpt>
      <trkpt lat="45.99756" lon="3.5286">
        <ele>537</ele>
        <time>2025-10-30T21:27:20Z</time>
      </trkpt>
      <trkpt lat="45.99759" lon="3.52863">
        <ele>536.3</ele>
        <time>2025-10-30T21:27:20Z</time>
      </trkpt>
      <trkpt lat="45.99765" lon="3.52868">
        <ele>535.9</ele>
        <time>2025-10-30T21:27:20Z</time>
      </trkpt>
      <trkpt lat="45.99768" lon="3.52872">
        <ele>535.6</ele>
        <time>2025-10-30T21:27:20Z</time>
      </trkpt>
      <trkpt lat="45.99772" lon="3.52876">
        <ele>535.3</ele>
        <time>2025-10-30T21:27:20Z</time>
      </trkpt>
      <trkpt lat="45.99776" lon="3.52883">
        <ele>535.1</ele>
        <time>2025-10-30T21:27:20Z</time>
      </trkpt>
      <trkpt lat="45.99785" lon="3.52902">
        <ele>533.4</ele>
        <time>2025-10-30T21:27:20Z</time>
      </trkpt>
      <trkpt lat="45.99792" lon="3.52915">
        <ele>532.6</ele>
        <time>2025-10-30T21:27:20Z</time>
      </trkpt>
      <trkpt lat="45.99797" lon="3.52922">
        <ele>532.4</ele>
        <time>2025-10-30T21:27:20Z</time>
      </trkpt>
      <trkpt lat="45.99618" lon="3.53001">
        <ele>495.1</ele>
        <time>2025-10-30T21:27:20Z</time>
      </trkpt>
      <trkpt lat="45.99719" lon="3.53225">
        <ele>585.9</ele>
        <time>2025-10-30T21:27:20Z</time>
      </trkpt>
      <trkpt lat="45.99758" lon="3.53208">
        <ele>586.5</ele>
        <time>2025-10-30T21:27:20Z</time>
      </trkpt>
      <trkpt lat="45.99767" lon="3.53277">
        <ele>593</ele>
        <time>2025-10-30T21:27:20Z</time>
      </trkpt>
      <trkpt lat="45.99827" lon="3.53347">
        <ele>552.3</ele>
        <time>2025-10-30T21:27:20Z</time>
      </trkpt>
      <trkpt lat="45.99889" lon="3.53332">
        <ele>557.2</ele>
        <time>2025-10-30T21:27:20Z</time>
      </trkpt>
      <trkpt lat="45.9995" lon="3.53369">
        <ele>545.1</ele>
        <time>2025-10-30T21:27:20Z</time>
      </trkpt>
      <trkpt lat="45.99996" lon="3.53292">
        <ele>552.9</ele>
        <time>2025-10-30T21:27:20Z</time>
      </trkpt>
      <trkpt lat="46.00109" lon="3.53313">
        <ele>534</ele>
        <time>2025-10-30T21:27:20Z</time>
      </trkpt>
      <trkpt lat="46.00111" lon="3.53308">
        <ele>535.1</ele>
        <time>2025-10-30T21:27:20Z</time>
      </trkpt>
      <trkpt lat="46.00119" lon="3.53313">
        <ele>536.3</ele>
        <time>2025-10-30T21:27:20Z</time>
      </trkpt>
      <trkpt lat="46.00128" lon="3.53326">
        <ele>538.4</ele>
        <time>2025-10-30T21:27:20Z</time>
      </trkpt>
      <trkpt lat="46.00133" lon="3.53331">
        <ele>538.9</ele>
        <time>2025-10-30T21:27:20Z</time>
      </trkpt>
      <trkpt lat="46.00142" lon="3.53333">
        <ele>540.7</ele>
        <time>2025-10-30T21:27:20Z</time>
      </trkpt>
      <trkpt lat="46.0015" lon="3.53333">
        <ele>542.3</ele>
        <time>2025-10-30T21:27:20Z</time>
      </trkpt>
      <trkpt lat="46.00157" lon="3.5333">
        <ele>544.1</ele>
        <time>2025-10-30T21:27:20Z</time>
      </trkpt>
      <trkpt lat="46.00163" lon="3.53324">
        <ele>545.3</ele>
        <time>2025-10-30T21:27:20Z</time>
      </trkpt>
      <trkpt lat="46.00167" lon="3.53313">
        <ele>547.4</ele>
        <time>2025-10-30T21:27:20Z</time>
      </trkpt>
      <trkpt lat="46.00171" lon="3.53296">
        <ele>549.3</ele>
        <time>2025-10-30T21:27:20Z</time>
      </trkpt>
      <trkpt lat="46.0018" lon="3.53276">
        <ele>551.5</ele>
        <time>2025-10-30T21:27:20Z</time>
      </trkpt>
      <trkpt lat="46.00196" lon="3.53245">
        <ele>554.5</ele>
        <time>2025-10-30T21:27:20Z</time>
      </trkpt>
      <trkpt lat="46.00211" lon="3.53221">
        <ele>554.3</ele>
        <time>2025-10-30T21:27:20Z</time>
      </trkpt>
      <trkpt lat="46.00245" lon="3.53164">
        <ele>552.8</ele>
        <time>2025-10-30T21:27:20Z</time>
      </trkpt>
      <trkpt lat="46.00251" lon="3.5315">
        <ele>551.7</ele>
        <time>2025-10-30T21:27:20Z</time>
      </trkpt>
      <trkpt lat="46.00262" lon="3.53125">
        <ele>550.4</ele>
        <time>2025-10-30T21:27:20Z</time>
      </trkpt>
      <trkpt lat="46.0027" lon="3.53112">
        <ele>548.7</ele>
        <time>2025-10-30T21:27:20Z</time>
      </trkpt>
      <trkpt lat="46.00275" lon="3.53107">
        <ele>548</ele>
        <time>2025-10-30T21:27:20Z</time>
      </trkpt>
      <trkpt lat="46.00281" lon="3.53104">
        <ele>547</ele>
        <time>2025-10-30T21:27:20Z</time>
      </trkpt>
      <trkpt lat="46.00291" lon="3.53101">
        <ele>546.6</ele>
        <time>2025-10-30T21:27:20Z</time>
      </trkpt>
      <trkpt lat="46.00304" lon="3.53103">
        <ele>546.4</ele>
        <time>2025-10-30T21:27:20Z</time>
      </trkpt>
      <trkpt lat="46.00311" lon="3.53106">
        <ele>546.6</ele>
        <time>2025-10-30T21:27:20Z</time>
      </trkpt>
      <trkpt lat="46.00319" lon="3.53108">
        <ele>546.4</ele>
        <time>2025-10-30T21:27:20Z</time>
      </trkpt>
      <trkpt lat="46.00327" lon="3.53104">
        <ele>546.8</ele>
        <time>2025-10-30T21:27:20Z</time>
      </trkpt>
      <trkpt lat="46.00323" lon="3.531">
        <ele>546.7</ele>
        <time>2025-10-30T21:27:20Z</time>
      </trkpt>
      <trkpt lat="46.0032" lon="3.53095">
        <ele>546.6</ele>
        <time>2025-10-30T21:27:20Z</time>
      </trkpt>
      <trkpt lat="46.00317" lon="3.53089">
        <ele>546.3</ele>
        <time>2025-10-30T21:27:20Z</time>
      </trkpt>
      <trkpt lat="46.00315" lon="3.53082">
        <ele>546.2</ele>
        <time>2025-10-30T21:27:20Z</time>
      </trkpt>
      <trkpt lat="46.00314" lon="3.53075">
        <ele>546</ele>
        <time>2025-10-30T21:27:20Z</time>
      </trkpt>
      <trkpt lat="46.00312" lon="3.53067">
        <ele>545.7</ele>
        <time>2025-10-30T21:27:20Z</time>
      </trkpt>
      <trkpt lat="46.00334" lon="3.53037">
        <ele>545.7</ele>
        <time>2025-10-30T21:27:20Z</time>
      </trkpt>
      <trkpt lat="46.00441" lon="3.53014">
        <ele>553.9</ele>
        <time>2025-10-30T21:27:20Z</time>
      </trkpt>
      <trkpt lat="46.005" lon="3.53042">
        <ele>556.2</ele>
        <time>2025-10-30T21:27:20Z</time>
      </trkpt>
      <trkpt lat="46.00499" lon="3.53044">
        <ele>556</ele>
        <time>2025-10-30T21:27:20Z</time>
      </trkpt>
      <trkpt lat="46.00498" lon="3.53043">
        <ele>556.1</ele>
        <time>2025-10-30T21:27:20Z</time>
      </trkpt>
      <trkpt lat="46.00495" lon="3.53038">
        <ele>556.2</ele>
        <time>2025-10-30T21:27:20Z</time>
      </trkpt>
      <trkpt lat="46.00491" lon="3.53032">
        <ele>556.2</ele>
        <time>2025-10-30T21:27:20Z</time>
      </trkpt>
      <trkpt lat="46.00488" lon="3.53024">
        <ele>556.1</ele>
        <time>2025-10-30T21:27:20Z</time>
      </trkpt>
      <trkpt lat="46.00484" lon="3.53017">
        <ele>556.1</ele>
        <time>2025-10-30T21:27:20Z</time>
      </trkpt>
      <trkpt lat="46.0048" lon="3.53009">
        <ele>556.1</ele>
        <time>2025-10-30T21:27:20Z</time>
      </trkpt>
      <trkpt lat="46.00479" lon="3.53006">
        <ele>556</ele>
        <time>2025-10-30T21:27:20Z</time>
      </trkpt>
      <trkpt lat="46.00478" lon="3.53">
        <ele>555.8</ele>
        <time>2025-10-30T21:27:20Z</time>
      </trkpt>
      <trkpt lat="46.00476" lon="3.52993">
        <ele>556</ele>
        <time>2025-10-30T21:27:20Z</time>
      </trkpt>
      <trkpt lat="46.00473" lon="3.52979">
        <ele>555.8</ele>
        <time>2025-10-30T21:27:20Z</time>
      </trkpt>
      <trkpt lat="46.00471" lon="3.52972">
        <ele>555.5</ele>
        <time>2025-10-30T21:27:20Z</time>
      </trkpt>
      <trkpt lat="46.00465" lon="3.52958">
        <ele>554.7</ele>
        <time>2025-10-30T21:27:20Z</time>
      </trkpt>
      <trkpt lat="46.00455" lon="3.5294">
        <ele>551.6</ele>
        <time>2025-10-30T21:27:20Z</time>
      </trkpt>
      <trkpt lat="46.0045" lon="3.5293">
        <ele>550.1</ele>
        <time>2025-10-30T21:27:20Z</time>
      </trkpt>
      <trkpt lat="46.00448" lon="3.52924">
        <ele>549.6</ele>
        <time>2025-10-30T21:27:20Z</time>
      </trkpt>
      <trkpt lat="46.00445" lon="3.52918">
        <ele>548.1</ele>
        <time>2025-10-30T21:27:20Z</time>
      </trkpt>
      <trkpt lat="46.00447" lon="3.52887">
        <ele>544.1</ele>
        <time>2025-10-30T21:27:20Z</time>
      </trkpt>
      <trkpt lat="46.00449" lon="3.52857">
        <ele>541.1</ele>
        <time>2025-10-30T21:27:20Z</time>
      </trkpt>
      <trkpt lat="46.00458" lon="3.52835">
        <ele>539.7</ele>
        <time>2025-10-30T21:27:20Z</time>
      </trkpt>
      <trkpt lat="46.00466" lon="3.52816">
        <ele>537.7</ele>
        <time>2025-10-30T21:27:20Z</time>
      </trkpt>
      <trkpt lat="46.0047" lon="3.52802">
        <ele>535.6</ele>
        <time>2025-10-30T21:27:20Z</time>
      </trkpt>
      <trkpt lat="46.00471" lon="3.52783">
        <ele>533.5</ele>
        <time>2025-10-30T21:27:20Z</time>
      </trkpt>
      <trkpt lat="46.00473" lon="3.52763">
        <ele>531.1</ele>
        <time>2025-10-30T21:27:20Z</time>
      </trkpt>
      <trkpt lat="46.0048" lon="3.52744">
        <ele>528.7</ele>
        <time>2025-10-30T21:27:20Z</time>
      </trkpt>
      <trkpt lat="46.00487" lon="3.52724">
        <ele>525.2</ele>
        <time>2025-10-30T21:27:20Z</time>
      </trkpt>
      <trkpt lat="46.00486" lon="3.527">
        <ele>523.4</ele>
        <time>2025-10-30T21:27:20Z</time>
      </trkpt>
      <trkpt lat="46.00481" lon="3.52624">
        <ele>516.2</ele>
        <time>2025-10-30T21:27:20Z</time>
      </trkpt>
      <trkpt lat="46.00483" lon="3.52591">
        <ele>512.1</ele>
        <time>2025-10-30T21:27:20Z</time>
      </trkpt>
      <trkpt lat="46.0049" lon="3.52562">
        <ele>509.4</ele>
        <time>2025-10-30T21:27:20Z</time>
      </trkpt>
      <trkpt lat="46.00502" lon="3.52536">
        <ele>506.2</ele>
        <time>2025-10-30T21:27:20Z</time>
      </trkpt>
      <trkpt lat="46.00511" lon="3.52528">
        <ele>504.9</ele>
        <time>2025-10-30T21:27:20Z</time>
      </trkpt>
      <trkpt lat="46.00514" lon="3.52524">
        <ele>504.9</ele>
        <time>2025-10-30T21:27:20Z</time>
      </trkpt>
      <trkpt lat="46.00529" lon="3.52513">
        <ele>502</ele>
        <time>2025-10-30T21:27:20Z</time>
      </trkpt>
      <trkpt lat="46.00541" lon="3.52492">
        <ele>498.7</ele>
        <time>2025-10-30T21:27:20Z</time>
      </trkpt>
      <trkpt lat="46.00553" lon="3.52477">
        <ele>496.7</ele>
        <time>2025-10-30T21:27:20Z</time>
      </trkpt>
      <trkpt lat="46.00575" lon="3.52429">
        <ele>494.5</ele>
        <time>2025-10-30T21:27:20Z</time>
      </trkpt>
      <trkpt lat="46.00581" lon="3.52413">
        <ele>493.6</ele>
        <time>2025-10-30T21:27:20Z</time>
      </trkpt>
      <trkpt lat="46.00577" lon="3.52401">
        <ele>493.2</ele>
        <time>2025-10-30T21:27:20Z</time>
      </trkpt>
      <trkpt lat="46.0057" lon="3.52395">
        <ele>492.3</ele>
        <time>2025-10-30T21:27:20Z</time>
      </trkpt>
      <trkpt lat="46.00559" lon="3.52385">
        <ele>490.8</ele>
        <time>2025-10-30T21:27:20Z</time>
      </trkpt>
      <trkpt lat="46.00544" lon="3.52383">
        <ele>489.8</ele>
        <time>2025-10-30T21:27:20Z</time>
      </trkpt>
      <trkpt lat="46.00501" lon="3.52412">
        <ele>485.5</ele>
        <time>2025-10-30T21:27:20Z</time>
      </trkpt>
      <trkpt lat="46.00454" lon="3.52453">
        <ele>483.8</ele>
        <time>2025-10-30T21:27:20Z</time>
      </trkpt>
      <trkpt lat="46.00404" lon="3.52491">
        <ele>478.6</ele>
        <time>2025-10-30T21:27:20Z</time>
      </trkpt>
      <trkpt lat="46.00372" lon="3.52555">
        <ele>482.9</ele>
        <time>2025-10-30T21:27:20Z</time>
      </trkpt>
      <trkpt lat="46.00364" lon="3.52571">
        <ele>483.7</ele>
        <time>2025-10-30T21:27:20Z</time>
      </trkpt>
      <trkpt lat="46.00364" lon="3.52597">
        <ele>487.7</ele>
        <time>2025-10-30T21:27:20Z</time>
      </trkpt>
      <trkpt lat="46.0036" lon="3.52613">
        <ele>488.8</ele>
        <time>2025-10-30T21:27:20Z</time>
      </trkpt>
      <trkpt lat="46.00352" lon="3.52621">
        <ele>490.2</ele>
        <time>2025-10-30T21:27:20Z</time>
      </trkpt>
      <trkpt lat="46.00341" lon="3.52615">
        <ele>491.1</ele>
        <time>2025-10-30T21:27:20Z</time>
      </trkpt>
      <trkpt lat="46.00334" lon="3.52601">
        <ele>492.9</ele>
        <time>2025-10-30T21:27:20Z</time>
      </trkpt>
      <trkpt lat="46.00327" lon="3.52578">
        <ele>497.4</ele>
        <time>2025-10-30T21:27:20Z</time>
      </trkpt>
      <trkpt lat="46.00326" lon="3.5255">
        <ele>497.6</ele>
        <time>2025-10-30T21:27:20Z</time>
      </trkpt>
      <trkpt lat="46.00323" lon="3.52547">
        <ele>498.2</ele>
        <time>2025-10-30T21:27:20Z</time>
      </trkpt>
      <trkpt lat="46.00321" lon="3.52545">
        <ele>498.2</ele>
        <time>2025-10-30T21:27:20Z</time>
      </trkpt>
      <trkpt lat="46.00318" lon="3.52546">
        <ele>498.7</ele>
        <time>2025-10-30T21:27:20Z</time>
      </trkpt>
      <trkpt lat="46.00314" lon="3.52548">
        <ele>499</ele>
        <time>2025-10-30T21:27:20Z</time>
      </trkpt>
      <trkpt lat="46.00299" lon="3.52558">
        <ele>500.7</ele>
        <time>2025-10-30T21:27:20Z</time>
      </trkpt>
      <trkpt lat="46.00282" lon="3.52568">
        <ele>502</ele>
        <time>2025-10-30T21:27:20Z</time>
      </trkpt>
      <trkpt lat="46.00277" lon="3.5257">
        <ele>502</ele>
        <time>2025-10-30T21:27:20Z</time>
      </trkpt>
      <trkpt lat="46.00273" lon="3.52571">
        <ele>501.8</ele>
        <time>2025-10-30T21:27:20Z</time>
      </trkpt>
      <trkpt lat="46.00268" lon="3.5257">
        <ele>501.3</ele>
        <time>2025-10-30T21:27:20Z</time>
      </trkpt>
      <trkpt lat="46.00262" lon="3.52567">
        <ele>500.6</ele>
        <time>2025-10-30T21:27:20Z</time>
      </trkpt>
      <trkpt lat="46.00251" lon="3.52559">
        <ele>499.7</ele>
        <time>2025-10-30T21:27:20Z</time>
      </trkpt>
      <trkpt lat="46.00242" lon="3.52553">
        <ele>498.9</ele>
        <time>2025-10-30T21:27:20Z</time>
      </trkpt>
      <trkpt lat="46.00235" lon="3.52547">
        <ele>498.2</ele>
        <time>2025-10-30T21:27:20Z</time>
      </trkpt>
      <trkpt lat="46.00231" lon="3.52542">
        <ele>497.8</ele>
        <time>2025-10-30T21:27:20Z</time>
      </trkpt>
      <trkpt lat="46.00227" lon="3.52539">
        <ele>497.6</ele>
        <time>2025-10-30T21:27:20Z</time>
      </trkpt>
      <trkpt lat="46.00224" lon="3.52536">
        <ele>497.1</ele>
        <time>2025-10-30T21:27:20Z</time>
      </trkpt>
      <trkpt lat="46.0022" lon="3.52536">
        <ele>496.6</ele>
        <time>2025-10-30T21:27:20Z</time>
      </trkpt>
      <trkpt lat="46.00217" lon="3.52537">
        <ele>496.4</ele>
        <time>2025-10-30T21:27:20Z</time>
      </trkpt>
      <trkpt lat="46.00215" lon="3.52539">
        <ele>496.1</ele>
        <time>2025-10-30T21:27:20Z</time>
      </trkpt>
      <trkpt lat="46.00213" lon="3.52542">
        <ele>496</ele>
        <time>2025-10-30T21:27:20Z</time>
      </trkpt>
      <trkpt lat="46.00211" lon="3.52547">
        <ele>495.7</ele>
        <time>2025-10-30T21:27:20Z</time>
      </trkpt>
      <trkpt lat="46.0021" lon="3.52552">
        <ele>495.7</ele>
        <time>2025-10-30T21:27:20Z</time>
      </trkpt>
      <trkpt lat="46.00209" lon="3.5256">
        <ele>495.7</ele>
        <time>2025-10-30T21:27:20Z</time>
      </trkpt>
      <trkpt lat="46.00208" lon="3.52567">
        <ele>495.8</ele>
        <time>2025-10-30T21:27:20Z</time>
      </trkpt>
      <trkpt lat="46.00206" lon="3.52575">
        <ele>495.3</ele>
        <time>2025-10-30T21:27:20Z</time>
      </trkpt>
      <trkpt lat="46.00205" lon="3.52587">
        <ele>495.6</ele>
        <time>2025-10-30T21:27:20Z</time>
      </trkpt>
      <trkpt lat="46.00203" lon="3.52597">
        <ele>495.3</ele>
        <time>2025-10-30T21:27:20Z</time>
      </trkpt>
      <trkpt lat="46.00201" lon="3.52606">
        <ele>495.7</ele>
        <time>2025-10-30T21:27:20Z</time>
      </trkpt>
      <trkpt lat="46.00199" lon="3.52613">
        <ele>495.8</ele>
        <time>2025-10-30T21:27:20Z</time>
      </trkpt>
      <trkpt lat="46.00197" lon="3.52621">
        <ele>495.7</ele>
        <time>2025-10-30T21:27:20Z</time>
      </trkpt>
      <trkpt lat="46.00193" lon="3.5263">
        <ele>495.5</ele>
        <time>2025-10-30T21:27:20Z</time>
      </trkpt>
      <trkpt lat="46.00192" lon="3.52634">
        <ele>495.8</ele>
        <time>2025-10-30T21:27:20Z</time>
      </trkpt>
      <trkpt lat="46.00188" lon="3.52641">
        <ele>495.9</ele>
        <time>2025-10-30T21:27:20Z</time>
      </trkpt>
      <trkpt lat="46.00186" lon="3.52643">
        <ele>495.9</ele>
        <time>2025-10-30T21:27:20Z</time>
      </trkpt>
      <trkpt lat="46.00181" lon="3.52647">
        <ele>495.7</ele>
        <time>2025-10-30T21:27:20Z</time>
      </trkpt>
      <trkpt lat="46.00176" lon="3.5265">
        <ele>495.9</ele>
        <time>2025-10-30T21:27:20Z</time>
      </trkpt>
      <trkpt lat="46.00168" lon="3.52655">
        <ele>496.1</ele>
        <time>2025-10-30T21:27:20Z</time>
      </trkpt>
      <trkpt lat="46.0016" lon="3.52618">
        <ele>493.3</ele>
        <time>2025-10-30T21:27:20Z</time>
      </trkpt>
      <trkpt lat="46.00156" lon="3.52595">
        <ele>492.5</ele>
        <time>2025-10-30T21:27:20Z</time>
      </trkpt>
      <trkpt lat="46.00149" lon="3.52554">
        <ele>492.8</ele>
        <time>2025-10-30T21:27:20Z</time>
      </trkpt>
      <trkpt lat="46.00146" lon="3.52546">
        <ele>493.2</ele>
        <time>2025-10-30T21:27:20Z</time>
      </trkpt>
      <trkpt lat="46.00142" lon="3.52537">
        <ele>492.9</ele>
        <time>2025-10-30T21:27:20Z</time>
      </trkpt>
      <trkpt lat="46.00132" lon="3.5253">
        <ele>492.9</ele>
        <time>2025-10-30T21:27:20Z</time>
      </trkpt>
      <trkpt lat="46.00122" lon="3.52526">
        <ele>494.9</ele>
        <time>2025-10-30T21:27:20Z</time>
      </trkpt>
      <trkpt lat="46.00116" lon="3.52521">
        <ele>495</ele>
        <time>2025-10-30T21:27:20Z</time>
      </trkpt>
      <trkpt lat="46.00112" lon="3.52514">
        <ele>493.8</ele>
        <time>2025-10-30T21:27:20Z</time>
      </trkpt>
      <trkpt lat="46.0011" lon="3.52507">
        <ele>492.4</ele>
        <time>2025-10-30T21:27:20Z</time>
      </trkpt>
      <trkpt lat="46.00113" lon="3.52502">
        <ele>490.8</ele>
        <time>2025-10-30T21:27:20Z</time>
      </trkpt>
      <trkpt lat="46.00093" lon="3.52491">
        <ele>490.9</ele>
        <time>2025-10-30T21:27:20Z</time>
      </trkpt>
      <trkpt lat="46.00085" lon="3.52487">
        <ele>490.7</ele>
        <time>2025-10-30T21:27:20Z</time>
      </trkpt>
      <trkpt lat="46.00078" lon="3.52485">
        <ele>490.6</ele>
        <time>2025-10-30T21:27:20Z</time>
      </trkpt>
      <trkpt lat="46.00061" lon="3.5247">
        <ele>488.9</ele>
        <time>2025-10-30T21:27:20Z</time>
      </trkpt>
      <trkpt lat="46.00057" lon="3.52466">
        <ele>488.5</ele>
        <time>2025-10-30T21:27:20Z</time>
      </trkpt>
      <trkpt lat="46.00043" lon="3.52459">
        <ele>488</ele>
        <time>2025-10-30T21:27:20Z</time>
      </trkpt>
      <trkpt lat="46.00029" lon="3.52444">
        <ele>486.5</ele>
        <time>2025-10-30T21:27:20Z</time>
      </trkpt>
      <trkpt lat="46.00014" lon="3.52416">
        <ele>485.3</ele>
        <time>2025-10-30T21:27:20Z</time>
      </trkpt>
      <trkpt lat="46.00003" lon="3.52394">
        <ele>483.5</ele>
        <time>2025-10-30T21:27:20Z</time>
      </trkpt>
      <trkpt lat="45.99999" lon="3.52386">
        <ele>483.5</ele>
        <time>2025-10-30T21:27:20Z</time>
      </trkpt>
      <trkpt lat="45.99998" lon="3.52374">
        <ele>482.4</ele>
        <time>2025-10-30T21:27:20Z</time>
      </trkpt>
      <trkpt lat="45.99992" lon="3.52361">
        <ele>483.2</ele>
        <time>2025-10-30T21:27:20Z</time>
      </trkpt>
      <trkpt lat="45.99976" lon="3.52344">
        <ele>482.4</ele>
        <time>2025-10-30T21:27:20Z</time>
      </trkpt>
      <trkpt lat="45.99962" lon="3.52334">
        <ele>480.8</ele>
        <time>2025-10-30T21:27:20Z</time>
      </trkpt>
      <trkpt lat="45.9994" lon="3.52326">
        <ele>477.9</ele>
        <time>2025-10-30T21:27:20Z</time>
      </trkpt>
      <trkpt lat="45.99917" lon="3.52321">
        <ele>477.8</ele>
        <time>2025-10-30T21:27:20Z</time>
      </trkpt>
      <trkpt lat="45.99887" lon="3.5231">
        <ele>474.5</ele>
        <time>2025-10-30T21:27:20Z</time>
      </trkpt>
      <trkpt lat="45.99868" lon="3.52303">
        <ele>471.7</ele>
        <time>2025-10-30T21:27:20Z</time>
      </trkpt>
      <trkpt lat="45.99849" lon="3.52296">
        <ele>468.1</ele>
        <time>2025-10-30T21:27:20Z</time>
      </trkpt>
      <trkpt lat="45.99835" lon="3.52301">
        <ele>468.3</ele>
        <time>2025-10-30T21:27:20Z</time>
      </trkpt>
      <trkpt lat="45.99829" lon="3.5231">
        <ele>467.8</ele>
        <time>2025-10-30T21:27:20Z</time>
      </trkpt>
      <trkpt lat="45.99826" lon="3.52318">
        <ele>469.7</ele>
        <time>2025-10-30T21:27:20Z</time>
      </trkpt>
      <trkpt lat="45.99822" lon="3.5232">
        <ele>468.1</ele>
        <time>2025-10-30T21:27:20Z</time>
      </trkpt>
      <trkpt lat="45.99819" lon="3.52318">
        <ele>467.1</ele>
        <time>2025-10-30T21:27:20Z</time>
      </trkpt>
      <trkpt lat="45.99817" lon="3.52309">
        <ele>464.3</ele>
        <time>2025-10-30T21:27:20Z</time>
      </trkpt>
      <trkpt lat="45.99818" lon="3.52296">
        <ele>461.3</ele>
        <time>2025-10-30T21:27:20Z</time>
      </trkpt>
      <trkpt lat="45.99818" lon="3.52292">
        <ele>460.5</ele>
        <time>2025-10-30T21:27:20Z</time>
      </trkpt>
      <trkpt lat="45.99818" lon="3.52262">
        <ele>455.3</ele>
        <time>2025-10-30T21:27:20Z</time>
      </trkpt>
      <trkpt lat="45.9982" lon="3.52247">
        <ele>452.9</ele>
        <time>2025-10-30T21:27:20Z</time>
      </trkpt>
      <trkpt lat="45.99827" lon="3.5223">
        <ele>449.7</ele>
        <time>2025-10-30T21:27:20Z</time>
      </trkpt>
      <trkpt lat="45.9983" lon="3.52217">
        <ele>450.8</ele>
        <time>2025-10-30T21:27:20Z</time>
      </trkpt>
      <trkpt lat="45.99829" lon="3.52209">
        <ele>449.7</ele>
        <time>2025-10-30T21:27:20Z</time>
      </trkpt>
      <trkpt lat="45.99828" lon="3.52203">
        <ele>449.7</ele>
        <time>2025-10-30T21:27:20Z</time>
      </trkpt>
      <trkpt lat="45.99819" lon="3.52192">
        <ele>447.6</ele>
        <time>2025-10-30T21:27:20Z</time>
      </trkpt>
      <trkpt lat="45.99809" lon="3.52161">
        <ele>446.2</ele>
        <time>2025-10-30T21:27:20Z</time>
      </trkpt>
      <trkpt lat="45.99797" lon="3.52125">
        <ele>441.6</ele>
        <time>2025-10-30T21:27:20Z</time>
      </trkpt>
      <trkpt lat="45.9979" lon="3.52086">
        <ele>436.7</ele>
        <time>2025-10-30T21:27:20Z</time>
      </trkpt>
      <trkpt lat="45.99789" lon="3.52067">
        <ele>435.1</ele>
        <time>2025-10-30T21:27:20Z</time>
      </trkpt>
      <trkpt lat="45.99829" lon="3.51988">
        <ele>455.4</ele>
        <time>2025-10-30T21:27:20Z</time>
      </trkpt>
      <trkpt lat="45.99873" lon="3.51827">
        <ele>456.6</ele>
        <time>2025-10-30T21:27:20Z</time>
      </trkpt>
      <trkpt lat="45.99856" lon="3.51789">
        <ele>438.4</ele>
        <time>2025-10-30T21:27:20Z</time>
      </trkpt>
      <trkpt lat="45.99773" lon="3.51694">
        <ele>434.2</ele>
        <time>2025-10-30T21:27:20Z</time>
      </trkpt>
      <trkpt lat="45.99748" lon="3.51541">
        <ele>433.4</ele>
        <time>2025-10-30T21:27:20Z</time>
      </trkpt>
      <trkpt lat="45.99728" lon="3.51484">
        <ele>424.8</ele>
        <time>2025-10-30T21:27:20Z</time>
      </trkpt>
      <trkpt lat="45.99763" lon="3.51441">
        <ele>412.9</ele>
        <time>2025-10-30T21:27:20Z</time>
      </trkpt>
      <trkpt lat="45.99766" lon="3.51339">
        <ele>385.9</ele>
        <time>2025-10-30T21:27:20Z</time>
      </trkpt>
      <trkpt lat="45.99743" lon="3.51319">
        <ele>370.5</ele>
        <time>2025-10-30T21:27:20Z</time>
      </trkpt>
      <trkpt lat="45.99782" lon="3.51234">
        <ele>354.2</ele>
        <time>2025-10-30T21:27:20Z</time>
      </trkpt>
      <trkpt lat="45.99784" lon="3.5121">
        <ele>348.8</ele>
        <time>2025-10-30T21:27:20Z</time>
      </trkpt>
      <trkpt lat="45.99864" lon="3.5113">
        <ele>343.6</ele>
        <time>2025-10-30T21:27:20Z</time>
      </trkpt>
      <trkpt lat="45.99905" lon="3.51">
        <ele>336.8</ele>
        <time>2025-10-30T21:27:20Z</time>
      </trkpt>
      <trkpt lat="45.99888" lon="3.50941">
        <ele>328.7</ele>
        <time>2025-10-30T21:27:20Z</time>
      </trkpt>
      <trkpt lat="45.99885" lon="3.50939">
        <ele>329</ele>
        <time>2025-10-30T21:27:20Z</time>
      </trkpt>
      <trkpt lat="45.99884" lon="3.50941">
        <ele>329</ele>
        <time>2025-10-30T21:27:20Z</time>
      </trkpt>
      <trkpt lat="45.99883" lon="3.50943">
        <ele>329</ele>
        <time>2025-10-30T21:27:20Z</time>
      </trkpt>
      <trkpt lat="45.99881" lon="3.50943">
        <ele>329.5</ele>
        <time>2025-10-30T21:27:20Z</time>
      </trkpt>
      <trkpt lat="45.99879" lon="3.50943">
        <ele>329.5</ele>
        <time>2025-10-30T21:27:20Z</time>
      </trkpt>
      <trkpt lat="45.99876" lon="3.50942">
        <ele>330.1</ele>
        <time>2025-10-30T21:27:20Z</time>
      </trkpt>
      <trkpt lat="45.99872" lon="3.5094">
        <ele>330.6</ele>
        <time>2025-10-30T21:27:20Z</time>
      </trkpt>
      <trkpt lat="45.99869" lon="3.50937">
        <ele>330.6</ele>
        <time>2025-10-30T21:27:20Z</time>
      </trkpt>
      <trkpt lat="45.99867" lon="3.50934">
        <ele>331.1</ele>
        <time>2025-10-30T21:27:20Z</time>
      </trkpt>
      <trkpt lat="45.99864" lon="3.50933">
        <ele>331.5</ele>
        <time>2025-10-30T21:27:20Z</time>
      </trkpt>
      <trkpt lat="45.99861" lon="3.50931">
        <ele>331.4</ele>
        <time>2025-10-30T21:27:20Z</time>
      </trkpt>
      <trkpt lat="45.9986" lon="3.5093">
        <ele>331.4</ele>
        <time>2025-10-30T21:27:20Z</time>
      </trkpt>
      <trkpt lat="45.9985" lon="3.50963">
        <ele>335.5</ele>
        <time>2025-10-30T21:27:20Z</time>
      </trkpt>
      <trkpt lat="45.99841" lon="3.50996">
        <ele>337.3</ele>
        <time>2025-10-30T21:27:20Z</time>
      </trkpt>
      <trkpt lat="45.99835" lon="3.51017">
        <ele>338.5</ele>
        <time>2025-10-30T21:27:20Z</time>
      </trkpt>
      <trkpt lat="45.99834" lon="3.51022">
        <ele>339.1</ele>
        <time>2025-10-30T21:27:20Z</time>
      </trkpt>
      <trkpt lat="45.99833" lon="3.51024">
        <ele>339.5</ele>
        <time>2025-10-30T21:27:20Z</time>
      </trkpt>
      <trkpt lat="45.99832" lon="3.51025">
        <ele>339.5</ele>
        <time>2025-10-30T21:27:20Z</time>
      </trkpt>
      <trkpt lat="45.99828" lon="3.51026">
        <ele>339.9</ele>
        <time>2025-10-30T21:27:20Z</time>
      </trkpt>
      <trkpt lat="45.99824" lon="3.51027">
        <ele>340.5</ele>
        <time>2025-10-30T21:27:20Z</time>
      </trkpt>
      <trkpt lat="45.99818" lon="3.51028">
        <ele>340.7</ele>
        <time>2025-10-30T21:27:20Z</time>
      </trkpt>
      <trkpt lat="45.99816" lon="3.51028">
        <ele>340.8</ele>
        <time>2025-10-30T21:27:20Z</time>
      </trkpt>
      <trkpt lat="45.99814" lon="3.51029">
        <ele>340.8</ele>
        <time>2025-10-30T21:27:20Z</time>
      </trkpt>
      <trkpt lat="45.99813" lon="3.51029">
        <ele>340.8</ele>
        <time>2025-10-30T21:27:20Z</time>
      </trkpt>
      <trkpt lat="45.99811" lon="3.5103">
        <ele>340.9</ele>
        <time>2025-10-30T21:27:20Z</time>
      </trkpt>
      <trkpt lat="45.99808" lon="3.51033">
        <ele>341.3</ele>
        <time>2025-10-30T21:27:20Z</time>
      </trkpt>
      <trkpt lat="45.99801" lon="3.51046">
        <ele>341.8</ele>
        <time>2025-10-30T21:27:20Z</time>
      </trkpt>
      <trkpt lat="45.99792" lon="3.51062">
        <ele>343.1</ele>
        <time>2025-10-30T21:27:20Z</time>
      </trkpt>
      <trkpt lat="45.99778" lon="3.51092">
        <ele>345.3</ele>
        <time>2025-10-30T21:27:20Z</time>
      </trkpt>
      <trkpt lat="45.99757" lon="3.51134">
        <ele>348.7</ele>
        <time>2025-10-30T21:27:20Z</time>
      </trkpt>
      <trkpt lat="45.99745" lon="3.51159">
        <ele>350.6</ele>
        <time>2025-10-30T21:27:20Z</time>
      </trkpt>
      <trkpt lat="45.99731" lon="3.51192">
        <ele>353.3</ele>
        <time>2025-10-30T21:27:20Z</time>
      </trkpt>
      <trkpt lat="45.99726" lon="3.51205">
        <ele>354.4</ele>
        <time>2025-10-30T21:27:20Z</time>
      </trkpt>
      <trkpt lat="45.99722" lon="3.51214">
        <ele>355.1</ele>
        <time>2025-10-30T21:27:20Z</time>
      </trkpt>
      <trkpt lat="45.99721" lon="3.51216">
        <ele>355.3</ele>
        <time>2025-10-30T21:27:20Z</time>
      </trkpt>
      <trkpt lat="45.99719" lon="3.51217">
        <ele>355.3</ele>
        <time>2025-10-30T21:27:20Z</time>
      </trkpt>
      <trkpt lat="45.99718" lon="3.51218">
        <ele>355.6</ele>
        <time>2025-10-30T21:27:20Z</time>
      </trkpt>
      <trkpt lat="45.99717" lon="3.51222">
        <ele>355.8</ele>
        <time>2025-10-30T21:27:20Z</time>
      </trkpt>
      <trkpt lat="45.99715" lon="3.51227">
        <ele>356</ele>
        <time>2025-10-30T21:27:20Z</time>
      </trkpt>
      <trkpt lat="45.99712" lon="3.51233">
        <ele>356.7</ele>
        <time>2025-10-30T21:27:20Z</time>
      </trkpt>
      <trkpt lat="45.9971" lon="3.51237">
        <ele>357.1</ele>
        <time>2025-10-30T21:27:20Z</time>
      </trkpt>
      <trkpt lat="45.99706" lon="3.51244">
        <ele>357.4</ele>
        <time>2025-10-30T21:27:20Z</time>
      </trkpt>
      <trkpt lat="45.99696" lon="3.51256">
        <ele>359</ele>
        <time>2025-10-30T21:27:20Z</time>
      </trkpt>
      <trkpt lat="45.99687" lon="3.5127">
        <ele>360.5</ele>
        <time>2025-10-30T21:27:20Z</time>
      </trkpt>
      <trkpt lat="45.99684" lon="3.51273">
        <ele>360.8</ele>
        <time>2025-10-30T21:27:20Z</time>
      </trkpt>
      <trkpt lat="45.99681" lon="3.51277">
        <ele>361.7</ele>
        <time>2025-10-30T21:27:20Z</time>
      </trkpt>
      <trkpt lat="45.99684" lon="3.51297">
        <ele>363.7</ele>
        <time>2025-10-30T21:27:20Z</time>
      </trkpt>
      <trkpt lat="45.99687" lon="3.51312">
        <ele>365.7</ele>
        <time>2025-10-30T21:27:20Z</time>
      </trkpt>
      <trkpt lat="45.99685" lon="3.51324">
        <ele>366.9</ele>
        <time>2025-10-30T21:27:20Z</time>
      </trkpt>
      <trkpt lat="45.99682" lon="3.51335">
        <ele>369</ele>
        <time>2025-10-30T21:27:20Z</time>
      </trkpt>
      <trkpt lat="45.99681" lon="3.51348">
        <ele>370.3</ele>
        <time>2025-10-30T21:27:20Z</time>
      </trkpt>
      <trkpt lat="45.99685" lon="3.51361">
        <ele>373.2</ele>
        <time>2025-10-30T21:27:20Z</time>
      </trkpt>
      <trkpt lat="45.99691" lon="3.51368">
        <ele>371.9</ele>
        <time>2025-10-30T21:27:20Z</time>
      </trkpt>
      <trkpt lat="45.99693" lon="3.51378">
        <ele>370.7</ele>
        <time>2025-10-30T21:27:20Z</time>
      </trkpt>
      <trkpt lat="45.99692" lon="3.51388">
        <ele>372</ele>
        <time>2025-10-30T21:27:20Z</time>
      </trkpt>
      <trkpt lat="45.99687" lon="3.514">
        <ele>371.6</ele>
        <time>2025-10-30T21:27:20Z</time>
      </trkpt>
      <trkpt lat="45.99669" lon="3.51393">
        <ele>384.4</ele>
        <time>2025-10-30T21:27:20Z</time>
      </trkpt>
      <trkpt lat="45.99667" lon="3.51392">
        <ele>384.4</ele>
        <time>2025-10-30T21:27:20Z</time>
      </trkpt>
      <trkpt lat="45.99656" lon="3.51397">
        <ele>391</ele>
        <time>2025-10-30T21:27:20Z</time>
      </trkpt>
      <trkpt lat="45.99642" lon="3.51408">
        <ele>397.5</ele>
        <time>2025-10-30T21:27:20Z</time>
      </trkpt>
      <trkpt lat="45.99632" lon="3.51425">
        <ele>404.6</ele>
        <time>2025-10-30T21:27:20Z</time>
      </trkpt>
      <trkpt lat="45.99626" lon="3.51439">
        <ele>410.3</ele>
        <time>2025-10-30T21:27:20Z</time>
      </trkpt>
      <trkpt lat="45.99611" lon="3.51455">
        <ele>416.3</ele>
        <time>2025-10-30T21:27:20Z</time>
      </trkpt>
      <trkpt lat="45.9961" lon="3.51462">
        <ele>419.4</ele>
        <time>2025-10-30T21:27:20Z</time>
      </trkpt>
      <trkpt lat="45.99614" lon="3.51474">
        <ele>422.9</ele>
        <time>2025-10-30T21:27:20Z</time>
      </trkpt>
      <trkpt lat="45.99612" lon="3.51482">
        <ele>424.9</ele>
        <time>2025-10-30T21:27:20Z</time>
      </trkpt>
      <trkpt lat="45.99607" lon="3.51487">
        <ele>427.9</ele>
        <time>2025-10-30T21:27:20Z</time>
      </trkpt>
      <trkpt lat="45.996" lon="3.51493">
        <ele>431.7</ele>
        <time>2025-10-30T21:27:20Z</time>
      </trkpt>
      <trkpt lat="45.99593" lon="3.51497">
        <ele>434</ele>
        <time>2025-10-30T21:27:20Z</time>
      </trkpt>
      <trkpt lat="45.99592" lon="3.5151">
        <ele>440.1</ele>
        <time>2025-10-30T21:27:20Z</time>
      </trkpt>
      <trkpt lat="45.9959" lon="3.51524">
        <ele>445</ele>
        <time>2025-10-30T21:27:20Z</time>
      </trkpt>
      <trkpt lat="45.99584" lon="3.51533">
        <ele>446.5</ele>
        <time>2025-10-30T21:27:20Z</time>
      </trkpt>
      <trkpt lat="45.99583" lon="3.51548">
        <ele>451.8</ele>
        <time>2025-10-30T21:27:20Z</time>
      </trkpt>
      <trkpt lat="45.99581" lon="3.51568">
        <ele>455.5</ele>
        <time>2025-10-30T21:27:20Z</time>
      </trkpt>
      <trkpt lat="45.99581" lon="3.51593">
        <ele>458.4</ele>
        <time>2025-10-30T21:27:20Z</time>
      </trkpt>
      <trkpt lat="45.99576" lon="3.5161">
        <ele>458</ele>
        <time>2025-10-30T21:27:20Z</time>
      </trkpt>
      <trkpt lat="45.9957" lon="3.51626">
        <ele>459.1</ele>
        <time>2025-10-30T21:27:20Z</time>
      </trkpt>
      <trkpt lat="45.99565" lon="3.51647">
        <ele>461.7</ele>
        <time>2025-10-30T21:27:20Z</time>
      </trkpt>
      <trkpt lat="45.99562" lon="3.51668">
        <ele>464.1</ele>
        <time>2025-10-30T21:27:20Z</time>
      </trkpt>
      <trkpt lat="45.99569" lon="3.51686">
        <ele>465.4</ele>
        <time>2025-10-30T21:27:20Z</time>
      </trkpt>
      <trkpt lat="45.99572" lon="3.51709">
        <ele>468.3</ele>
        <time>2025-10-30T21:27:20Z</time>
      </trkpt>
      <trkpt lat="45.9957" lon="3.51716">
        <ele>468.7</ele>
        <time>2025-10-30T21:27:20Z</time>
      </trkpt>
      <trkpt lat="45.99568" lon="3.51726">
        <ele>470.2</ele>
        <time>2025-10-30T21:27:20Z</time>
      </trkpt>
      <trkpt lat="45.99548" lon="3.51803">
        <ele>475.5</ele>
        <time>2025-10-30T21:27:20Z</time>
      </trkpt>
      <trkpt lat="45.99533" lon="3.51848">
        <ele>477.8</ele>
        <time>2025-10-30T21:27:20Z</time>
      </trkpt>
      <trkpt lat="45.99525" lon="3.51862">
        <ele>479.6</ele>
        <time>2025-10-30T21:27:20Z</time>
      </trkpt>
      <trkpt lat="45.9951" lon="3.51888">
        <ele>481.9</ele>
        <time>2025-10-30T21:27:20Z</time>
      </trkpt>
      <trkpt lat="45.99504" lon="3.51905">
        <ele>484.2</ele>
        <time>2025-10-30T21:27:20Z</time>
      </trkpt>
      <trkpt lat="45.9949" lon="3.51945">
        <ele>489</ele>
        <time>2025-10-30T21:27:20Z</time>
      </trkpt>
      <trkpt lat="45.99483" lon="3.51958">
        <ele>490.1</ele>
        <time>2025-10-30T21:27:20Z</time>
      </trkpt>
      <trkpt lat="45.99469" lon="3.51997">
        <ele>494.2</ele>
        <time>2025-10-30T21:27:20Z</time>
      </trkpt>
      <trkpt lat="45.99458" lon="3.52033">
        <ele>497.2</ele>
        <time>2025-10-30T21:27:20Z</time>
      </trkpt>
      <trkpt lat="45.99456" lon="3.52046">
        <ele>498.7</ele>
        <time>2025-10-30T21:27:20Z</time>
      </trkpt>
      <trkpt lat="45.99454" lon="3.52056">
        <ele>498.6</ele>
        <time>2025-10-30T21:27:20Z</time>
      </trkpt>
      <trkpt lat="45.99448" lon="3.52067">
        <ele>500</ele>
        <time>2025-10-30T21:27:20Z</time>
      </trkpt>
      <trkpt lat="45.99432" lon="3.52087">
        <ele>502.8</ele>
        <time>2025-10-30T21:27:20Z</time>
      </trkpt>
      <trkpt lat="45.99419" lon="3.52102">
        <ele>503.9</ele>
        <time>2025-10-30T21:27:20Z</time>
      </trkpt>
      <trkpt lat="45.99411" lon="3.52118">
        <ele>504.2</ele>
        <time>2025-10-30T21:27:20Z</time>
      </trkpt>
      <trkpt lat="45.99407" lon="3.52141">
        <ele>504.4</ele>
        <time>2025-10-30T21:27:20Z</time>
      </trkpt>
      <trkpt lat="45.99401" lon="3.52167">
        <ele>505.4</ele>
        <time>2025-10-30T21:27:20Z</time>
      </trkpt>
      <trkpt lat="45.99399" lon="3.52182">
        <ele>506.4</ele>
        <time>2025-10-30T21:27:20Z</time>
      </trkpt>
      <trkpt lat="45.99397" lon="3.52195">
        <ele>507.2</ele>
        <time>2025-10-30T21:27:20Z</time>
      </trkpt>
      <trkpt lat="45.9939" lon="3.52191">
        <ele>506.4</ele>
        <time>2025-10-30T21:27:20Z</time>
      </trkpt>
      <trkpt lat="45.99362" lon="3.52184">
        <ele>508</ele>
        <time>2025-10-30T21:27:20Z</time>
      </trkpt>
      <trkpt lat="45.99354" lon="3.52184">
        <ele>508.4</ele>
        <time>2025-10-30T21:27:20Z</time>
      </trkpt>
      <trkpt lat="45.99347" lon="3.52186">
        <ele>509</ele>
        <time>2025-10-30T21:27:20Z</time>
      </trkpt>
      <trkpt lat="45.99331" lon="3.52196">
        <ele>509.1</ele>
        <time>2025-10-30T21:27:20Z</time>
      </trkpt>
      <trkpt lat="45.99306" lon="3.52223">
        <ele>508.7</ele>
        <time>2025-10-30T21:27:20Z</time>
      </trkpt>
      <trkpt lat="45.99294" lon="3.5224">
        <ele>510.3</ele>
        <time>2025-10-30T21:27:20Z</time>
      </trkpt>
      <trkpt lat="45.99281" lon="3.52253">
        <ele>510.6</ele>
        <time>2025-10-30T21:27:20Z</time>
      </trkpt>
      <trkpt lat="45.99275" lon="3.52261">
        <ele>511.2</ele>
        <time>2025-10-30T21:27:20Z</time>
      </trkpt>
      <trkpt lat="45.99266" lon="3.52271">
        <ele>513.8</ele>
        <time>2025-10-30T21:27:20Z</time>
      </trkpt>
      <trkpt lat="45.99256" lon="3.52274">
        <ele>513</ele>
        <time>2025-10-30T21:27:20Z</time>
      </trkpt>
      <trkpt lat="45.99243" lon="3.52259">
        <ele>511.8</ele>
        <time>2025-10-30T21:27:20Z</time>
      </trkpt>
      <trkpt lat="45.99238" lon="3.52238">
        <ele>511.7</ele>
        <time>2025-10-30T21:27:20Z</time>
      </trkpt>
      <trkpt lat="45.99225" lon="3.52218">
        <ele>511.9</ele>
        <time>2025-10-30T21:27:20Z</time>
      </trkpt>
      <trkpt lat="45.99202" lon="3.52199">
        <ele>511.8</ele>
        <time>2025-10-30T21:27:20Z</time>
      </trkpt>
      <trkpt lat="45.9913" lon="3.52167">
        <ele>509.3</ele>
        <time>2025-10-30T21:27:20Z</time>
      </trkpt>
      <trkpt lat="45.99128" lon="3.52163">
        <ele>509.1</ele>
        <time>2025-10-30T21:27:20Z</time>
      </trkpt>
      <trkpt lat="45.99126" lon="3.5216">
        <ele>509.1</ele>
        <time>2025-10-30T21:27:20Z</time>
      </trkpt>
      <trkpt lat="45.99119" lon="3.52158">
        <ele>508.3</ele>
        <time>2025-10-30T21:27:20Z</time>
      </trkpt>
      <trkpt lat="45.99107" lon="3.52154">
        <ele>507.3</ele>
        <time>2025-10-30T21:27:20Z</time>
      </trkpt>
      <trkpt lat="45.99088" lon="3.52146">
        <ele>505.6</ele>
        <time>2025-10-30T21:27:20Z</time>
      </trkpt>
      <trkpt lat="45.99073" lon="3.52137">
        <ele>504.5</ele>
        <time>2025-10-30T21:27:20Z</time>
      </trkpt>
      <trkpt lat="45.99062" lon="3.52127">
        <ele>503.5</ele>
        <time>2025-10-30T21:27:20Z</time>
      </trkpt>
      <trkpt lat="45.99059" lon="3.52125">
        <ele>503.6</ele>
        <time>2025-10-30T21:27:20Z</time>
      </trkpt>
      <trkpt lat="45.99028" lon="3.52102">
        <ele>500.9</ele>
        <time>2025-10-30T21:27:20Z</time>
      </trkpt>
      <trkpt lat="45.98999" lon="3.52085">
        <ele>498.3</ele>
        <time>2025-10-30T21:27:20Z</time>
      </trkpt>
      <trkpt lat="45.9897" lon="3.5207">
        <ele>495.8</ele>
        <time>2025-10-30T21:27:20Z</time>
      </trkpt>
      <trkpt lat="45.98959" lon="3.52064">
        <ele>494.7</ele>
        <time>2025-10-30T21:27:20Z</time>
      </trkpt>
      <trkpt lat="45.98948" lon="3.52061">
        <ele>494.1</ele>
        <time>2025-10-30T21:27:20Z</time>
      </trkpt>
      <trkpt lat="45.98926" lon="3.52052">
        <ele>492.2</ele>
        <time>2025-10-30T21:27:20Z</time>
      </trkpt>
      <trkpt lat="45.98901" lon="3.52045">
        <ele>489.3</ele>
        <time>2025-10-30T21:27:20Z</time>
      </trkpt>
      <trkpt lat="45.98877" lon="3.52033">
        <ele>486.8</ele>
        <time>2025-10-30T21:27:20Z</time>
      </trkpt>
      <trkpt lat="45.98868" lon="3.52028">
        <ele>485.2</ele>
        <time>2025-10-30T21:27:20Z</time>
      </trkpt>
      <trkpt lat="45.98858" lon="3.52026">
        <ele>484.5</ele>
        <time>2025-10-30T21:27:20Z</time>
      </trkpt>
      <trkpt lat="45.98848" lon="3.52026">
        <ele>483.6</ele>
        <time>2025-10-30T21:27:20Z</time>
      </trkpt>
      <trkpt lat="45.98839" lon="3.52028">
        <ele>482.6</ele>
        <time>2025-10-30T21:27:20Z</time>
      </trkpt>
      <trkpt lat="45.98823" lon="3.52032">
        <ele>480.9</ele>
        <time>2025-10-30T21:27:20Z</time>
      </trkpt>
      <trkpt lat="45.98818" lon="3.52035">
        <ele>481.1</ele>
        <time>2025-10-30T21:27:20Z</time>
      </trkpt>
      <trkpt lat="45.98814" lon="3.52038">
        <ele>480.5</ele>
        <time>2025-10-30T21:27:20Z</time>
      </trkpt>
      <trkpt lat="45.98809" lon="3.52042">
        <ele>480.8</ele>
        <time>2025-10-30T21:27:20Z</time>
      </trkpt>
      <trkpt lat="45.98805" lon="3.52046">
        <ele>480</ele>
        <time>2025-10-30T21:27:20Z</time>
      </trkpt>
      <trkpt lat="45.98799" lon="3.52052">
        <ele>480.2</ele>
        <time>2025-10-30T21:27:20Z</time>
      </trkpt>
      <trkpt lat="45.98792" lon="3.52059">
        <ele>480.7</ele>
        <time>2025-10-30T21:27:20Z</time>
      </trkpt>
      <trkpt lat="45.98787" lon="3.52065">
        <ele>481.6</ele>
        <time>2025-10-30T21:27:20Z</time>
      </trkpt>
      <trkpt lat="45.98786" lon="3.52066">
        <ele>481</ele>
        <time>2025-10-30T21:27:20Z</time>
      </trkpt>
      <trkpt lat="45.98783" lon="3.52067">
        <ele>481</ele>
        <time>2025-10-30T21:27:20Z</time>
      </trkpt>
      <trkpt lat="45.98783" lon="3.52075">
        <ele>482</ele>
        <time>2025-10-30T21:27:20Z</time>
      </trkpt>
      <trkpt lat="45.98781" lon="3.52091">
        <ele>483.1</ele>
        <time>2025-10-30T21:27:20Z</time>
      </trkpt>
      <trkpt lat="45.98778" lon="3.52106">
        <ele>483</ele>
        <time>2025-10-30T21:27:20Z</time>
      </trkpt>
      <trkpt lat="45.98773" lon="3.52128">
        <ele>483.8</ele>
        <time>2025-10-30T21:27:20Z</time>
      </trkpt>
      <trkpt lat="45.98769" lon="3.52142">
        <ele>485.2</ele>
        <time>2025-10-30T21:27:20Z</time>
      </trkpt>
      <trkpt lat="45.98763" lon="3.52157">
        <ele>486.3</ele>
        <time>2025-10-30T21:27:20Z</time>
      </trkpt>
      <trkpt lat="45.98757" lon="3.52167">
        <ele>487</ele>
        <time>2025-10-30T21:27:20Z</time>
      </trkpt>
      <trkpt lat="45.98747" lon="3.52179">
        <ele>486.7</ele>
        <time>2025-10-30T21:27:20Z</time>
      </trkpt>
      <trkpt lat="45.98727" lon="3.52203">
        <ele>488.1</ele>
        <time>2025-10-30T21:27:20Z</time>
      </trkpt>
      <trkpt lat="45.98709" lon="3.52219">
        <ele>489.2</ele>
        <time>2025-10-30T21:27:20Z</time>
      </trkpt>
      <trkpt lat="45.9869" lon="3.52241">
        <ele>490.4</ele>
        <time>2025-10-30T21:27:20Z</time>
      </trkpt>
      <trkpt lat="45.98683" lon="3.5225">
        <ele>489.8</ele>
        <time>2025-10-30T21:27:20Z</time>
      </trkpt>
      <trkpt lat="45.98679" lon="3.52259">
        <ele>489.3</ele>
        <time>2025-10-30T21:27:20Z</time>
      </trkpt>
      <trkpt lat="45.98678" lon="3.52262">
        <ele>489.3</ele>
        <time>2025-10-30T21:27:20Z</time>
      </trkpt>
      <trkpt lat="45.98674" lon="3.52282">
        <ele>490</ele>
        <time>2025-10-30T21:27:20Z</time>
      </trkpt>
      <trkpt lat="45.98671" lon="3.52303">
        <ele>491</ele>
        <time>2025-10-30T21:27:20Z</time>
      </trkpt>
      <trkpt lat="45.98671" lon="3.52317">
        <ele>491.3</ele>
        <time>2025-10-30T21:27:20Z</time>
      </trkpt>
      <trkpt lat="45.98649" lon="3.52372">
        <ele>483.6</ele>
        <time>2025-10-30T21:27:20Z</time>
      </trkpt>
      <trkpt lat="45.98621" lon="3.52354">
        <ele>472.6</ele>
        <time>2025-10-30T21:27:20Z</time>
      </trkpt>
      <trkpt lat="45.98641" lon="3.52315">
        <ele>478.6</ele>
        <time>2025-10-30T21:27:20Z</time>
      </trkpt>
      <trkpt lat="45.98611" lon="3.52292">
        <ele>466</ele>
        <time>2025-10-30T21:27:20Z</time>
      </trkpt>
      <trkpt lat="45.98625" lon="3.5226">
        <ele>471.4</ele>
        <time>2025-10-30T21:27:20Z</time>
      </trkpt>
      <trkpt lat="45.98589" lon="3.52229">
        <ele>454.1</ele>
        <time>2025-10-30T21:27:20Z</time>
      </trkpt>
      <trkpt lat="45.98541" lon="3.52243">
        <ele>432</ele>
        <time>2025-10-30T21:27:20Z</time>
      </trkpt>
      <trkpt lat="45.98459" lon="3.52119">
        <ele>397.2</ele>
        <time>2025-10-30T21:27:20Z</time>
      </trkpt>
      <trkpt lat="45.98389" lon="3.52053">
        <ele>382.9</ele>
        <time>2025-10-30T21:27:20Z</time>
      </trkpt>
      <trkpt lat="45.9839" lon="3.52063">
        <ele>383.7</ele>
        <time>2025-10-30T21:27:20Z</time>
      </trkpt>
      <trkpt lat="45.98373" lon="3.52068">
        <ele>382.7</ele>
        <time>2025-10-30T21:27:20Z</time>
      </trkpt>
      <trkpt lat="45.98371" lon="3.52049">
        <ele>379.9</ele>
        <time>2025-10-30T21:27:20Z</time>
      </trkpt>
      <trkpt lat="45.98368" lon="3.52031">
        <ele>377.9</ele>
        <time>2025-10-30T21:27:20Z</time>
      </trkpt>
      <trkpt lat="45.9836" lon="3.52014">
        <ele>375.4</ele>
        <time>2025-10-30T21:27:20Z</time>
      </trkpt>
      <trkpt lat="45.98352" lon="3.51999">
        <ele>373.2</ele>
        <time>2025-10-30T21:27:20Z</time>
      </trkpt>
      <trkpt lat="45.98345" lon="3.51993">
        <ele>372.1</ele>
        <time>2025-10-30T21:27:20Z</time>
      </trkpt>
      <trkpt lat="45.98328" lon="3.51985">
        <ele>368.8</ele>
        <time>2025-10-30T21:27:20Z</time>
      </trkpt>
      <trkpt lat="45.98321" lon="3.51982">
        <ele>367.2</ele>
        <time>2025-10-30T21:27:20Z</time>
      </trkpt>
      <trkpt lat="45.98314" lon="3.5197">
        <ele>365.1</ele>
        <time>2025-10-30T21:27:20Z</time>
      </trkpt>
      <trkpt lat="45.98304" lon="3.51959">
        <ele>363.5</ele>
        <time>2025-10-30T21:27:20Z</time>
      </trkpt>
      <trkpt lat="45.98288" lon="3.51946">
        <ele>360.6</ele>
        <time>2025-10-30T21:27:20Z</time>
      </trkpt>
      <trkpt lat="45.98268" lon="3.51929">
        <ele>357.9</ele>
        <time>2025-10-30T21:27:20Z</time>
      </trkpt>
      <trkpt lat="45.98249" lon="3.51908">
        <ele>354.5</ele>
        <time>2025-10-30T21:27:20Z</time>
      </trkpt>
      <trkpt lat="45.98233" lon="3.51891">
        <ele>351.9</ele>
        <time>2025-10-30T21:27:20Z</time>
      </trkpt>
      <trkpt lat="45.98221" lon="3.51878">
        <ele>350.5</ele>
        <time>2025-10-30T21:27:20Z</time>
      </trkpt>
      <trkpt lat="45.98216" lon="3.51866">
        <ele>348.6</ele>
        <time>2025-10-30T21:27:20Z</time>
      </trkpt>
      <trkpt lat="45.98211" lon="3.51843">
        <ele>346.6</ele>
        <time>2025-10-30T21:27:20Z</time>
      </trkpt>
      <trkpt lat="45.9821" lon="3.51832">
        <ele>345.8</ele>
        <time>2025-10-30T21:27:20Z</time>
      </trkpt>
      <trkpt lat="45.98207" lon="3.51812">
        <ele>343.5</ele>
        <time>2025-10-30T21:27:20Z</time>
      </trkpt>
      <trkpt lat="45.98206" lon="3.51806">
        <ele>342.9</ele>
        <time>2025-10-30T21:27:20Z</time>
      </trkpt>
      <trkpt lat="45.98205" lon="3.51803">
        <ele>342.9</ele>
        <time>2025-10-30T21:27:20Z</time>
      </trkpt>
      <trkpt lat="45.98203" lon="3.51802">
        <ele>341.8</ele>
        <time>2025-10-30T21:27:20Z</time>
      </trkpt>
      <trkpt lat="45.98202" lon="3.518">
        <ele>341.8</ele>
        <time>2025-10-30T21:27:20Z</time>
      </trkpt>
      <trkpt lat="45.982" lon="3.51799">
        <ele>341.8</ele>
        <time>2025-10-30T21:27:20Z</time>
      </trkpt>
      <trkpt lat="45.98198" lon="3.51799">
        <ele>341.1</ele>
        <time>2025-10-30T21:27:20Z</time>
      </trkpt>
      <trkpt lat="45.98196" lon="3.51798">
        <ele>340.9</ele>
        <time>2025-10-30T21:27:20Z</time>
      </trkpt>
      <trkpt lat="45.98189" lon="3.51798">
        <ele>339.5</ele>
        <time>2025-10-30T21:27:20Z</time>
      </trkpt>
      <trkpt lat="45.98182" lon="3.51798">
        <ele>338.8</ele>
        <time>2025-10-30T21:27:20Z</time>
      </trkpt>
      <trkpt lat="45.98181" lon="3.51797">
        <ele>338.2</ele>
        <time>2025-10-30T21:27:20Z</time>
      </trkpt>
      <trkpt lat="45.98178" lon="3.51795">
        <ele>338.2</ele>
        <time>2025-10-30T21:27:20Z</time>
      </trkpt>
      <trkpt lat="45.98176" lon="3.51793">
        <ele>337.4</ele>
        <time>2025-10-30T21:27:20Z</time>
      </trkpt>
      <trkpt lat="45.98173" lon="3.51791">
        <ele>336.9</ele>
        <time>2025-10-30T21:27:20Z</time>
      </trkpt>
      <trkpt lat="45.9817" lon="3.51786">
        <ele>336.6</ele>
        <time>2025-10-30T21:27:20Z</time>
      </trkpt>
      <trkpt lat="45.98161" lon="3.51775">
        <ele>334.9</ele>
        <time>2025-10-30T21:27:20Z</time>
      </trkpt>
      <trkpt lat="45.98151" lon="3.5176">
        <ele>332.5</ele>
        <time>2025-10-30T21:27:20Z</time>
      </trkpt>
      <trkpt lat="45.98137" lon="3.51742">
        <ele>329.8</ele>
        <time>2025-10-30T21:27:20Z</time>
      </trkpt>
      <trkpt lat="45.98122" lon="3.51722">
        <ele>327.6</ele>
        <time>2025-10-30T21:27:20Z</time>
      </trkpt>
      <trkpt lat="45.98121" lon="3.5172">
        <ele>326.8</ele>
        <time>2025-10-30T21:27:20Z</time>
      </trkpt>
      <trkpt lat="45.98114" lon="3.51711">
        <ele>325.9</ele>
        <time>2025-10-30T21:27:20Z</time>
      </trkpt>
      <trkpt lat="45.98105" lon="3.5172">
        <ele>325.2</ele>
        <time>2025-10-30T21:27:20Z</time>
      </trkpt>
      <trkpt lat="45.981" lon="3.51724">
        <ele>324.5</ele>
        <time>2025-10-30T21:27:20Z</time>
      </trkpt>
      <trkpt lat="45.98098" lon="3.51725">
        <ele>324.5</ele>
        <time>2025-10-30T21:27:20Z</time>
      </trkpt>
      <trkpt lat="45.98092" lon="3.5173">
        <ele>324.2</ele>
        <time>2025-10-30T21:27:20Z</time>
      </trkpt>
      <trkpt lat="45.98094" lon="3.51689">
        <ele>322.8</ele>
        <time>2025-10-30T21:27:20Z</time>
      </trkpt>
      <trkpt lat="45.98144" lon="3.51629">
        <ele>322.5</ele>
        <time>2025-10-30T21:27:20Z</time>
      </trkpt>
      <trkpt lat="45.98167" lon="3.51569">
        <ele>321.4</ele>
        <time>2025-10-30T21:27:20Z</time>
      </trkpt>
      <trkpt lat="45.98212" lon="3.51532">
        <ele>321.4</ele>
        <time>2025-10-30T21:27:20Z</time>
      </trkpt>
      <trkpt lat="45.98148" lon="3.51433">
        <ele>306.4</ele>
        <time>2025-10-30T21:27:20Z</time>
      </trkpt>
      <trkpt lat="45.98148" lon="3.51434">
        <ele>306.6</ele>
        <time>2025-10-30T21:27:20Z</time>
      </trkpt>
      <trkpt lat="45.98146" lon="3.51432">
        <ele>306.2</ele>
        <time>2025-10-30T21:27:20Z</time>
      </trkpt>
      <trkpt lat="45.98149" lon="3.51428">
        <ele>306.3</ele>
        <time>2025-10-30T21:27:20Z</time>
      </trkpt>
      <trkpt lat="45.98158" lon="3.51412">
        <ele>305.9</ele>
        <time>2025-10-30T21:27:20Z</time>
      </trkpt>
      <trkpt lat="45.98166" lon="3.514">
        <ele>305.5</ele>
        <time>2025-10-30T21:27:20Z</time>
      </trkpt>
      <trkpt lat="45.98169" lon="3.51395">
        <ele>305.3</ele>
        <time>2025-10-30T21:27:20Z</time>
      </trkpt>
      <trkpt lat="45.98172" lon="3.51391">
        <ele>305.3</ele>
        <time>2025-10-30T21:27:20Z</time>
      </trkpt>
      <trkpt lat="45.98176" lon="3.51379">
        <ele>305.1</ele>
        <time>2025-10-30T21:27:20Z</time>
      </trkpt>
      <trkpt lat="45.98192" lon="3.51334">
        <ele>304.8</ele>
        <time>2025-10-30T21:27:20Z</time>
      </trkpt>
      <trkpt lat="45.98209" lon="3.5129">
        <ele>304.4</ele>
        <time>2025-10-30T21:27:20Z</time>
      </trkpt>
      <trkpt lat="45.98215" lon="3.51273">
        <ele>304.2</ele>
        <time>2025-10-30T21:27:20Z</time>
      </trkpt>
      <trkpt lat="45.9822" lon="3.5126">
        <ele>304.1</ele>
        <time>2025-10-30T21:27:20Z</time>
      </trkpt>
      <trkpt lat="45.98223" lon="3.51252">
        <ele>304</ele>
        <time>2025-10-30T21:27:20Z</time>
      </trkpt>
      <trkpt lat="45.98227" lon="3.51241">
        <ele>304</ele>
        <time>2025-10-30T21:27:20Z</time>
      </trkpt>
      <trkpt lat="45.98231" lon="3.51226">
        <ele>303.6</ele>
        <time>2025-10-30T21:27:20Z</time>
      </trkpt>
      <trkpt lat="45.98233" lon="3.51217">
        <ele>303.4</ele>
        <time>2025-10-30T21:27:20Z</time>
      </trkpt>
      <trkpt lat="45.98236" lon="3.512">
        <ele>303.3</ele>
        <time>2025-10-30T21:27:20Z</time>
      </trkpt>
      <trkpt lat="45.98239" lon="3.51193">
        <ele>303.1</ele>
        <time>2025-10-30T21:27:20Z</time>
      </trkpt>
      <trkpt lat="45.9824" lon="3.51191">
        <ele>303.1</ele>
        <time>2025-10-30T21:27:20Z</time>
      </trkpt>
      <trkpt lat="45.98242" lon="3.51189">
        <ele>302.9</ele>
        <time>2025-10-30T21:27:20Z</time>
      </trkpt>
      <trkpt lat="45.98244" lon="3.51187">
        <ele>302.9</ele>
        <time>2025-10-30T21:27:20Z</time>
      </trkpt>
      <trkpt lat="45.98246" lon="3.51186">
        <ele>302.9</ele>
        <time>2025-10-30T21:27:20Z</time>
      </trkpt>
      <trkpt lat="45.98248" lon="3.51185">
        <ele>302.8</ele>
        <time>2025-10-30T21:27:20Z</time>
      </trkpt>
      <trkpt lat="45.98251" lon="3.51183">
        <ele>302.8</ele>
        <time>2025-10-30T21:27:20Z</time>
      </trkpt>
      <trkpt lat="45.98256" lon="3.5118">
        <ele>302.5</ele>
        <time>2025-10-30T21:27:20Z</time>
      </trkpt>
      <trkpt lat="45.98262" lon="3.51178">
        <ele>302.6</ele>
        <time>2025-10-30T21:27:20Z</time>
      </trkpt>
      <trkpt lat="45.98265" lon="3.51176">
        <ele>302.2</ele>
        <time>2025-10-30T21:27:20Z</time>
      </trkpt>
      <trkpt lat="45.98268" lon="3.51173">
        <ele>302.4</ele>
        <time>2025-10-30T21:27:20Z</time>
      </trkpt>
      <trkpt lat="45.98272" lon="3.5117">
        <ele>302.4</ele>
        <time>2025-10-30T21:27:20Z</time>
      </trkpt>
      <trkpt lat="45.98276" lon="3.51166">
        <ele>302.3</ele>
        <time>2025-10-30T21:27:20Z</time>
      </trkpt>
      <trkpt lat="45.98279" lon="3.51162">
        <ele>302.3</ele>
        <time>2025-10-30T21:27:20Z</time>
      </trkpt>
      <trkpt lat="45.98281" lon="3.51159">
        <ele>302.2</ele>
        <time>2025-10-30T21:27:20Z</time>
      </trkpt>
      <trkpt lat="45.98283" lon="3.51157">
        <ele>302.2</ele>
        <time>2025-10-30T21:27:20Z</time>
      </trkpt>
      <trkpt lat="45.98285" lon="3.51154">
        <ele>302.2</ele>
        <time>2025-10-30T21:27:20Z</time>
      </trkpt>
      <trkpt lat="45.98287" lon="3.51151">
        <ele>302.2</ele>
        <time>2025-10-30T21:27:20Z</time>
      </trkpt>
      <trkpt lat="45.98289" lon="3.51148">
        <ele>301.9</ele>
        <time>2025-10-30T21:27:20Z</time>
      </trkpt>
      <trkpt lat="45.98301" lon="3.51137">
        <ele>301.8</ele>
        <time>2025-10-30T21:27:20Z</time>
      </trkpt>
      <trkpt lat="45.98313" lon="3.51125">
        <ele>302.1</ele>
        <time>2025-10-30T21:27:20Z</time>
      </trkpt>
      <trkpt lat="45.98318" lon="3.51119">
        <ele>301.9</ele>
        <time>2025-10-30T21:27:20Z</time>
      </trkpt>
      <trkpt lat="45.98327" lon="3.51109">
        <ele>301.9</ele>
        <time>2025-10-30T21:27:20Z</time>
      </trkpt>
      <trkpt lat="45.98333" lon="3.51103">
        <ele>301.8</ele>
        <time>2025-10-30T21:27:20Z</time>
      </trkpt>
      <trkpt lat="45.98338" lon="3.51097">
        <ele>301.9</ele>
        <time>2025-10-30T21:27:20Z</time>
      </trkpt>
      <trkpt lat="45.98342" lon="3.51091">
        <ele>302</ele>
        <time>2025-10-30T21:27:20Z</time>
      </trkpt>
      <trkpt lat="45.98345" lon="3.51086">
        <ele>301.9</ele>
        <time>2025-10-30T21:27:20Z</time>
      </trkpt>
      <trkpt lat="45.98347" lon="3.5108">
        <ele>301.8</ele>
        <time>2025-10-30T21:27:20Z</time>
      </trkpt>
      <trkpt lat="45.98349" lon="3.51075">
        <ele>301.7</ele>
        <time>2025-10-30T21:27:20Z</time>
      </trkpt>
      <trkpt lat="45.98351" lon="3.51066">
        <ele>301.7</ele>
        <time>2025-10-30T21:27:20Z</time>
      </trkpt>
      <trkpt lat="45.98353" lon="3.51056">
        <ele>301.8</ele>
        <time>2025-10-30T21:27:20Z</time>
      </trkpt>
      <trkpt lat="45.98359" lon="3.51033">
        <ele>301.6</ele>
        <time>2025-10-30T21:27:20Z</time>
      </trkpt>
      <trkpt lat="45.98366" lon="3.51025">
        <ele>301.5</ele>
        <time>2025-10-30T21:27:20Z</time>
      </trkpt>
      <trkpt lat="45.98375" lon="3.51018">
        <ele>300.9</ele>
        <time>2025-10-30T21:27:20Z</time>
      </trkpt>
      <trkpt lat="45.98389" lon="3.51002">
        <ele>301.7</ele>
        <time>2025-10-30T21:27:20Z</time>
      </trkpt>
      <trkpt lat="45.98405" lon="3.50987">
        <ele>301.6</ele>
        <time>2025-10-30T21:27:20Z</time>
      </trkpt>
      <trkpt lat="45.98399" lon="3.50972">
        <ele>300.5</ele>
        <time>2025-10-30T21:27:20Z</time>
      </trkpt>
      <trkpt lat="45.98393" lon="3.50954">
        <ele>299.6</ele>
        <time>2025-10-30T21:27:20Z</time>
      </trkpt>
      <trkpt lat="45.98391" lon="3.50948">
        <ele>299.2</ele>
        <time>2025-10-30T21:27:20Z</time>
      </trkpt>
      <trkpt lat="45.98389" lon="3.50943">
        <ele>299</ele>
        <time>2025-10-30T21:27:20Z</time>
      </trkpt>
      <trkpt lat="45.98387" lon="3.50939">
        <ele>298.9</ele>
        <time>2025-10-30T21:27:20Z</time>
      </trkpt>
      <trkpt lat="45.98385" lon="3.50937">
        <ele>298.9</ele>
        <time>2025-10-30T21:27:20Z</time>
      </trkpt>
      <trkpt lat="45.98383" lon="3.50935">
        <ele>298.8</ele>
        <time>2025-10-30T21:27:20Z</time>
      </trkpt>
      <trkpt lat="45.9838" lon="3.50933">
        <ele>298.8</ele>
        <time>2025-10-30T21:27:20Z</time>
      </trkpt>
      <trkpt lat="45.98377" lon="3.50932">
        <ele>298.8</ele>
        <time>2025-10-30T21:27:20Z</time>
      </trkpt>
      <trkpt lat="45.98374" lon="3.50932">
        <ele>298.7</ele>
        <time>2025-10-30T21:27:20Z</time>
      </trkpt>
      <trkpt lat="45.98369" lon="3.50932">
        <ele>298.6</ele>
        <time>2025-10-30T21:27:20Z</time>
      </trkpt>
      <trkpt lat="45.98364" lon="3.50932">
        <ele>298.7</ele>
        <time>2025-10-30T21:27:20Z</time>
      </trkpt>
      <trkpt lat="45.9836" lon="3.50935">
        <ele>298.7</ele>
        <time>2025-10-30T21:27:20Z</time>
      </trkpt>
      <trkpt lat="45.98348" lon="3.50943">
        <ele>298.9</ele>
        <time>2025-10-30T21:27:20Z</time>
      </trkpt>
      <trkpt lat="45.98325" lon="3.50961">
        <ele>299</ele>
        <time>2025-10-30T21:27:20Z</time>
      </trkpt>
      <trkpt lat="45.98309" lon="3.50975">
        <ele>299.1</ele>
        <time>2025-10-30T21:27:20Z</time>
      </trkpt>
      <trkpt lat="45.98303" lon="3.50978">
        <ele>299.2</ele>
        <time>2025-10-30T21:27:20Z</time>
      </trkpt>
      <trkpt lat="45.983" lon="3.50979">
        <ele>299.4</ele>
        <time>2025-10-30T21:27:20Z</time>
      </trkpt>
      <trkpt lat="45.98298" lon="3.50979">
        <ele>299.4</ele>
        <time>2025-10-30T21:27:20Z</time>
      </trkpt>
      <trkpt lat="45.98295" lon="3.50978">
        <ele>299.5</ele>
        <time>2025-10-30T21:27:20Z</time>
      </trkpt>
      <trkpt lat="45.98293" lon="3.50977">
        <ele>299.6</ele>
        <time>2025-10-30T21:27:20Z</time>
      </trkpt>
      <trkpt lat="45.98291" lon="3.50976">
        <ele>299.6</ele>
        <time>2025-10-30T21:27:20Z</time>
      </trkpt>
      <trkpt lat="45.9829" lon="3.50974">
        <ele>299.6</ele>
        <time>2025-10-30T21:27:20Z</time>
      </trkpt>
      <trkpt lat="45.98287" lon="3.50971">
        <ele>299.6</ele>
        <time>2025-10-30T21:27:20Z</time>
      </trkpt>
      <trkpt lat="45.98285" lon="3.50969">
        <ele>299.5</ele>
        <time>2025-10-30T21:27:20Z</time>
      </trkpt>
      <trkpt lat="45.98283" lon="3.50966">
        <ele>299.5</ele>
        <time>2025-10-30T21:27:20Z</time>
      </trkpt>
      <trkpt lat="45.98276" lon="3.50955">
        <ele>299.4</ele>
        <time>2025-10-30T21:27:20Z</time>
      </trkpt>
      <trkpt lat="45.9827" lon="3.50944">
        <ele>299.3</ele>
        <time>2025-10-30T21:27:20Z</time>
      </trkpt>
      <trkpt lat="45.98267" lon="3.50934">
        <ele>299.3</ele>
        <time>2025-10-30T21:27:20Z</time>
      </trkpt>
      <trkpt lat="45.98265" lon="3.50926">
        <ele>299.3</ele>
        <time>2025-10-30T21:27:20Z</time>
      </trkpt>
      <trkpt lat="45.98263" lon="3.50917">
        <ele>299.4</ele>
        <time>2025-10-30T21:27:20Z</time>
      </trkpt>
      <trkpt lat="45.98263" lon="3.50908">
        <ele>299.4</ele>
        <time>2025-10-30T21:27:20Z</time>
      </trkpt>
      <trkpt lat="45.98263" lon="3.50898">
        <ele>299.3</ele>
        <time>2025-10-30T21:27:20Z</time>
      </trkpt>
      <trkpt lat="45.98264" lon="3.50893">
        <ele>299.4</ele>
        <time>2025-10-30T21:27:20Z</time>
      </trkpt>
      <trkpt lat="45.98266" lon="3.50882">
        <ele>299.2</ele>
        <time>2025-10-30T21:27:20Z</time>
      </trkpt>
      <trkpt lat="45.98267" lon="3.50873">
        <ele>299.2</ele>
        <time>2025-10-30T21:27:20Z</time>
      </trkpt>
      <trkpt lat="45.98267" lon="3.50869">
        <ele>299.2</ele>
        <time>2025-10-30T21:27:20Z</time>
      </trkpt>
      <trkpt lat="45.98267" lon="3.50866">
        <ele>299.2</ele>
        <time>2025-10-30T21:27:20Z</time>
      </trkpt>
      <trkpt lat="45.98267" lon="3.50862">
        <ele>299.2</ele>
        <time>2025-10-30T21:27:20Z</time>
      </trkpt>
      <trkpt lat="45.98266" lon="3.50856">
        <ele>299.3</ele>
        <time>2025-10-30T21:27:20Z</time>
      </trkpt>
      <trkpt lat="45.98265" lon="3.50853">
        <ele>299.3</ele>
        <time>2025-10-30T21:27:20Z</time>
      </trkpt>
      <trkpt lat="45.98263" lon="3.50849">
        <ele>299.1</ele>
        <time>2025-10-30T21:27:20Z</time>
      </trkpt>
      <trkpt lat="45.9826" lon="3.50845">
        <ele>298.6</ele>
        <time>2025-10-30T21:27:20Z</time>
      </trkpt>
      <trkpt lat="45.98257" lon="3.50843">
        <ele>298</ele>
        <time>2025-10-30T21:27:20Z</time>
      </trkpt>
      <trkpt lat="45.98254" lon="3.50841">
        <ele>299.7</ele>
        <time>2025-10-30T21:27:20Z</time>
      </trkpt>
      <trkpt lat="45.98248" lon="3.50838">
        <ele>300.1</ele>
        <time>2025-10-30T21:27:20Z</time>
      </trkpt>
      <trkpt lat="45.98248" lon="3.5084">
        <ele>300.1</ele>
        <time>2025-10-30T21:27:20Z</time>
      </trkpt>
      <trkpt lat="45.98249" lon="3.50846">
        <ele>299.9</ele>
        <time>2025-10-30T21:27:20Z</time>
      </trkpt>
      <trkpt lat="45.98249" lon="3.50851">
        <ele>299.7</ele>
        <time>2025-10-30T21:27:20Z</time>
      </trkpt>
      <trkpt lat="45.98247" lon="3.50863">
        <ele>299.3</ele>
        <time>2025-10-30T21:27:20Z</time>
      </trkpt>
      <trkpt lat="45.98238" lon="3.50905">
        <ele>299.3</ele>
        <time>2025-10-30T21:27:20Z</time>
      </trkpt>
      <trkpt lat="45.98222" lon="3.50972">
        <ele>299.7</ele>
        <time>2025-10-30T21:27:20Z</time>
      </trkpt>
      <trkpt lat="45.98214" lon="3.51002">
        <ele>300</ele>
        <time>2025-10-30T21:27:20Z</time>
      </trkpt>
      <trkpt lat="45.98208" lon="3.51029">
        <ele>300.2</ele>
        <time>2025-10-30T21:27:20Z</time>
      </trkpt>
      <trkpt lat="45.98201" lon="3.51051">
        <ele>300.4</ele>
        <time>2025-10-30T21:27:20Z</time>
      </trkpt>
      <trkpt lat="45.9819" lon="3.51085">
        <ele>300.7</ele>
        <time>2025-10-30T21:27:20Z</time>
      </trkpt>
      <trkpt lat="45.98181" lon="3.51114">
        <ele>300.9</ele>
        <time>2025-10-30T21:27:20Z</time>
      </trkpt>
      <trkpt lat="45.9817" lon="3.51153">
        <ele>301.2</ele>
        <time>2025-10-30T21:27:20Z</time>
      </trkpt>
      <trkpt lat="45.98163" lon="3.51176">
        <ele>301.5</ele>
        <time>2025-10-30T21:27:20Z</time>
      </trkpt>
      <trkpt lat="45.98161" lon="3.51183">
        <ele>301.5</ele>
        <time>2025-10-30T21:27:20Z</time>
      </trkpt>
      <trkpt lat="45.9816" lon="3.5119">
        <ele>301.7</ele>
        <time>2025-10-30T21:27:20Z</time>
      </trkpt>
      <trkpt lat="45.98158" lon="3.51197">
        <ele>301.8</ele>
        <time>2025-10-30T21:27:20Z</time>
      </trkpt>
      <trkpt lat="45.98156" lon="3.51204">
        <ele>301.8</ele>
        <time>2025-10-30T21:27:20Z</time>
      </trkpt>
      <trkpt lat="45.98153" lon="3.5121">
        <ele>301.9</ele>
        <time>2025-10-30T21:27:20Z</time>
      </trkpt>
      <trkpt lat="45.98141" lon="3.51229">
        <ele>302.3</ele>
        <time>2025-10-30T21:27:20Z</time>
      </trkpt>
      <trkpt lat="45.98127" lon="3.51253">
        <ele>302.7</ele>
        <time>2025-10-30T21:27:20Z</time>
      </trkpt>
      <trkpt lat="45.98119" lon="3.51267">
        <ele>302.7</ele>
        <time>2025-10-30T21:27:20Z</time>
      </trkpt>
      <trkpt lat="45.98113" lon="3.51281">
        <ele>302.8</ele>
        <time>2025-10-30T21:27:20Z</time>
      </trkpt>
      <trkpt lat="45.98109" lon="3.51291">
        <ele>302.7</ele>
        <time>2025-10-30T21:27:20Z</time>
      </trkpt>
      <trkpt lat="45.98106" lon="3.513">
        <ele>302.9</ele>
        <time>2025-10-30T21:27:20Z</time>
      </trkpt>
      <trkpt lat="45.98029" lon="3.51225">
        <ele>306.7</ele>
        <time>2025-10-30T21:27:20Z</time>
      </trkpt>
      <trkpt lat="45.98025" lon="3.51213">
        <ele>309.7</ele>
        <time>2025-10-30T21:27:20Z</time>
      </trkpt>
      <trkpt lat="45.97979" lon="3.51232">
        <ele>324.8</ele>
        <time>2025-10-30T21:27:20Z</time>
      </trkpt>
      <trkpt lat="45.97912" lon="3.51226">
        <ele>330.4</ele>
        <time>2025-10-30T21:27:20Z</time>
      </trkpt>
      <trkpt lat="45.9786" lon="3.51222">
        <ele>339.6</ele>
        <time>2025-10-30T21:27:20Z</time>
      </trkpt>
      <trkpt lat="45.97734" lon="3.51282">
        <ele>350.8</ele>
        <time>2025-10-30T21:27:20Z</time>
      </trkpt>
      <trkpt lat="45.97759" lon="3.51424">
        <ele>349.8</ele>
        <time>2025-10-30T21:27:20Z</time>
      </trkpt>
      <trkpt lat="45.97743" lon="3.51571">
        <ele>346.7</ele>
        <time>2025-10-30T21:27:20Z</time>
      </trkpt>
      <trkpt lat="45.97712" lon="3.51682">
        <ele>347</ele>
        <time>2025-10-30T21:27:20Z</time>
      </trkpt>
      <trkpt lat="45.97699" lon="3.5177">
        <ele>340.4</ele>
        <time>2025-10-30T21:27:20Z</time>
      </trkpt>
      <trkpt lat="45.97676" lon="3.51844">
        <ele>333.9</ele>
        <time>2025-10-30T21:27:20Z</time>
      </trkpt>
      <trkpt lat="45.97637" lon="3.51871">
        <ele>327.3</ele>
        <time>2025-10-30T21:27:20Z</time>
      </trkpt>
      <trkpt lat="45.97626" lon="3.51873">
        <ele>324.6</ele>
        <time>2025-10-30T21:27:20Z</time>
      </trkpt>
      <trkpt lat="45.97625" lon="3.51904">
        <ele>319.5</ele>
        <time>2025-10-30T21:27:20Z</time>
      </trkpt>
      <trkpt lat="45.97625" lon="3.51902">
        <ele>319.5</ele>
        <time>2025-10-30T21:27:20Z</time>
      </trkpt>
      <trkpt lat="45.97616" lon="3.519">
        <ele>319.7</ele>
        <time>2025-10-30T21:27:20Z</time>
      </trkpt>
      <trkpt lat="45.9761" lon="3.51898">
        <ele>318.9</ele>
        <time>2025-10-30T21:27:20Z</time>
      </trkpt>
      <trkpt lat="45.97608" lon="3.51898">
        <ele>318.9</ele>
        <time>2025-10-30T21:27:20Z</time>
      </trkpt>
      <trkpt lat="45.97604" lon="3.51898">
        <ele>318.6</ele>
        <time>2025-10-30T21:27:20Z</time>
      </trkpt>
      <trkpt lat="45.976" lon="3.519">
        <ele>318.4</ele>
        <time>2025-10-30T21:27:20Z</time>
      </trkpt>
      <trkpt lat="45.97596" lon="3.51902">
        <ele>317.9</ele>
        <time>2025-10-30T21:27:20Z</time>
      </trkpt>
      <trkpt lat="45.97594" lon="3.51903">
        <ele>317.9</ele>
        <time>2025-10-30T21:27:20Z</time>
      </trkpt>
      <trkpt lat="45.97593" lon="3.51904">
        <ele>317.8</ele>
        <time>2025-10-30T21:27:20Z</time>
      </trkpt>
      <trkpt lat="45.97592" lon="3.51904">
        <ele>317.8</ele>
        <time>2025-10-30T21:27:20Z</time>
      </trkpt>
      <trkpt lat="45.97591" lon="3.51905">
        <ele>317.8</ele>
        <time>2025-10-30T21:27:20Z</time>
      </trkpt>
      <trkpt lat="45.97593" lon="3.51912">
        <ele>317</ele>
        <time>2025-10-30T21:27:20Z</time>
      </trkpt>
      <trkpt lat="45.97599" lon="3.51923">
        <ele>315</ele>
        <time>2025-10-30T21:27:20Z</time>
      </trkpt>
      <trkpt lat="45.97605" lon="3.51934">
        <ele>314.7</ele>
        <time>2025-10-30T21:27:20Z</time>
      </trkpt>
      <trkpt lat="45.97605" lon="3.51944">
        <ele>314.6</ele>
        <time>2025-10-30T21:27:20Z</time>
      </trkpt>
      <trkpt lat="45.97605" lon="3.51973">
        <ele>315.8</ele>
        <time>2025-10-30T21:27:20Z</time>
      </trkpt>
      <trkpt lat="45.97614" lon="3.51974">
        <ele>315.5</ele>
        <time>2025-10-30T21:27:20Z</time>
      </trkpt>
      <trkpt lat="45.97624" lon="3.51975">
        <ele>316</ele>
        <time>2025-10-30T21:27:20Z</time>
      </trkpt>
      <trkpt lat="45.97628" lon="3.51975">
        <ele>316</ele>
        <time>2025-10-30T21:27:20Z</time>
      </trkpt>
      <trkpt lat="45.9763" lon="3.51975">
        <ele>315.4</ele>
        <time>2025-10-30T21:27:20Z</time>
      </trkpt>
      <trkpt lat="45.97639" lon="3.5198">
        <ele>315.1</ele>
        <time>2025-10-30T21:27:20Z</time>
      </trkpt>
      <trkpt lat="45.97648" lon="3.5199">
        <ele>315.1</ele>
        <time>2025-10-30T21:27:20Z</time>
      </trkpt>
      <trkpt lat="45.97651" lon="3.51992">
        <ele>315.1</ele>
        <time>2025-10-30T21:27:20Z</time>
      </trkpt>
      <trkpt lat="45.97658" lon="3.51999">
        <ele>315.1</ele>
        <time>2025-10-30T21:27:20Z</time>
      </trkpt>
      <trkpt lat="45.97668" lon="3.52006">
        <ele>314.6</ele>
        <time>2025-10-30T21:27:20Z</time>
      </trkpt>
      <trkpt lat="45.97672" lon="3.5201">
        <ele>314.4</ele>
        <time>2025-10-30T21:27:20Z</time>
      </trkpt>
      <trkpt lat="45.97678" lon="3.52012">
        <ele>314.2</ele>
        <time>2025-10-30T21:27:20Z</time>
      </trkpt>
      <trkpt lat="45.97679" lon="3.5201">
        <ele>314.2</ele>
        <time>2025-10-30T21:27:20Z</time>
      </trkpt>
      <trkpt lat="45.9768" lon="3.52006">
        <ele>313.8</ele>
        <time>2025-10-30T21:27:20Z</time>
      </trkpt>
      <trkpt lat="45.97682" lon="3.52003">
        <ele>313.7</ele>
        <time>2025-10-30T21:27:20Z</time>
      </trkpt>
      <trkpt lat="45.97686" lon="3.51996">
        <ele>313.4</ele>
        <time>2025-10-30T21:27:20Z</time>
      </trkpt>
      <trkpt lat="45.97694" lon="3.51999">
        <ele>313</ele>
        <time>2025-10-30T21:27:20Z</time>
      </trkpt>
      <trkpt lat="45.97696" lon="3.52001">
        <ele>312.9</ele>
        <time>2025-10-30T21:27:20Z</time>
      </trkpt>
      <trkpt lat="45.97699" lon="3.52002">
        <ele>312.7</ele>
        <time>2025-10-30T21:27:20Z</time>
      </trkpt>
      <trkpt lat="45.97709" lon="3.52006">
        <ele>312.3</ele>
        <time>2025-10-30T21:27:20Z</time>
      </trkpt>
      <trkpt lat="45.97712" lon="3.52006">
        <ele>312.2</ele>
        <time>2025-10-30T21:27:20Z</time>
      </trkpt>
      <trkpt lat="45.97722" lon="3.52007">
        <ele>311.8</ele>
        <time>2025-10-30T21:27:20Z</time>
      </trkpt>
      <trkpt lat="45.97748" lon="3.52007">
        <ele>311.6</ele>
        <time>2025-10-30T21:27:20Z</time>
      </trkpt>
      <trkpt lat="45.97751" lon="3.52018">
        <ele>311.1</ele>
        <time>2025-10-30T21:27:20Z</time>
      </trkpt>
      <trkpt lat="45.9775" lon="3.52039">
        <ele>310.4</ele>
        <time>2025-10-30T21:27:20Z</time>
      </trkpt>
      <trkpt lat="45.97752" lon="3.52047">
        <ele>310.4</ele>
        <time>2025-10-30T21:27:20Z</time>
      </trkpt>
      <trkpt lat="45.97753" lon="3.5205">
        <ele>310.3</ele>
        <time>2025-10-30T21:27:20Z</time>
      </trkpt>
      <trkpt lat="45.9774" lon="3.52064">
        <ele>310.7</ele>
        <time>2025-10-30T21:27:20Z</time>
      </trkpt>
      <trkpt lat="45.97728" lon="3.52078">
        <ele>311.1</ele>
        <time>2025-10-30T21:27:20Z</time>
      </trkpt>
      <trkpt lat="45.9772" lon="3.52091">
        <ele>311.4</ele>
        <time>2025-10-30T21:27:20Z</time>
      </trkpt>
      <trkpt lat="45.97719" lon="3.52088">
        <ele>311.3</ele>
        <time>2025-10-30T21:27:20Z</time>
      </trkpt>
      <trkpt lat="45.9772" lon="3.52091">
        <ele>311.4</ele>
        <time>2025-10-30T21:27:20Z</time>
      </trkpt>
      <trkpt lat="45.97722" lon="3.52093">
        <ele>311.4</ele>
        <time>2025-10-30T21:27:20Z</time>
      </trkpt>
      <trkpt lat="45.97726" lon="3.521">
        <ele>311.1</ele>
        <time>2025-10-30T21:27:20Z</time>
      </trkpt>
      <trkpt lat="45.97728" lon="3.52103">
        <ele>311.3</ele>
        <time>2025-10-30T21:27:20Z</time>
      </trkpt>
      <trkpt lat="45.97722" lon="3.52111">
        <ele>311.4</ele>
        <time>2025-10-30T21:27:20Z</time>
      </trkpt>
      <trkpt lat="45.97716" lon="3.52118">
        <ele>311.7</ele>
        <time>2025-10-30T21:27:20Z</time>
      </trkpt>
      <trkpt lat="45.97703" lon="3.52132">
        <ele>312</ele>
        <time>2025-10-30T21:27:20Z</time>
      </trkpt>
      <trkpt lat="45.97697" lon="3.52137">
        <ele>312.1</ele>
        <time>2025-10-30T21:27:20Z</time>
      </trkpt>
      <trkpt lat="45.9769" lon="3.52143">
        <ele>312.1</ele>
        <time>2025-10-30T21:27:20Z</time>
      </trkpt>
      <trkpt lat="45.97686" lon="3.52147">
        <ele>312.2</ele>
        <time>2025-10-30T21:27:20Z</time>
      </trkpt>
      <trkpt lat="45.97682" lon="3.52152">
        <ele>312.2</ele>
        <time>2025-10-30T21:27:20Z</time>
      </trkpt>
      <trkpt lat="45.97678" lon="3.52159">
        <ele>312.2</ele>
        <time>2025-10-30T21:27:20Z</time>
      </trkpt>
      <trkpt lat="45.97673" lon="3.52168">
        <ele>312.5</ele>
        <time>2025-10-30T21:27:20Z</time>
      </trkpt>
      <trkpt lat="45.97668" lon="3.52177">
        <ele>312.5</ele>
        <time>2025-10-30T21:27:20Z</time>
      </trkpt>
      <trkpt lat="45.97665" lon="3.52187">
        <ele>312.4</ele>
        <time>2025-10-30T21:27:20Z</time>
      </trkpt>
      <trkpt lat="45.97661" lon="3.52198">
        <ele>312.4</ele>
        <time>2025-10-30T21:27:20Z</time>
      </trkpt>
      <trkpt lat="45.97659" lon="3.52207">
        <ele>312.5</ele>
        <time>2025-10-30T21:27:20Z</time>
      </trkpt>
      <trkpt lat="45.97658" lon="3.52211">
        <ele>312.5</ele>
        <time>2025-10-30T21:27:20Z</time>
      </trkpt>
      <trkpt lat="45.97658" lon="3.52214">
        <ele>312.5</ele>
        <time>2025-10-30T21:27:20Z</time>
      </trkpt>
      <trkpt lat="45.97657" lon="3.52224">
        <ele>312.6</ele>
        <time>2025-10-30T21:27:20Z</time>
      </trkpt>
      <trkpt lat="45.97652" lon="3.52221">
        <ele>312.9</ele>
        <time>2025-10-30T21:27:20Z</time>
      </trkpt>
      <trkpt lat="45.97649" lon="3.52219">
        <ele>313.2</ele>
        <time>2025-10-30T21:27:20Z</time>
      </trkpt>
      <trkpt lat="45.97648" lon="3.52217">
        <ele>313.2</ele>
        <time>2025-10-30T21:27:20Z</time>
      </trkpt>
      <trkpt lat="45.97646" lon="3.52214">
        <ele>313.1</ele>
        <time>2025-10-30T21:27:20Z</time>
      </trkpt>
      <trkpt lat="45.97645" lon="3.52212">
        <ele>313.4</ele>
        <time>2025-10-30T21:27:20Z</time>
      </trkpt>
      <trkpt lat="45.97645" lon="3.52211">
        <ele>313.4</ele>
        <time>2025-10-30T21:27:20Z</time>
      </trkpt>
      <trkpt lat="45.97645" lon="3.52206">
        <ele>313.4</ele>
        <time>2025-10-30T21:27:20Z</time>
      </trkpt>
      <trkpt lat="45.97644" lon="3.52199">
        <ele>313.2</ele>
        <time>2025-10-30T21:27:20Z</time>
      </trkpt>
      <trkpt lat="45.97644" lon="3.52194">
        <ele>312.9</ele>
        <time>2025-10-30T21:27:20Z</time>
      </trkpt>
      <trkpt lat="45.97642" lon="3.52183">
        <ele>313</ele>
        <time>2025-10-30T21:27:20Z</time>
      </trkpt>
      <trkpt lat="45.9764" lon="3.52172">
        <ele>313.5</ele>
        <time>2025-10-30T21:27:20Z</time>
      </trkpt>
    </trkseg>
  </trk>
</gpx>